[[{"header":{"parameterUnit":"m.s-1","parameterCategory":1,"la1":31.0,"la2":29.5877,"lo1":-88.7671,"lo2":-86.6584,"dy":0.0162,"dx":0.0185,"nx":115,"ny":88,"refTime":"2023-09-10T06:00:00:Z","depth":0,"parameterNumber":2,"parameterNumberName":"U-component_of_WINDS"},"data":[0.0,0.0,0.0,0.0,0.0,0.0,0.0,0.0,0.0,0.0,0.0,0.0,0.0,0.0,0.0,0.0,0.0,0.0,0.0,0.0,0.0,0.0,0.0,0.0,0.0,0.0,0.0,0.0,0.0,0.0,0.0,0.0,0.0,0.0,0.0,0.0,0.0,0.0,0.0,0.0,0.0,0.0,0.0,0.0,0.0,0.0,0.0,0.0,0.0,0.0,0.0,0.0,0.0,0.0,0.0,0.0,0.0,0.0,0.0,0.0,0.0,0.0,0.0,0.0,0.0,0.0,0.0,0.0,0.0,0.0,0.0,0.0,0.0,0.0,0.0,0.0,0.0,0.0,0.0,0.0,0.0,0.0,0.0,0.0,0.0,0.0,0.0,0.0,0.0,0.0,0.0,0.0,0.0,0.0,0.0,0.0,0.0,0.0,0.0,0.0,0.0,0.0,0.0,0.0,0.0,0.0,0.0,0.0,0.0,0.0,0.0,0.0,0.0,0.0,0.0,0.0,0.0,0.0,0.0,0.0,0.0,0.0,0.0,0.0,0.0,0.0,0.0,0.0,0.0,0.0,0.0,0.0,0.0,0.0,0.0,0.0,0.0,0.0,0.0,0.0,0.0,0.0,0.0,0.0,0.0,0.0,0.0,0.0,0.0,0.0,0.0,0.0,0.0,0.0,0.0,0.0,0.0,0.0,0.0,0.0,0.0,0.0,0.0,0.0,0.0,0.0,0.0,0.0,0.0,0.0,0.0,0.0,0.0,0.0,0.0,0.0,0.0,0.0,0.0,0.0,0.0,0.0,0.0,0.0,0.0,0.0,0.0,0.0,0.0,0.0,0.0,0.0,0.0,0.0,0.0,0.0,0.0,0.0,0.0,0.0,0.0,0.0,0.0,0.0,0.0,0.0,0.0,0.0,0.0,0.0,0.0,0.0,0.0,0.0,0.0,0.0,0.0,0.0,0.0,0.0,0.0,0.0,0.0,0.0,0.0,0.0,0.0,0.0,0.0,0.0,0.0,0.0,0.0,0.0,0.0,0.0,0.0,0.0,0.0,0.0,0.0,0.0,0.0,0.0,0.0,0.0,0.0,0.0,0.0,0.0,0.0,0.0,0.0,0.0,0.0,0.0,0.0,0.0,0.0,0.0,0.0,0.0,0.0,0.0,0.0,0.0,0.0,0.0,0.0,0.0,0.0,0.0,0.0,0.0,0.0,0.0,0.0,0.0,0.0,0.0,0.0,0.0,0.0,0.0,0.0,0.0,0.0,0.0,0.0,0.0,0.0,0.0,0.0,0.0,0.0,0.0,0.0,0.0,0.0,0.0,0.0,0.0,0.0,0.0,0.0,0.0,0.0,0.0,0.0,0.0,0.0,0.0,0.0,0.0,0.0,0.0,0.0,0.0,0.0,0.0,0.0,0.0,0.0,0.0,0.0,0.0,0.0,0.0,0.0,0.0,0.0,0.0,0.0,0.0,0.0,0.0,0.0,0.0,0.0,0.0,0.0,0.0,0.0,0.0,0.0,0.0,0.0,0.0,0.0,0.0,0.0,0.0,0.0,0.0,0.0,0.0,0.0,0.0,0.0,0.0,0.0,0.0,0.0,0.0,0.0,0.0,0.0,0.0,0.0,0.0,0.0,0.0,0.0,0.0,0.0,0.0,0.0,0.0,0.0,0.0,0.0,0.0,0.0,0.0,0.0,0.0,0.0,0.0,0.0,0.0,0.0,0.0,0.0,0.0,0.0,0.0,0.0,0.0,0.0,0.0,0.0,0.0,0.0,0.0,0.0,0.0,0.0,0.0,0.0,0.0,0.0,0.0,0.0,0.0,0.0,0.0,0.0,0.0,0.0,0.0,0.0,0.0,0.0,0.0,0.0,0.0,0.0,0.0,0.0,0.0,0.0,0.0,0.0,0.0,0.0,0.0,0.0,0.0,0.0,0.0,0.0,0.0,0.0,0.0,0.0,0.0,0.0,0.0,0.0,0.0,0.0,0.0,0.0,0.0,0.0,0.0,0.0,0.0,0.0,0.0,0.0,0.0,0.0,0.0,0.0,0.0,0.0,0.0,0.0,0.0,0.0,0.0,0.0,0.0,0.0,0.0,0.0,0.0,0.0,0.0,0.0,0.0,0.0,0.0,0.0,0.0,0.0,0.0,0.0,0.0,0.0,0.0,0.0,0.0,0.0,0.0,0.0,0.0,0.0,0.0,0.0,0.0,0.0,0.0,0.0,0.0,0.0,0.0,0.0,0.0,0.0,0.0,0.0,0.0,0.0,0.0,0.0,0.0,0.0,0.0,0.0,0.0,0.0,0.0,0.0,0.0,0.0,0.0,0.0,0.0,0.0,0.0,0.0,0.0,0.0,0.0,0.0,0.0,0.0,0.0,0.0,0.0,0.0,0.0,0.0,0.0,0.0,0.0,0.0,0.0,0.0,0.0,0.0,0.0,0.0,0.0,0.0,0.0,0.0,0.0,0.0,0.0,0.0,0.0,0.0,0.0,0.0,0.0,0.0,0.0,0.0,0.0,0.0,0.0,0.0,0.0,0.0,0.0,0.0,0.0,0.0,0.0,0.0,0.0,0.0,0.0,0.0,0.0,0.0,0.0,0.0,0.0,0.0,0.0,0.0,0.0,0.0,0.0,0.0,0.0,0.0,0.0,0.0,0.0,0.0,0.0,0.0,0.0,0.0,0.0,0.0,0.0,0.0,0.0,0.0,0.0,0.0,0.0,0.0,0.0,0.0,0.0,0.0,0.0,0.0,0.0,0.0,0.0,0.0,0.0,0.0,0.0,0.0,0.0,0.0,0.0,0.0,0.0,0.0,0.0,0.0,0.0,0.0,0.0,0.0,0.0,0.0,0.0,0.0,0.0,0.0,0.0,0.0,0.0,0.0,0.0,0.0,0.0,0.0,0.0,0.0,0.0,0.0,0.0,0.0,0.0,0.0,0.0,0.0,0.0,0.0,0.0,0.0,0.0,0.0,0.0,0.0,0.0,0.0,0.0,0.0,0.0,0.0,0.0,0.0,0.0,0.0,0.0,0.0,0.0,0.0,0.0,0.0,0.0,0.0,0.0,0.0,0.0,0.0,0.0,0.0,0.0,0.0,0.0,0.0,0.0,0.0,0.0,0.0,0.0,0.0,0.0,0.0,0.0,0.0,0.0,0.0,0.0,0.0,0.0,0.0,0.0,0.0,0.0,0.0,0.0,0.0,0.0,0.0,0.0,0.0,0.0,0.0,0.0,0.0,0.0,0.0,0.0,0.0,0.0,0.0,0.0,0.0,0.0,0.0,0.0,0.0,0.0,0.0,0.0,0.0,0.0,0.0,0.0,0.0,0.0,0.0,0.0,0.0,0.0,0.0,0.0,0.0,0.0,0.0,0.0,0.0,0.0,0.0,0.0,0.0,0.0,0.0,0.0,0.0,0.0,0.0,0.0,0.0,0.0,0.0,0.0,0.0,0.0,0.0,0.0,0.0,0.0,0.0,0.0,0.0,0.0,0.0,0.0,0.0,0.0,0.0,0.0,0.0,0.0,0.0,0.0,0.0,0.0,0.0,0.0,0.0,0.0,0.0,0.0,0.0,0.0,0.0,0.0,0.0,0.0,0.0,0.0,0.0,0.0,0.0,0.0,0.0,0.0,0.0,0.0,0.0,0.0,0.0,0.0,0.0,0.0,0.0,0.0,0.0,0.0,0.0,0.0,0.0,0.0,0.0,0.0,0.0,0.0,0.0,0.0,0.0,0.0,0.0,0.0,0.0,0.0,0.0,0.0,0.0,0.0,0.0,0.0,0.0,0.0,0.0,0.0,0.0,0.0,0.0,0.0,0.0,0.0,0.0,0.0,0.0,0.0,0.0,0.0,0.0,0.0,0.0,0.0,0.0,0.0,0.0,0.0,0.0,0.0,0.0,0.0,0.0,0.0,0.0,0.0,0.0,0.0,0.0,0.0,0.0,0.0,0.0,0.0,0.0,0.0,0.0,0.0,0.0,0.0,0.0,0.0,0.0,0.0,0.0,0.0,0.0,0.0,0.0,0.0,0.0,0.0,0.0,0.0,0.0,0.0,0.0,0.0,0.0,0.0,0.0,0.0,0.0,0.0,0.0,0.0,0.0,0.0,0.0,0.0,0.0,0.0,0.0,0.0,0.0,0.0,0.0,0.0,0.0,0.0,0.0,0.0,0.0,0.0,0.0,0.0,0.0,0.0,0.0,0.0,0.0,0.0,0.0,0.0,0.0,0.0,0.0,0.0,0.0,0.0,0.0,0.0,2.3363,0.0,0.0,0.0,0.0,0.0,0.0,0.0,0.0,0.0,0.0,0.0,0.0,0.0,0.0,0.0,0.0,0.0,0.0,0.0,0.0,0.0,0.0,0.0,0.0,0.0,0.0,0.0,0.0,0.0,0.0,0.0,0.0,0.0,0.0,0.0,0.0,0.0,0.0,0.0,0.0,0.0,0.0,0.0,0.0,0.0,0.0,0.0,0.0,0.0,0.0,0.0,0.0,0.0,0.0,0.0,0.0,0.0,0.0,0.0,0.0,0.0,0.0,0.0,0.0,0.0,0.0,0.0,0.0,0.0,0.0,0.0,0.0,0.0,0.0,0.0,0.0,0.0,0.0,0.0,0.0,0.0,0.0,0.0,0.0,0.0,0.0,0.0,0.0,0.0,0.0,0.0,0.0,0.0,0.0,0.0,0.0,0.0,0.0,0.0,0.0,0.0,0.0,0.0,0.0,0.0,0.0,0.0,0.0,0.0,0.0,2.3172,2.2875,2.2725,2.2575,2.2409,0.0,0.0,0.0,0.0,0.0,0.0,0.0,0.0,0.0,0.0,0.0,0.0,0.0,0.0,0.0,0.0,0.0,0.0,0.0,0.0,0.0,0.0,0.0,0.0,0.0,0.0,0.0,0.0,0.0,0.0,0.0,0.0,0.0,0.0,0.0,0.0,0.0,0.0,0.0,0.0,0.0,0.0,0.0,0.0,0.0,0.0,0.0,0.0,0.0,0.0,0.0,0.0,0.0,0.0,0.0,0.0,0.0,0.0,0.0,0.0,0.0,0.0,0.0,0.0,0.0,0.0,0.0,0.0,0.0,0.0,0.0,0.0,0.0,0.0,0.0,0.0,0.0,0.0,0.0,0.0,0.0,0.0,0.0,0.0,0.0,0.0,0.0,0.0,0.0,0.0,0.0,0.0,0.0,0.0,0.0,0.0,0.0,0.0,0.0,0.0,0.0,0.0,0.0,0.0,0.0,0.0,0.0,0.0,0.0,0.0,0.0,0.0,2.1595,2.1376,2.1218,0.0,0.0,0.0,0.0,0.0,0.0,0.0,0.0,0.0,0.0,0.0,0.0,0.0,0.0,0.0,0.0,0.0,0.0,0.0,0.0,0.0,0.0,0.0,0.0,0.0,0.0,0.0,0.0,0.0,0.0,0.0,0.0,0.0,0.0,0.0,0.0,0.0,0.0,0.0,0.0,0.0,0.0,0.0,0.0,0.0,0.0,0.0,0.0,0.0,0.0,0.0,0.0,0.0,0.0,0.0,0.0,0.0,0.0,0.0,0.0,0.0,0.0,0.0,0.0,0.0,0.0,0.0,0.0,0.0,0.0,0.0,0.0,0.0,0.0,0.0,0.0,0.0,0.0,0.0,0.0,0.0,0.0,0.0,0.0,0.0,0.0,0.0,0.0,0.0,0.0,0.0,0.0,0.0,0.0,0.0,0.0,0.0,0.0,0.0,0.0,0.0,0.0,0.0,0.0,0.0,0.0,0.0,0.0,0.0,0.0,2.1002,2.057,2.0344,0.0,1.9787,0.0,0.0,0.0,0.0,0.0,0.0,0.0,0.0,0.0,0.0,0.0,0.0,0.0,0.0,0.0,0.0,0.0,0.0,0.0,0.0,0.0,0.0,0.0,0.0,0.0,0.0,0.0,0.0,0.0,0.0,0.0,0.0,0.0,0.0,0.0,0.0,0.0,0.0,0.0,0.0,0.0,0.0,0.0,0.0,0.0,0.0,0.0,0.0,0.0,0.0,0.0,0.0,0.0,0.0,0.0,0.0,0.0,0.0,0.0,0.0,0.0,0.0,0.0,0.0,0.0,0.0,0.0,0.0,0.0,0.0,0.0,0.0,0.0,0.0,0.0,0.0,0.0,0.0,0.0,0.0,0.0,0.0,0.0,0.0,0.0,0.0,0.0,0.0,0.0,0.0,0.0,0.0,0.0,0.0,0.0,0.0,0.0,0.0,0.0,0.0,0.0,0.0,0.0,0.0,0.0,0.0,0.0,0.0,0.0,0.0,1.9414,1.8891,1.8549,1.8324,0.0,0.0,0.0,0.0,0.0,0.0,0.0,0.0,0.0,0.0,0.0,0.0,0.0,0.0,0.0,0.0,0.0,0.0,0.0,0.0,0.0,0.0,0.0,0.0,0.0,0.0,0.0,0.0,0.0,0.0,0.0,0.0,0.0,0.0,0.0,0.0,0.0,0.0,0.0,0.0,0.0,0.0,0.0,0.0,0.0,0.0,0.0,0.0,0.0,0.0,0.0,0.0,0.0,0.0,0.0,0.0,0.0,0.0,0.0,0.0,0.0,0.0,0.0,0.0,0.0,0.0,0.0,0.0,0.0,0.0,0.0,0.0,0.0,0.0,0.0,0.0,0.0,0.0,0.0,0.0,0.0,0.0,0.0,0.0,0.0,0.0,0.0,0.0,0.0,0.0,0.0,0.0,0.0,0.0,0.0,0.0,0.0,0.0,0.0,0.0,0.0,0.0,0.0,0.0,0.0,0.0,0.0,0.0,0.0,0.0,1.8132,1.7632,1.6903,1.6567,1.6409,1.6409,0.0,0.0,0.0,0.0,0.0,0.0,0.0,0.0,0.0,0.0,0.0,0.0,0.0,0.0,0.0,0.0,0.0,0.0,0.0,0.0,0.0,0.0,0.0,0.0,0.0,0.0,0.0,0.0,0.0,0.0,0.0,0.0,0.0,0.0,0.0,0.0,0.0,0.0,0.0,0.0,0.0,0.0,0.0,0.0,0.0,0.0,0.0,0.0,0.0,0.0,0.0,0.0,0.0,0.0,0.0,0.0,0.0,0.0,0.0,0.0,0.0,0.0,0.0,0.0,0.0,0.0,0.0,0.0,0.0,0.0,0.0,0.0,0.0,0.0,0.0,0.0,0.0,0.0,0.0,0.0,0.0,0.0,0.0,0.0,0.0,0.0,0.0,0.0,0.0,0.0,0.0,0.0,0.0,0.0,0.0,0.0,0.0,0.0,0.0,0.0,0.0,0.0,0.0,0.0,0.0,0.0,0.0,0.0,1.7446,1.6567,1.5581,1.4594,1.4505,1.4523,0.0,0.0,0.0,0.0,0.0,0.0,0.0,0.0,0.0,0.0,0.0,0.0,0.0,0.0,0.0,0.0,0.0,0.0,0.0,0.0,0.0,0.0,0.0,0.0,0.0,0.0,0.0,0.0,0.0,0.0,0.0,0.0,0.0,0.0,0.0,0.0,0.0,0.0,0.0,0.0,0.0,0.0,0.0,0.0,0.0,0.0,0.0,0.0,0.0,0.0,0.0,0.0,0.0,0.0,0.0,0.0,0.0,0.0,0.0,0.0,0.0,0.0,0.0,0.0,0.0,0.0,0.0,0.0,0.0,0.0,0.0,0.0,0.0,0.0,0.0,0.0,0.0,0.0,0.0,0.0,0.0,0.0,0.0,0.0,0.0,0.0,0.0,0.0,0.0,0.0,0.0,0.0,0.0,0.0,0.0,0.0,0.0,0.0,0.0,0.0,0.0,0.0,0.0,0.0,0.0,0.0,0.0,0.0,0.0,1.5322,1.3969,1.2877,1.2035,1.2127,1.2265,0.0,0.0,0.0,0.0,0.0,0.0,0.0,0.0,0.0,0.0,0.0,0.0,0.0,0.0,0.0,0.0,0.0,0.0,0.0,0.0,0.0,0.0,0.0,0.0,0.0,0.0,0.0,0.0,0.0,0.0,0.0,0.0,0.0,0.0,0.0,0.0,0.0,0.0,0.0,0.0,0.0,0.0,0.0,0.0,0.0,0.0,0.0,0.0,0.0,0.0,0.0,0.0,0.0,0.0,0.0,0.0,0.0,0.0,0.0,0.0,0.0,0.0,0.0,0.0,0.0,0.0,0.0,0.0,0.0,0.0,0.0,0.0,0.0,0.0,0.0,0.0,0.0,0.0,0.0,0.0,0.0,0.0,0.0,0.0,0.0,0.0,0.0,0.0,0.0,0.0,0.0,0.0,0.0,0.0,0.0,0.0,0.0,0.0,0.0,0.0,0.0,0.0,0.0,0.0,0.0,0.0,0.0,0.0,0.0,1.253,0.0,1.0101,0.9415,0.9756,1.0021,0.0,0.0,0.0,0.0,0.0,0.0,0.0,0.0,0.0,0.0,0.0,0.0,0.0,0.0,0.0,0.0,0.0,0.0,0.0,0.0,0.0,0.0,0.0,0.0,0.0,0.0,0.0,0.0,0.0,0.0,0.0,0.0,0.0,0.0,0.0,0.0,0.0,0.0,0.0,0.0,0.0,0.0,0.0,0.0,0.0,0.0,0.0,0.0,0.0,0.0,0.0,0.0,0.0,0.0,0.0,0.0,0.0,0.0,0.0,0.0,0.0,0.0,0.0,0.0,0.0,0.0,0.0,0.0,0.0,0.0,0.0,0.0,0.0,0.0,0.0,0.0,0.0,0.0,0.0,0.0,0.0,0.0,0.0,0.0,0.0,0.0,0.0,0.0,0.0,0.0,0.0,0.0,0.0,0.0,0.0,0.0,0.0,0.0,0.0,0.0,0.0,0.0,0.0,0.0,0.0,0.0,0.0,0.0,1.1475,0.8983,0.8201,0.7431,0.6603,0.7261,0.7852,0.0,0.0,0.0,0.0,0.0,0.0,0.0,0.0,0.0,0.0,0.0,0.0,0.0,0.0,0.0,0.0,0.0,0.0,0.0,0.0,0.0,0.0,0.0,0.0,0.0,0.0,0.0,0.0,0.0,0.0,0.0,0.0,0.0,0.0,0.0,0.0,0.0,0.0,0.0,0.0,0.0,0.0,0.0,0.0,0.0,0.0,0.0,0.0,0.0,0.0,0.0,0.0,0.0,0.0,0.0,0.0,0.0,0.0,0.0,0.0,0.0,0.0,0.0,0.0,0.0,0.0,0.0,0.0,0.0,0.0,0.0,0.0,0.0,0.0,0.0,0.0,0.0,0.0,0.0,0.0,0.0,0.0,0.0,0.0,0.0,0.0,0.0,0.0,0.0,0.0,0.0,0.0,0.0,0.0,0.0,0.0,0.0,0.0,0.0,0.0,0.0,0.0,0.0,0.0,0.0,0.0,0.0,0.0,0.0,0.6067,0.5147,0.4364,0.3784,0.4515,0.5308,0.0,0.0,0.0,0.0,0.0,0.0,0.0,0.0,0.0,0.0,0.0,0.0,0.0,0.0,0.0,0.0,0.0,0.0,0.0,0.0,0.0,0.0,0.0,0.0,0.0,0.0,0.0,0.0,0.0,0.0,0.0,0.0,0.0,0.0,0.0,0.0,0.0,0.0,0.0,0.0,0.0,0.0,0.0,0.0,0.0,0.0,0.0,0.0,0.0,0.0,0.0,0.0,0.0,0.0,0.0,0.0,0.0,0.0,0.0,0.0,0.0,0.0,0.0,0.0,0.0,0.0,0.0,0.0,0.0,0.0,0.0,0.0,0.0,0.0,0.0,0.0,0.0,0.0,0.0,0.0,0.0,0.0,0.0,0.0,0.0,0.0,0.0,0.0,0.0,0.0,0.0,0.0,0.0,0.0,0.0,0.0,0.0,0.0,0.0,0.0,0.0,0.0,0.0,0.0,0.0,0.0,0.0,0.0,0.0,0.2216,0.178,0.1462,0.1202,0.1931,0.2861,0.3929,0.0,0.0,0.0,0.0,0.0,0.0,0.0,0.0,0.0,0.0,0.0,0.0,0.0,0.0,0.0,0.0,0.0,0.0,0.0,0.0,0.0,0.0,0.0,0.0,0.0,0.0,0.0,0.0,0.0,0.0,0.0,0.0,0.0,0.0,0.0,0.0,0.0,0.0,0.0,0.0,0.0,0.0,0.0,0.0,0.0,0.0,0.0,0.0,0.0,0.0,0.0,0.0,0.0,0.0,0.0,0.0,0.0,0.0,0.0,0.0,0.0,0.0,0.0,0.0,0.0,0.0,0.0,0.0,0.0,0.0,0.0,0.0,0.0,0.0,0.0,0.0,0.0,0.0,0.0,0.0,0.0,0.0,0.0,0.0,0.0,0.0,0.0,0.0,0.0,0.0,0.0,0.0,0.0,0.0,0.0,0.0,0.0,0.0,0.0,0.0,0.0,0.0,0.0,0.0,0.0,0.0,0.0,0.0,-0.2434,-0.1771,-0.1263,-0.0935,-0.0399,0.0532,0.0,0.0,0.0,0.0,0.0,0.0,0.0,0.0,0.0,0.0,0.0,0.0,0.0,0.0,0.0,0.0,0.0,0.0,0.0,0.0,0.0,0.0,0.0,0.0,0.0,0.0,0.0,0.0,0.0,0.0,0.0,0.0,0.0,0.0,0.0,0.0,0.0,0.0,0.0,0.0,0.0,0.0,0.0,0.0,0.0,0.0,0.0,0.0,0.0,0.0,0.0,0.0,0.0,0.0,0.0,0.0,0.0,0.0,0.0,0.0,0.0,0.0,0.0,0.0,0.0,0.0,0.0,0.0,0.0,0.0,0.0,0.0,0.0,0.0,0.0,0.0,0.0,0.0,0.0,0.0,0.0,0.0,0.0,0.0,0.0,0.0,0.0,0.0,0.0,0.0,0.0,0.0,0.0,0.0,0.0,0.0,0.0,0.0,0.0,0.0,0.0,0.0,0.0,0.0,0.0,0.0,0.0,0.0,0.0,-0.6709,-0.5545,-0.4134,-0.279,-0.1942,-0.085,0.0,0.0,0.0,0.0,0.0,0.0,0.0,0.0,0.0,0.0,0.0,0.0,0.0,0.0,0.0,0.0,0.0,0.0,0.0,0.0,0.0,0.0,0.0,0.0,0.0,0.0,0.0,0.0,0.0,0.0,0.0,0.0,0.0,0.0,0.0,0.0,0.0,0.0,0.0,0.0,0.0,0.0,0.0,0.0,0.0,0.0,0.0,0.0,0.0,0.0,0.0,0.0,0.0,0.0,0.0,0.0,0.0,0.0,0.0,0.0,0.0,0.0,0.0,0.0,0.0,0.0,0.0,0.0,0.0,0.0,0.0,0.0,0.0,0.0,0.0,0.0,0.0,0.0,0.0,0.0,0.0,0.0,0.0,0.0,0.0,0.0,0.0,0.0,0.0,0.0,0.0,0.0,0.0,0.0,0.0,0.0,0.0,0.0,0.0,0.0,0.0,0.0,0.0,0.0,0.0,0.0,0.0,0.0,-0.5042,-0.7412,-0.6798,-0.584,-0.4528,-0.3882,-0.2727,0.0,0.0,0.0,0.0,0.0,0.0,0.0,0.0,0.0,0.0,0.0,0.0,0.0,0.0,0.0,0.0,0.0,0.0,0.0,0.0,0.0,0.0,0.0,0.0,0.0,0.0,0.0,0.0,0.0,0.0,0.0,0.0,0.0,0.0,0.0,0.0,0.0,0.0,0.0,0.0,0.0,0.0,0.0,0.0,0.0,0.0,0.0,0.0,0.0,0.0,0.0,0.0,0.0,0.0,0.0,0.0,0.0,0.0,0.0,0.0,0.0,0.0,0.0,0.0,0.0,0.0,0.0,0.0,0.0,0.0,0.0,0.0,0.0,0.0,0.0,0.0,0.0,0.0,0.0,0.0,0.0,0.0,0.0,0.0,0.0,0.0,0.0,0.0,0.0,0.0,0.0,0.0,0.0,0.0,0.0,0.0,0.0,0.0,0.0,0.0,0.0,0.0,0.0,0.0,0.0,0.0,0.0,0.0,-0.6029,-0.6426,-0.6777,-0.6773,-0.6391,-0.5717,-0.454,0.0,0.0,0.0,0.0,0.0,0.0,0.0,0.0,0.0,0.0,0.0,0.0,0.0,0.0,0.0,0.0,0.0,0.0,0.0,0.0,0.0,0.0,0.0,0.0,0.0,0.0,0.0,0.0,0.0,0.0,0.0,0.0,0.0,0.0,0.0,0.0,0.0,0.0,0.0,0.0,0.0,0.0,0.0,0.0,0.0,0.0,0.0,0.0,0.0,0.0,0.0,0.0,0.0,0.0,0.0,0.0,0.0,0.0,0.0,0.0,0.0,0.0,0.0,0.0,0.0,0.0,0.0,0.0,0.0,0.0,0.0,0.0,0.0,0.0,0.0,0.0,0.0,0.0,0.0,0.0,0.0,0.0,0.0,0.0,0.0,0.0,0.0,0.0,0.0,0.0,0.0,0.0,0.0,0.0,0.0,0.0,0.0,0.0,0.0,0.0,0.0,0.0,0.0,0.0,0.0,0.0,0.0,0.0,-0.8064,-0.933,-0.8675,-0.8265,-0.8125,-0.6181,-0.4634,0.0,0.0,0.0,0.0,0.0,0.0,0.0,0.0,0.0,0.0,0.0,0.0,0.0,0.0,0.0,0.0,0.0,0.0,0.0,0.0,0.0,0.0,0.0,0.0,0.0,0.0,0.0,0.0,0.0,0.0,0.0,0.0,0.0,0.0,0.0,0.0,0.0,0.0,0.0,0.0,0.0,0.0,0.0,0.0,0.0,0.0,0.0,0.0,-0.1958,0.0,0.0,0.0,0.0,0.0,0.0,0.0,0.0,0.0,0.0,0.0,0.0,0.0,0.0,0.0,0.0,0.0,0.0,0.0,0.0,0.0,0.0,0.0,0.0,0.0,0.0,0.0,0.0,0.0,0.0,0.0,0.0,0.0,0.0,0.0,0.0,0.0,0.0,0.0,0.0,0.0,0.0,0.0,0.0,0.0,0.0,0.0,0.0,0.0,0.0,0.0,0.0,0.0,0.0,0.0,0.0,0.0,0.0,0.0,-0.9128,-0.9681,-0.9363,-0.8926,-0.8408,-0.6702,-0.537,0.0,0.0,0.0,0.0,0.0,0.0,0.0,0.0,0.0,0.0,0.0,0.0,0.0,0.0,0.0,0.0,0.0,0.0,0.0,0.0,0.0,0.0,0.0,0.0,0.0,0.0,0.0,0.0,0.0,0.0,0.0,0.0,0.0,0.0,0.0,0.0,0.0,0.0,0.0,0.0,0.0,0.0,0.0,0.0,0.0,0.0,0.0,0.0,0.0,0.0,0.0,0.0,0.0,0.0,0.0,0.0,0.0,0.0,0.0,0.0,0.0,0.0,0.0,0.0,0.0,0.0,0.0,0.0,0.0,0.0,0.0,0.0,0.0,0.0,0.0,0.0,0.0,0.0,0.0,0.0,0.0,0.0,0.0,0.0,0.0,0.0,0.0,0.0,0.0,0.0,0.0,0.0,0.0,0.0,0.0,0.0,0.0,0.0,0.0,0.0,0.0,0.0,0.0,0.0,0.0,0.0,0.0,-0.9736,-1.0063,-0.9519,-0.9874,-0.9557,-0.8487,-0.7509,-0.6454,-0.5364,0.0,0.0,0.0,0.0,0.0,0.0,0.0,0.0,0.0,0.0,0.0,0.0,0.0,0.0,0.0,0.0,0.0,0.0,0.0,0.0,0.0,0.0,0.0,0.0,0.0,0.0,0.0,0.0,0.0,0.0,0.0,0.0,0.0,0.0,0.0,0.0,0.0,0.0,-0.0,-0.1403,0.0,0.0,0.0,0.0,0.0,0.0,0.0,0.0,-0.3861,0.0,0.0,0.0,0.0,0.0,0.0,0.0,0.0,0.0,0.0,0.0,0.0,0.0,0.0,0.0,0.0,0.0,0.0,0.0,0.0,0.0,0.0,0.0,0.0,0.0,0.0,0.0,0.0,0.0,0.0,0.0,0.0,0.0,0.0,0.0,0.0,0.0,0.0,0.0,0.0,0.0,0.0,0.0,0.0,0.0,0.0,0.0,0.0,0.0,0.0,0.0,0.0,0.0,0.0,0.0,0.0,-1.0759,-1.1384,-1.1585,-1.1529,-1.1733,-1.1128,-0.9518,-0.9005,-0.7968,-0.6191,0.0,0.0,0.0,0.0,0.0,0.0,0.0,0.0,0.0,0.0,0.0,0.0,0.0,0.0,0.0,0.0,0.0,0.0,0.0,0.0,0.0,0.0,0.0,0.0,0.0,0.0,0.0,0.0,0.0,0.0,0.0,0.0,0.0,0.0,0.0,0.0,0.0,0.0,0.0,-0.3835,-0.4446,0.0,0.0,0.0,0.0,0.0,0.0,0.0,0.0,-0.4035,0.0,0.0,0.0,0.0,0.0,0.0,0.0,0.0,0.0,0.0,0.0,0.0,0.0,0.0,0.0,0.0,0.0,0.0,0.0,0.0,0.0,0.0,0.0,0.0,0.0,0.0,0.0,0.0,0.0,0.0,0.0,0.0,0.0,0.0,0.0,0.0,0.0,0.0,0.0,0.0,0.0,0.0,0.0,0.0,0.0,0.0,0.0,0.0,0.0,0.0,0.0,0.0,0.0,0.0,0.0,-1.0975,-1.1834,-1.2103,-1.1799,-1.218,-1.1623,-1.0091,-0.9497,-0.8443,0.0,0.0,0.0,0.0,0.0,0.0,0.0,0.0,0.0,0.0,0.0,0.0,0.0,0.0,0.0,0.0,0.0,0.0,0.0,0.0,0.0,0.0,0.0,0.0,0.0,0.0,0.0,0.0,0.0,0.0,0.0,0.0,0.0,0.0,0.0,0.0,0.0,0.0,0.0,0.0,-0.4939,-0.5375,-0.5465,0.0,0.0,0.0,0.0,0.0,0.0,-0.5203,-0.5101,0.0,0.0,0.0,0.0,0.0,0.0,0.0,0.0,0.0,0.0,0.0,0.0,0.0,0.0,0.0,0.0,0.0,0.0,0.0,0.0,0.0,0.0,0.0,0.0,0.0,0.0,0.0,0.0,0.0,0.0,0.0,0.0,0.0,0.0,0.0,0.0,0.0,0.0,0.0,0.0,0.0,0.0,0.0,0.0,0.0,0.0,0.0,0.0,0.0,0.0,0.0,0.0,0.0,0.0,0.0,-1.1045,-1.202,-1.2332,-1.1833,-1.2158,-1.1734,-1.0377,-0.9716,-0.8622,0.0,0.0,0.0,0.0,0.0,0.0,0.0,0.0,0.0,0.0,0.0,0.0,0.0,0.0,0.0,0.0,0.0,0.0,0.0,0.0,0.0,0.0,0.0,0.0,0.0,0.0,0.0,0.0,0.0,0.0,0.0,0.0,0.0,0.0,0.0,0.0,0.0,0.0,0.0,0.0,0.0,-0.6187,-0.669,-0.7135,0.0,0.0,0.0,0.0,-0.6718,-0.6401,0.0,0.0,0.0,0.0,0.0,0.0,0.0,0.0,0.0,0.0,0.0,0.0,0.0,0.0,0.0,0.0,0.0,0.0,0.0,0.0,0.0,0.0,0.0,0.0,0.0,0.0,0.0,0.0,0.0,0.0,0.0,0.0,0.0,0.0,0.0,0.0,0.0,0.0,0.0,0.0,0.0,0.0,0.0,0.0,0.0,0.0,0.0,0.0,0.0,0.0,0.0,0.0,0.0,0.0,0.0,0.0,-1.1826,-1.2451,-1.2626,-1.2395,-1.202,-1.1472,-1.0571,-1.0047,-0.8894,0.0,0.0,0.0,0.0,0.0,0.0,0.0,0.0,0.0,0.0,0.0,0.0,0.0,0.0,0.0,0.0,0.0,0.0,0.0,0.0,0.0,0.0,0.0,0.0,0.0,0.0,0.0,0.0,0.0,0.0,0.0,0.0,0.0,0.0,0.0,0.0,0.0,0.0,0.0,0.0,0.0,-0.7011,-0.729,-0.7568,-0.7639,0.0,0.0,-0.7225,-0.6798,-0.6649,0.0,0.0,0.0,0.0,0.0,0.0,0.0,0.0,0.0,0.0,0.0,0.0,0.0,0.0,0.0,0.0,0.0,0.0,0.0,0.0,0.0,0.0,0.0,0.0,0.0,0.0,0.0,0.0,0.0,0.0,0.0,0.0,0.0,0.0,0.0,0.0,0.0,0.0,0.0,0.0,0.0,0.0,0.0,0.0,0.0,0.0,0.0,0.0,0.0,0.0,0.0,0.0,0.0,0.0,0.0,-1.073,-1.1725,-1.1663,-1.1787,-1.2097,-1.16,-1.1038,-1.0434,-0.9951,-0.884,0.0,0.0,0.0,0.0,0.0,0.0,0.0,0.0,0.0,0.0,0.0,0.0,0.0,0.0,0.0,0.0,0.0,0.0,0.0,0.0,0.0,0.0,0.0,0.0,0.0,0.0,0.0,0.0,0.0,0.0,0.0,0.0,0.0,0.0,0.0,0.0,0.0,0.0,0.0,0.0,0.0,0.0,-0.7812,-0.7946,0.0,0.0,0.0,-0.7838,-0.7512,0.0,0.0,0.0,0.0,0.0,0.0,0.0,0.0,0.0,0.0,0.0,0.0,0.0,0.0,0.0,0.0,0.0,0.0,0.0,0.0,0.0,0.0,0.0,0.0,0.0,0.0,0.0,0.0,0.0,0.0,0.0,0.0,0.0,0.0,0.0,0.0,0.0,0.0,0.0,0.0,0.0,0.0,0.0,0.0,0.0,0.0,0.0,0.0,0.0,0.0,0.0,0.0,0.0,0.0,0.0,0.0,0.0,-1.1247,-1.0989,-1.1059,-1.149,-1.0919,-1.0415,-0.997,-0.9344,0.0,0.0,0.0,0.0,0.0,0.0,0.0,0.0,0.0,0.0,0.0,0.0,0.0,0.0,0.0,0.0,0.0,0.0,0.0,0.0,0.0,0.0,0.0,0.0,0.0,0.0,0.0,0.1547,0.0,0.0,0.0,0.0,0.0,0.0,0.0,0.0,0.0,0.0,0.0,0.0,0.0,0.0,-0.8128,-0.8189,-0.8246,-0.8267,0.0,0.0,-0.822,-0.8,-0.7972,-0.7971,0.0,0.0,0.0,0.0,0.0,0.0,0.0,0.0,0.0,0.0,0.0,0.0,0.0,0.0,0.0,0.0,0.0,0.0,0.0,0.0,0.0,0.0,0.0,0.0,0.0,0.0,0.0,0.0,0.0,0.0,0.0,0.0,0.0,0.0,0.0,0.0,0.0,0.0,0.0,0.0,0.0,0.0,0.0,0.0,0.0,0.0,0.0,0.0,0.0,0.0,0.0,0.0,0.0,0.0,-1.0301,-1.0364,-1.0681,-1.0744,-1.0688,-0.997,-0.9448,-0.9122,-0.8161,-0.7064,0.0,0.0,0.0,0.0,0.0,0.0,0.0,0.0,0.0,0.0,0.0,0.0,0.0,0.0,0.0,0.0,0.0,0.0,0.0,0.0,0.0,0.0,0.0,0.0,0.0,0.0,0.0,0.0,0.0,0.0,0.0,0.0,0.0,0.0,0.0,0.0,0.0,0.0,0.0,0.0,0.0,-0.8422,-0.8294,-0.8303,-0.8201,0.0,-0.8135,-0.8213,-0.7937,-0.8092,-0.833,-0.8434,0.0,0.0,0.0,0.0,0.0,0.0,0.0,0.0,0.0,0.0,0.0,0.0,0.0,0.0,0.0,0.0,0.0,0.0,0.0,0.0,0.0,0.0,0.0,0.0,0.0,0.0,0.0,0.0,0.0,0.0,0.0,0.0,0.0,0.0,0.0,0.0,0.0,0.0,0.0,0.0,0.0,0.0,0.0,0.0,0.0,0.0,0.0,0.0,0.0,0.0,0.0,0.0,0.0,-0.9983,-1.0428,-1.0174,-1.011,-1.0371,-0.9792,-0.9466,-0.9332,-0.8226,-0.7181,0.0,0.0,0.0,0.0,0.0,0.0,0.0,0.0,0.0,0.0,0.0,0.0,0.0,0.0,0.0,0.0,0.0,0.0,0.0,0.0,0.0,0.0,0.0,0.0,0.0,0.0,0.0,0.0,-0.2683,-0.3355,-0.3959,0.0,0.0,0.0,0.0,0.0,0.0,0.0,0.0,0.0,0.0,-0.8527,-0.8327,-0.8153,0.0,0.0,-0.8225,-0.8309,-0.8375,-0.8465,-0.8615,-0.8818,-0.8705,0.0,0.0,0.0,0.0,0.0,0.0,0.0,0.0,0.0,0.0,0.0,0.0,0.0,0.0,0.0,0.0,0.0,0.0,0.0,0.0,0.0,0.0,0.0,0.0,0.0,0.0,0.0,0.0,0.0,0.0,0.0,0.0,0.0,0.0,0.0,0.0,0.0,0.0,0.0,0.0,0.0,0.0,0.0,0.0,0.0,0.0,0.0,0.0,0.0,0.0,0.0,0.0,-0.9734,-1.0174,-0.9734,-0.967,-1.0053,-0.9478,-0.9087,-0.8823,-0.7837,-0.692,0.0,0.0,0.0,0.0,0.0,0.0,0.0,0.0,0.0,0.0,0.0,0.0,0.0,0.0,0.0,0.0,0.0,0.0,0.0,0.0,0.0,0.0,0.0,0.0,0.0,0.0,0.0,0.0,-0.3889,-0.4422,-0.4818,0.0,0.0,0.0,0.0,0.0,0.0,0.0,0.0,0.0,0.0,-0.8471,-0.8207,-0.8021,-0.7967,-0.8147,-0.8243,-0.8357,-0.8479,-0.8634,-0.8801,-0.904,0.0,0.0,0.0,0.0,0.0,0.0,0.0,0.0,0.0,0.0,0.0,0.0,0.0,0.0,0.0,0.0,0.0,0.0,0.0,0.0,0.0,0.0,0.0,0.0,0.0,0.0,0.0,0.0,0.0,0.0,-0.4625,0.0,0.0,0.0,0.0,0.0,0.0,0.0,0.0,0.0,0.0,0.0,0.0,0.0,0.0,0.0,0.0,0.0,0.0,0.0,0.0,0.0,0.0,-0.9484,-0.9548,-0.9484,-0.9484,-0.9484,-0.8882,-0.8161,-0.7517,-0.6793,-0.5943,-0.4894,0.0,0.0,0.0,0.0,0.0,0.0,0.0,0.0,0.0,0.0,0.0,0.0,0.0,0.0,0.0,0.0,0.0,0.0,0.0,0.0,0.0,0.0,0.0,0.0,0.0,0.0,-0.3553,-0.442,-0.5352,0.0,0.0,0.0,0.0,0.0,0.0,0.0,0.0,0.0,-0.8717,-0.8465,-0.8207,-0.7949,-0.7901,-0.7907,-0.7925,-0.8135,-0.8247,-0.8158,-0.8569,-0.8886,0.0,0.0,0.0,0.0,0.0,0.0,0.0,0.0,0.0,0.0,0.0,0.0,0.0,0.0,0.0,0.0,0.0,0.0,0.0,0.0,0.0,0.0,0.0,0.0,0.0,0.0,0.0,-0.5368,-0.503,0.0,0.0,0.0,0.0,0.0,0.0,0.0,0.0,0.0,0.0,0.0,-0.7471,-0.7641,0.0,0.0,0.0,0.0,0.0,0.0,0.0,0.0,0.0,0.0,0.0,0.0,-0.9478,-0.9344,-0.9017,-0.8818,-0.8818,-0.8166,-0.7647,-0.7386,-0.6728,-0.5675,-0.4159,0.0,0.0,0.0,0.0,0.0,0.0,0.0,0.0,0.0,0.0,0.0,0.0,0.0,0.0,0.0,0.0,0.0,0.0,0.0,0.0,0.0,0.0,0.0,0.0,0.0,-0.4359,0.0,0.0,0.0,0.0,0.0,0.0,0.0,0.0,0.0,0.0,0.0,-0.8605,-0.8453,-0.8345,-0.8195,-0.7937,-0.7901,-0.7961,0.0,0.0,0.0,0.0,0.0,0.0,0.0,0.0,0.0,0.0,0.0,0.0,0.0,0.0,-0.6412,-0.6482,-0.6478,-0.6671,-0.7265,0.0,0.0,0.0,0.0,0.0,0.0,0.0,0.0,0.0,0.0,0.0,0.0,0.0,0.0,-0.5594,0.0,-0.5342,0.0,0.0,0.0,0.0,0.0,0.0,0.0,0.0,-0.7009,-0.7309,-0.7439,-0.7483,-0.758,0.0,-0.759,-0.7593,0.0,0.0,0.0,0.0,0.0,0.0,0.0,0.0,-0.8964,-0.8823,-0.8361,-0.8096,-0.8102,-0.7447,-0.706,-0.7055,-0.6137,-0.4875,-0.3284,-0.2755,-0.222,0.0,0.0,0.0,0.0,0.0,0.0,0.0,0.0,0.0,0.0,0.0,0.0,0.0,0.0,0.0,0.0,0.0,0.0,0.0,0.0,0.0,0.0,0.0,-0.4754,0.0,0.0,0.0,0.0,0.0,0.0,0.0,0.0,0.0,-0.8578,-0.8473,-0.8368,-0.8315,-0.8213,-0.8093,-0.7925,0.0,0.0,0.0,0.0,0.0,0.0,0.0,-0.9105,-0.9005,-0.8894,-0.8571,-0.7982,-0.7129,-0.6412,-0.6017,0.0,0.0,-0.6478,-0.6276,-0.6342,-0.7391,-0.7456,-0.7517,-0.8117,-0.8312,-0.8247,0.0,0.0,0.0,0.0,0.0,0.0,0.0,0.0,-0.6516,-0.5946,0.0,-0.5813,0.0,0.0,0.0,0.0,0.0,-0.605,0.0,0.0,-0.7171,-0.7553,-0.7664,-0.7616,-0.7509,-0.7562,-0.7706,-0.7377,-0.6745,-0.7842,0.0,0.0,0.0,0.0,0.0,0.0,-0.7987,-0.7982,-0.7587,-0.7391,-0.7386,-0.6728,-0.6334,-0.6264,-0.4948,-0.3551,-0.2213,-0.2753,-0.2487,-0.1143,0.1008,0.0,0.0,0.0,0.0,0.0,0.0,0.0,0.0,0.0,0.0,0.0,0.0,0.0,0.0,0.0,0.0,0.0,0.0,0.0,0.0,-0.4498,0.0,0.0,0.0,0.0,0.0,0.0,0.0,0.0,0.0,0.0,-0.8555,-0.8375,-0.8279,-0.8273,0.0,0.0,0.0,0.0,-0.7931,-0.7943,-0.8153,-0.8303,-0.8257,-0.8563,-0.8873,-0.8982,0.0,0.0,-0.7837,-0.6863,-0.602,-0.5498,-0.5442,-0.5697,-0.6688,-0.6292,-0.628,-0.7321,-0.7251,-0.712,-0.7577,-0.7917,-0.7987,-1.0263,0.0,0.0,0.0,0.0,-0.8064,-0.7376,-0.6491,-0.6261,-0.6022,-0.5813,-0.5881,0.0,0.0,0.0,0.0,0.0,0.0,-0.6496,-0.6576,-0.6773,-0.6732,-0.6539,-0.6408,-0.6248,-0.6201,-0.6169,-0.6,-0.5822,-0.6601,-0.7251,-0.7657,0.0,0.0,0.0,0.0,-0.7652,-0.7396,-0.6929,-0.6662,-0.6662,-0.6013,-0.5418,-0.4882,-0.348,-0.2547,-0.208,-0.188,-0.1479,-0.1076,0.1479,0.0,0.0,0.0,0.0,0.0,0.0,0.0,0.0,0.0,0.0,0.0,0.0,0.0,0.0,0.0,0.0,0.0,0.0,0.0,-0.4632,-0.4851,-0.5133,0.0,0.0,0.0,0.0,0.0,0.0,0.0,0.0,0.0,-0.8142,-0.8109,-0.8015,0.0,0.0,-0.8183,-0.8177,-0.8339,-0.8453,-0.8453,-0.8675,0.0,-0.8708,-0.8555,-0.8356,-0.8296,-0.7582,-0.6863,-0.6474,-0.5951,-0.5526,-0.5358,-0.5456,-0.5689,-0.626,-0.6165,-0.609,-0.6478,-0.6994,-0.7517,-0.7862,-0.7992,-0.7992,-1.003,-0.9776,-0.9567,-0.9136,-0.8521,-0.7748,-0.706,-0.6445,-0.6126,-0.5946,-0.581,-0.5919,-0.5932,-0.5905,-0.6069,0.0,0.0,0.0,-0.6486,-0.6486,-0.6423,-0.6266,-0.6023,-0.5805,-0.5664,-0.5593,-0.5834,-0.5751,-0.5428,-0.6277,-0.6672,-0.6736,0.0,0.0,-0.7068,-0.6999,-0.6863,-0.6679,-0.5943,-0.554,-0.5543,-0.4885,-0.4151,-0.3416,-0.2278,-0.1542,-0.1276,-0.0806,-0.0403,-0.0201,0.1884,0.3032,0.0,0.0,0.0,0.0,0.0,0.0,0.0,0.0,0.0,0.0,0.0,-0.0806,-0.1356,0.0,0.0,0.0,-0.3569,-0.4543,-0.5027,-0.5067,0.0,0.0,0.0,0.0,0.0,0.0,0.0,-0.6639,-0.6684,-0.6887,-0.736,-0.7454,-0.7644,-0.8152,-0.8345,-0.8441,-0.8441,0.0,-0.8675,-0.8675,-0.8807,-0.8829,-0.85,-0.8195,-0.793,-0.7637,-0.6732,-0.6075,-0.5951,-0.567,-0.5342,-0.5283,-0.5378,-0.5471,-0.5627,-0.5716,-0.5928,-0.631,-0.6568,-0.6844,-0.7188,-0.7263,-0.7229,-0.9581,-0.9254,-0.8904,-0.8899,-0.8969,-0.7416,-0.6762,-0.6824,-0.6129,-0.5786,-0.5783,-0.5796,-0.5878,-0.6017,-0.6159,0.0,-0.6304,-0.6224,-0.6297,-0.6297,-0.6078,-0.6006,-0.5983,-0.5722,-0.5586,-0.5572,-0.6317,-0.6237,-0.5439,-0.6368,-0.6431,-0.5554,-0.6203,-0.647,-0.6284,-0.5954,-0.5756,-0.569,-0.4688,-0.422,-0.422,-0.3416,-0.2748,-0.2012,-0.134,-0.0604,0.0067,0.0336,0.0671,0.1139,0.2285,0.303,0.3163,0.0,0.0,0.0,0.0,0.0,0.0,0.0,0.0,0.0,0.0,0.0,0.0,0.0,0.0,0.0,-0.4245,0.0,-0.503,-0.5213,0.0,0.0,0.0,-0.5731,-0.6125,-0.6113,-0.6116,-0.6227,0.0,0.0,-0.6419,-0.6565,-0.7156,-0.8439,-0.8605,-0.8652,-0.8593,-0.8616,-0.8676,-0.8527,-0.8575,-0.8351,-0.7845,-0.7626,-0.7375,-0.6833,-0.6264,-0.5877,-0.5888,-0.5589,-0.5277,-0.5234,-0.5164,-0.5035,-0.4836,-0.5229,-0.576,-0.6416,-0.6003,-0.5671,-0.6104,-0.6194,-0.6169,-0.8848,-0.8727,-0.7633,-0.7289,-0.7362,-0.6948,-0.639,-0.5812,-0.5728,-0.564,-0.565,-0.5752,-0.5823,-0.5857,-0.5895,-0.5911,-0.5911,-0.5908,-0.5908,-0.5908,-0.5874,-0.58,-0.5694,-0.5584,-0.5562,-0.549,-0.5614,-0.5596,-0.5362,-0.5119,-0.4849,-0.4619,-0.4281,-0.4414,-0.5024,-0.496,-0.4553,-0.3816,-0.3616,-0.3485,-0.3416,-0.2277,-0.154,-0.134,-0.0134,0.0672,0.0806,0.1276,0.1341,0.1139,0.2418,0.3159,0.3228,0.3309,0.0,0.0,0.0,0.0,0.0,0.0,0.0,0.0,0.0,-0.1388,-0.1655,0.0,-0.2305,0.0,-0.3693,-0.4526,-0.5226,-0.5254,0.0,0.0,-0.5513,-0.551,-0.5694,-0.5524,-0.5479,-0.5754,-0.572,-0.5906,-0.6574,-0.6606,-0.688,-0.7594,-0.798,-0.8059,-0.7567,-0.809,-0.8318,-0.7731,-0.7663,-0.7575,-0.7159,-0.6794,-0.6282,-0.5606,-0.5418,-0.5286,-0.516,-0.5052,-0.491,-0.4864,-0.5026,-0.4993,-0.4802,-0.4938,-0.5099,-0.523,-0.5716,-0.6112,-0.5984,-0.5933,-0.5933,-0.8409,-0.7831,-0.7072,-0.6584,-0.6375,-0.6379,-0.6047,-0.5566,-0.565,-0.5684,-0.5694,-0.5837,-0.5867,-0.5806,-0.5871,-0.5864,-0.5803,-0.58,-0.58,-0.5796,-0.5735,-0.5664,-0.5589,-0.5549,-0.5467,-0.5362,-0.509,-0.4891,-0.4891,-0.4154,-0.3818,-0.3818,-0.3416,-0.3284,-0.3487,-0.382,-0.3685,-0.3218,-0.2613,-0.2144,-0.1743,-0.067,-0.0134,-0.0067,0.1007,0.1612,0.1612,0.2149,0.2281,0.208,0.2753,0.3226,0.323,0.3401,0.3427,0.0,0.0,0.0,0.0,0.0,0.0,0.0,0.0,0.0,0.0,0.0,-0.2246,-0.3136,-0.3893,-0.4588,-0.5352,-0.5356,-0.5369,-0.5582,-0.5522,-0.5431,-0.5492,-0.5353,-0.5269,-0.5478,-0.5481,-0.5559,-0.6056,-0.5998,-0.6032,-0.6326,-0.6767,-0.7144,-0.7158,-0.7505,-0.7577,-0.7116,-0.712,-0.699,-0.64,-0.5811,-0.5289,-0.4824,-0.4758,-0.4761,-0.4694,-0.4745,-0.4807,-0.4873,-0.4957,-0.4908,-0.4771,-0.4672,-0.4624,-0.4645,-0.5033,-0.5365,-0.5302,-0.5286,-0.5241,-0.8085,-0.6905,-0.6817,-0.6388,-0.583,-0.581,-0.58,-0.58,-0.5783,-0.5691,-0.561,-0.5593,-0.5577,-0.5467,-0.559,-0.5577,-0.5458,-0.5454,-0.5454,-0.5448,-0.5335,-0.528,-0.5274,-0.5155,-0.5093,-0.5093,-0.4489,-0.4154,-0.4154,-0.3416,-0.3082,-0.3082,-0.2948,-0.2547,-0.1878,-0.248,-0.2813,-0.2746,-0.154,-0.0537,0.0134,0.0806,0.121,0.1277,0.1947,0.2281,0.235,0.2889,0.3226,0.3226,0.3226,0.3226,0.323,0.3399,0.3499,0.0,0.3286,0.0,0.0,0.0,0.0,0.0,0.0,0.0,0.0,-0.151,-0.2235,-0.3555,-0.419,-0.4756,-0.525,-0.5424,-0.549,-0.5555,-0.5443,-0.5428,-0.5428,-0.5428,-0.5428,-0.5428,-0.5428,-0.5428,-0.5428,-0.5223,-0.5153,-0.5286,-0.5543,-0.6052,-0.6719,-0.6789,-0.6724,-0.6662,-0.6597,-0.6207,-0.5617,-0.5024,-0.4561,-0.4367,-0.4367,-0.4364,-0.4561,-0.4648,-0.4792,-0.4927,-0.4783,-0.4726,-0.4729,-0.4507,-0.4311,-0.4314,-0.4372,-0.4434,-0.4512,-0.4569,-0.4409,-0.7241,-0.6988,-0.6281,-0.6016,-0.5976,-0.5854,-0.58,-0.5793,-0.5681,-0.5208,-0.456,-0.3968,-0.3694,-0.3675,-0.3694,-0.3762,-0.3675,-0.3673,-0.3675,-0.3673,-0.3655,-0.3645,-0.3645,-0.3627,-0.3618,-0.3618,-0.3485,-0.3416,-0.3418,-0.2681,-0.2281,-0.228,-0.1745,-0.1141,-0.047,0.0,0.0,0.0,0.0067,0.0605,0.0873,0.1479,0.1816,0.2013,0.2686,0.0,0.3025,0.3159,0.3226,0.3226,0.3226,0.0,0.0,0.0,0.0,0.0,0.0,0.0,0.0,0.0,0.0,0.0,-0.0152,-0.1294,-0.1439,-0.1931,-0.2466,-0.297,-0.3237,-0.3693,-0.4433,-0.4537,-0.4794,-0.5333,-0.5379,-0.5428,-0.5428,-0.5428,-0.5428,-0.5428,-0.5428,-0.5428,-0.5362,-0.5359,-0.5359,-0.5292,-0.516,-0.5093,-0.5289,-0.5745,-0.5804,-0.5216,-0.5024,-0.4894,-0.496,-0.4761,-0.4561,-0.4561,-0.4561,-0.4498,-0.4367,-0.4381,-0.4403,-0.447,-0.44,-0.4406,-0.4403,-0.4317,-0.4303,-0.4303,-0.4303,-0.4303,-0.4303,-0.4317,-0.4325,-0.6777,0.0,-0.5974,-0.5627,0.0,-0.5249,-0.5078,-0.4787,-0.5012,-0.4734,-0.398,-0.363,-0.3397,-0.3285,-0.3285,-0.3258,-0.3218,-0.3218,-0.3218,-0.3218,-0.3218,-0.3218,-0.3218,-0.3218,-0.3218,-0.3218,-0.2815,-0.2681,-0.2614,-0.1609,-0.1074,-0.1074,-0.0336,0.0202,0.0538,0.094,0.0806,0.0202,0.1074,0.141,0.1276,0.2083,0.2621,0.2686,0.3025,0.0,0.0,0.0,0.0,0.0,0.0,0.0,0.0,0.3399,0.0,0.3503,0.3512,0.3528,0.3528,0.2871,0.2605,0.2726,0.0665,-0.0802,-0.124,-0.1565,-0.1949,-0.2402,-0.2536,-0.3063,-0.4159,-0.4284,-0.4622,-0.5296,-0.5428,-0.5292,-0.4957,-0.516,-0.5226,-0.4957,-0.516,-0.5428,-0.5428,-0.496,-0.49,-0.5103,-0.45,-0.4164,-0.4503,-0.4894,-0.4888,-0.4495,-0.437,-0.4372,-0.4506,-0.4506,-0.4434,-0.4436,-0.4436,-0.4439,-0.4308,-0.4308,-0.4306,-0.4303,-0.4303,-0.4306,-0.4303,-0.4303,-0.4306,-0.4239,-0.3696,-0.3224,-0.3293,-0.3766,-0.4308,-0.6437,-0.58,-0.5626,-0.5259,-0.4679,-0.4512,-0.408,-0.3442,0.0,0.0,0.0,-0.3299,-0.3187,-0.2982,-0.2982,-0.2946,-0.2817,-0.2817,-0.2815,-0.2815,-0.2815,-0.2815,-0.2815,-0.2679,-0.2613,-0.2613,-0.1877,-0.1542,-0.1476,-0.0336,0.0202,0.0269,0.0806,0.1143,0.1344,0.2014,0.1879,0.1008,0.1812,0.2147,0.1744,0.2686,0.3159,0.3226,0.3226,0.3226,0.3226,0.3226,0.3226,0.3226,0.3226,0.3226,0.3232,0.3401,0.3499,0.3507,0.351,0.3599,0.374,0.2674,0.2409,0.3289,0.1501,-0.0,-0.0834,-0.1022,-0.1344,-0.188,-0.1946,-0.248,-0.3751,-0.3885,-0.422,-0.4957,-0.5024,-0.4755,-0.422,-0.4622,-0.4758,-0.442,-0.4758,-0.5229,-0.5369,-0.4767,-0.4303,-0.4439,-0.3763,-0.3228,-0.3835,-0.4169,-0.4233,-0.3894,-0.3744,-0.387,-0.3872,-0.3843,-0.3916,-0.3825,-0.3835,-0.3914,-0.3914,-0.3914,-0.3911,-0.3755,-0.4043,-0.4169,-0.3969,-0.3825,-0.3997,-0.4239,-0.3349,-0.2406,-0.2287,-0.3032,-0.3842,-0.5868,-0.5721,-0.4959,-0.4633,-0.4485,-0.3766,-0.2984,-0.2381,-0.2575,-0.2567,-0.2307,-0.1698,-0.1492,-0.142,-0.1419,-0.1416,-0.1411,-0.1411,-0.1411,-0.1412,-0.1411,-0.1411,-0.1344,-0.0739,-0.047,-0.0403,0.0269,0.0671,0.0672,0.0806,0.0941,0.0941,0.1076,0.1411,0.2014,0.2686,0.2956,0.2822,0.2822,0.2889,0.2956,0.3023,0.3092,0.3226,0.3228,0.3226,0.3226,0.3228,0.3226,0.3226,0.3226,0.3226,0.3232,0.3399,0.3499,0.3509,0.3665,0.373,0.3804,0.3481,0.3115,0.2556,0.213,0.135,-0.0,-0.0741,-0.1143,-0.1276,-0.1276,-0.1544,-0.228,-0.248,-0.2815,-0.3485,-0.3549,-0.3485,-0.3351,-0.3485,-0.3685,-0.3889,-0.4028,-0.45,-0.5116,-0.5119,-0.4576,-0.3758,-0.3215,-0.275,-0.2748,-0.3498,-0.3701,-0.2743,-0.243,-0.2399,-0.2389,-0.2403,-0.2448,-0.2427,-0.2438,-0.2447,-0.2447,-0.2386,-0.2386,-0.2433,-0.3266,-0.3576,-0.2812,-0.2427,-0.2806,-0.3636,-0.3626,-0.3209,-0.2134,-0.2146,-0.2284,-0.4795,-0.4373,-0.3981,-0.3551,-0.3139,-0.236,-0.1879,-0.1546,-0.1634,-0.1631,-0.1546,-0.121,-0.1076,-0.1076,-0.0672,-0.0538,-0.047,-0.0067,0.0134,0.0134,0.0067,0.0067,0.0134,0.0403,0.0605,0.0605,0.0941,0.1076,0.1143,0.1478,0.1678,0.1746,0.2016,0.2418,0.2753,0.3025,0.336,0.3627,0.3291,0.3159,0.3226,0.3426,0.356,0.3627,0.3889,0.4087,0.409,0.409,0.3818,0.3209,0.3751,0.409,0.4092,0.425,0.4369,0.4434,0.4215,0.3973,0.3699,0.3536,0.3212,0.2816,0.2435,0.1945,0.1275,0.0537,-0.0067,-0.047,-0.047,-0.0941,-0.1945,-0.208,-0.2414,-0.3151,-0.3218,-0.3017,-0.2748,-0.3015,-0.3149,-0.3017,-0.3286,-0.3825,-0.4506,-0.4169,-0.4172,-0.41,-0.3531,-0.2571,-0.2037,-0.0841,-0.0967,-0.2613,-0.2053,-0.1071,-0.0942,-0.0995,-0.0986,-0.0985,-0.0985,-0.0985,-0.0985,-0.0923,-0.0984,-0.0984,-0.1599,-0.2342,-0.277,-0.1909,-0.1562,-0.1645,-0.1975,-0.1589,-0.1027,-0.0,0.0455,-0.3887,-0.3218,-0.3015,-0.2547,-0.1813,-0.1344,-0.1008,-0.0873,-0.0874,-0.0739,-0.0672,-0.0941,-0.1008,-0.0806,-0.0269,0.0067,0.0336,0.0806,0.1076,0.1076,0.1076,0.1076,0.1143,0.1277,0.1344,0.1411,0.1479,0.1612,0.1679,0.2149,0.2417,0.2484,0.309,0.336,0.336,0.3491,0.3758,0.4159,0.3758,0.356,0.3558,0.3959,0.4159,0.4225,0.4553,0.4812,0.4812,0.4812,0.4408,0.3666,0.4339,0.4882,0.516,0.5018,0.5069,0.5104,0.4795,0.4336,0.3802,0.3589,0.3468,0.3264,0.2764,0.2417,0.2417,0.188,0.121,0.0403,0.0269,-0.0269,-0.1275,-0.1409,-0.1676,-0.2345,-0.2275,-0.1808,-0.1474,-0.1808,-0.2009,-0.1608,-0.2008,-0.2477,-0.2883,-0.2213,-0.1939,-0.292,-0.2551,-0.1612,-0.0958,0.1493,0.1111,-0.0685,-0.0805,0.0245,0.0427,0.0424,0.0422,0.0423,0.0362,0.036,0.0421,0.0422,0.0422,0.036,0.0421,-0.036,-0.217,-0.1205,0.0181,0.0242,0.0182,0.0306,0.0433,0.1612,0.2629,-0.3885,-0.3149,-0.248,-0.1812,-0.121,-0.1076,-0.0672,-0.0134,-0.0067,0.0269,0.0672,-0.047,-0.0672,-0.0134,-0.0,0.0403,0.0941,0.1076,0.1143,0.1143,0.1076,0.1076,0.121,0.1812,0.208,0.2147,0.2686,0.2889,0.2891,0.3025,0.3092,0.3159,0.3625,0.3961,0.3961,0.4422,0.4683,0.4749,0.4683,0.4683,0.4683,0.4683,0.4752,0.4746,0.4749,0.4812,0.4882,0.4812,0.4746,0.4677,0.4746,0.5289,0.5992,0.5433,0.5026,0.5047,0.5027,0.4806,0.4292,0.4401,0.4114,0.3485,0.3269,0.3092,0.3092,0.3025,0.242,0.1411,0.1008,0.0605,-0.0,0.0336,0.0336,-0.0336,0.0201,0.0938,0.0804,0.1072,0.1005,0.0469,0.0201,-0.0067,-0.0872,0.0335,0.1326,0.0714,0.0772,0.1078,0.124,0.1808,0.272,0.2375,0.2305,0.1712,0.1649,0.1611,0.1658,0.1649,0.1699,0.1765,0.1827,0.1709,0.1639,0.1953,0.1765,0.1482,0.1364,0.1581,0.1645,0.1894,0.1864,0.1725,0.1647,0.2144,0.2463,-0.2614,-0.1945,-0.1611,-0.1075,-0.047,-0.0,0.0336,0.0672,0.0672,0.0806,0.1008,0.047,0.0336,0.0672,0.1074,0.1477,0.1745,0.2149,0.2353,0.2353,0.2351,0.2351,0.2353,0.2619,0.282,0.282,0.3092,0.3226,0.3228,0.3496,0.3825,0.4156,0.4353,0.4486,0.4486,0.4683,0.4948,0.5282,0.5282,0.5415,0.5683,0.5415,0.5282,0.5282,0.5547,0.5749,0.5749,0.5749,0.5749,0.5749,0.5745,0.5954,0.6366,0.6022,0.5894,0.5986,0.5703,0.5316,0.4751,0.4703,0.4563,0.4225,0.3852,0.3694,0.3823,0.3424,0.3023,0.2753,0.2216,0.1611,0.1073,0.1208,0.1275,0.1006,0.1274,0.1475,0.1475,0.1542,0.1475,0.1273,0.1206,0.1273,0.1275,0.2418,0.3189,0.3105,0.2987,0.2855,0.2893,0.3205,0.3716,0.4109,0.3987,0.3589,0.3083,0.2836,0.2863,0.2972,0.3474,0.3863,0.3694,0.3183,0.307,0.368,0.3694,0.3697,0.3805,0.3849,0.3852,0.3766,0.3866,0.3883,0.388,0.4068,0.448,-0.114,-0.0538,-0.047,-0.0202,0.0336,0.0873,0.121,0.1412,0.1411,0.1478,0.168,0.168,0.168,0.1746,0.2082,0.2281,0.2551,0.2956,0.3226,0.3226,0.3226,0.3228,0.3426,0.3426,0.3491,0.3625,0.3692,0.3625,0.3692,0.4025,0.442,0.4749,0.4948,0.5014,0.5014,0.515,0.5415,0.5749,0.5818,0.6017,0.6284,0.6017,0.5815,0.5885,0.6218,0.642,0.642,0.642,0.642,0.642,0.642,0.642,0.642,0.642,0.6477,0.6607,0.6386,0.5989,0.5365,0.54,0.5269,0.5135,0.4645,0.442,0.442,0.4087,0.3956,0.4154,0.3751,0.3147,0.2012,0.2079,0.2146,0.1945,0.2079,0.228,0.228,0.228,0.2414,0.2347,0.248,0.2547,0.3213,0.4196,0.4857,0.452,0.4273,0.4094,0.4094,0.4485,0.4857,0.4908,0.5124,0.4904,0.4196,0.4089,0.4089,0.4203,0.4757,0.5093,0.5325,0.4467,0.4122,0.4567,0.5175,0.5342,0.5016,0.523,0.5434,0.5498,0.5438,0.5434,0.5235,0.5697,0.5814,0.0335,0.0941,0.1008,0.1008,0.1076,0.1143,0.1545,0.2149,0.2147,0.2484,0.2958,0.3025,0.3092,0.3023,0.2551,0.2551,0.3092,0.3226,0.3226,0.3226,0.3293,0.3493,0.3961,0.3961,0.4223,0.455,0.455,0.4616,0.4683,0.4749,0.4746,0.4882,0.5348,0.5547,0.5617,0.6017,0.6284,0.6346,0.6416,0.6416,0.642,0.642,0.6416,0.6482,0.6354,0.642,0.6494,0.6424,0.642,0.6424,0.6486,0.6486,0.642,0.6486,0.6428,0.6519,0.6857,0.6873,0.639,0.6567,0.6555,0.6003,0.5547,0.5276,0.5276,0.5143,0.5147,0.5484,0.5547,0.4878,0.3282,0.3418,0.3485,0.3017,0.3489,0.3823,0.3892,0.4023,0.4167,0.4161,0.4092,0.4356,0.5008,0.5952,0.5998,0.575,0.5506,0.5285,0.5091,0.5183,0.5281,0.5336,0.5386,0.5277,0.5226,0.4956,0.5007,0.512,0.5069,0.5399,0.534,0.5226,0.5281,0.5376,0.5647,0.5783,0.5723,0.5852,0.6053,0.6138,0.6125,0.6125,0.6245,0.6045,0.6215,0.047,0.1143,0.1611,0.1812,0.1813,0.2284,0.2621,0.2822,0.2822,0.2956,0.3159,0.3226,0.3426,0.3694,0.3489,0.3291,0.3226,0.356,0.3694,0.3761,0.409,0.4287,0.4486,0.4486,0.4619,0.4749,0.4815,0.5017,0.5282,0.5282,0.5481,0.5815,0.6017,0.6083,0.6152,0.6284,0.6613,0.7068,0.7068,0.7326,0.7652,0.7777,0.7782,0.7712,0.6846,0.6902,0.7974,0.7574,0.7016,0.6463,0.7245,0.7727,0.769,0.7344,0.7204,0.7339,0.714,0.7043,0.7105,0.7167,0.7167,0.6959,0.6511,0.6203,0.6199,0.5935,0.5804,0.6071,0.6075,0.5606,0.5404,0.5342,0.5342,0.5206,0.5342,0.5477,0.5543,0.5609,0.5613,0.5609,0.5613,0.5745,0.5913,0.6125,0.6145,0.5896,0.5659,0.5494,0.5448,0.5609,0.59,0.5941,0.6209,0.6426,0.6426,0.5714,0.5332,0.5441,0.5555,0.5828,0.5882,0.5991,0.6041,0.6532,0.6606,0.6678,0.6871,0.7156,0.721,0.7195,0.719,0.7225,0.7136,0.722,0.7195,0.1344,0.1814,0.235,0.2551,0.2551,0.3023,0.3293,0.3429,0.3426,0.356,0.3692,0.3692,0.3889,0.4087,0.4225,0.4159,0.3959,0.4159,0.4225,0.4292,0.4619,0.4882,0.5014,0.508,0.515,0.5282,0.5348,0.555,0.5815,0.5881,0.6083,0.6354,0.6613,0.6745,0.6745,0.6937,0.7326,0.7717,0.7847,0.8037,0.849,0.849,0.8613,0.8678,0.7802,0.7736,0.8716,0.8641,0.8113,0.7395,0.8062,0.8581,0.8479,0.8057,0.7912,0.8172,0.7917,0.7782,0.8102,0.8102,0.8107,0.8042,0.7521,0.7195,0.719,0.6859,0.6728,0.6863,0.6929,0.6929,0.706,0.706,0.6924,0.6527,0.6396,0.6396,0.6396,0.6396,0.6396,0.64,0.6531,0.6728,0.6772,0.6749,0.6724,0.6632,0.6397,0.6213,0.6219,0.6412,0.6799,0.6966,0.7338,0.7633,0.7767,0.7386,0.6478,0.6385,0.648,0.6628,0.6747,0.6792,0.7033,0.7555,0.7851,0.7949,0.8153,0.8397,0.8491,0.8419,0.856,0.8578,0.8577,0.8543,0.8421,0.3159,0.3159,0.3226,0.3226,0.3291,0.3357,0.356,0.3961,0.4028,0.4223,0.455,0.4683,0.4547,0.4475,0.4683,0.502,0.5226,0.502,0.4815,0.4818,0.4882,0.5216,0.555,0.5617,0.5815,0.6218,0.6354,0.635,0.6416,0.6482,0.6482,0.6613,0.7199,0.7456,0.7521,0.7977,0.8425,0.8484,0.849,0.8549,0.8554,0.8683,0.8941,0.9454,0.9244,0.8994,0.8646,0.97,0.977,0.8799,0.8912,0.8793,0.8755,0.8587,0.8565,0.8742,0.9005,0.9268,0.9396,0.9332,0.9204,0.9075,0.8501,0.8112,0.8107,0.8042,0.8042,0.8107,0.8306,0.8447,0.8441,0.8441,0.7982,0.6728,0.6662,0.6662,0.6593,0.6461,0.647,0.6683,0.7157,0.747,0.7627,0.783,0.8058,0.8118,0.7914,0.7683,0.7624,0.773,0.8041,0.8329,0.8427,0.8477,0.892,0.9163,0.8271,0.7588,0.762,0.7712,0.7819,0.7891,0.8081,0.851,0.8776,0.8896,0.9088,0.9333,0.9438,0.945,0.9718,0.97,0.9525,0.9351,0.9543,0.3426,0.3761,0.3761,0.3959,0.4287,0.4287,0.442,0.455,0.455,0.4616,0.4749,0.4812,0.4945,0.5147,0.5348,0.5617,0.6086,0.5951,0.5683,0.5481,0.5749,0.5951,0.6086,0.6152,0.6218,0.6354,0.642,0.6679,0.7068,0.7129,0.7326,0.7842,0.8037,0.8166,0.8231,0.842,0.8683,0.9128,0.9192,0.9454,0.9913,0.9913,1.004,1.0231,1.0161,1.0098,0.9996,1.0542,1.0966,1.0975,1.0792,1.0472,1.0186,0.9855,0.9634,0.9524,0.9448,0.9722,1.0117,0.9913,0.9779,0.9767,0.9518,0.939,0.9384,0.932,0.9326,0.932,0.9454,0.9518,0.9518,0.9518,0.9017,0.7982,0.7852,0.7852,0.7867,0.7862,0.7926,0.8112,0.8343,0.8679,0.9058,0.9254,0.9099,0.9361,0.9108,0.8782,0.8816,0.8794,0.8851,0.9026,0.9084,0.9388,0.9858,1.0193,0.9717,0.9123,0.8983,0.8818,0.8843,0.9161,0.9389,0.9621,0.9854,1.003,1.0184,1.0268,1.0458,1.0268,1.0223,1.0166,1.0009,1.0212,1.0584,0.4023,0.4292,0.4292,0.4486,0.4815,0.4812,0.4948,0.508,0.508,0.5216,0.5348,0.5415,0.5547,0.5885,0.5885,0.628,0.6881,0.6876,0.6736,0.6601,0.6346,0.642,0.6486,0.6679,0.6937,0.7129,0.7195,0.7451,0.7902,0.7907,0.8102,0.8484,0.8748,0.8877,0.8941,0.9134,0.9524,0.9843,0.9907,1.0098,1.0491,1.0618,1.0618,1.0555,1.0555,1.0608,1.0786,1.1068,1.1417,1.1907,1.1929,1.1813,1.139,1.1069,1.0856,1.0784,1.066,1.0712,1.1012,1.0722,1.0379,1.0314,1.0148,1.0021,1.0021,1.0021,1.0021,1.0021,0.9958,1.0021,1.0028,1.0136,0.9851,0.9349,0.9133,0.9133,0.9196,0.9377,0.9481,0.9632,0.9667,0.9953,1.0158,1.0111,0.9876,1.0181,0.9861,0.9573,0.9567,0.9525,0.9734,1.0026,1.0347,1.0668,1.0967,1.1027,1.1027,1.0697,1.0437,1.0101,0.9903,1.0524,1.0918,1.1295,1.1503,1.1783,1.1888,1.1757,1.1757,1.1322,1.1073,1.1516,1.1764,1.1703,1.1888,0.4815,0.4815,0.4882,0.4882,0.4948,0.5014,0.5216,0.5613,0.5617,0.5885,0.6284,0.6218,0.6284,0.635,0.6416,0.6942,0.7601,0.7657,0.7782,0.7842,0.7326,0.6741,0.6872,0.733,0.7782,0.8291,0.8361,0.8549,0.8742,0.8678,0.8678,0.9064,0.9454,0.9582,0.9709,1.0295,1.0491,1.0491,1.0561,1.0561,1.0618,1.0618,1.0618,1.0618,1.0688,1.0846,1.107,1.1283,1.1444,1.1634,1.234,1.2423,1.21,1.1969,1.1938,1.1988,1.2229,1.1947,1.1855,1.1453,1.1111,1.0828,1.0471,1.0078,1.0212,1.0338,1.0281,1.0275,1.0275,1.0231,1.0296,1.0523,1.06,1.0567,1.0236,1.0139,1.0447,1.0683,1.0722,1.0861,1.0955,1.105,1.1095,1.0918,1.0876,1.0863,1.0708,1.0696,1.0532,1.0801,1.0899,1.125,1.1699,1.1919,1.2134,1.2194,1.2186,1.2063,1.1878,1.1736,1.1314,1.1832,1.2143,1.2538,1.2966,1.3279,1.3252,1.2879,1.2818,1.2634,1.2826,1.339,1.3321,1.2879,1.281,0.5014,0.5348,0.5348,0.5617,0.5951,0.5951,0.6017,0.6152,0.6152,0.6284,0.642,0.642,0.6486,0.6486,0.7003,0.733,0.7722,0.8042,0.8296,0.842,0.8231,0.8032,0.8027,0.8166,0.8425,0.8678,0.8801,0.8935,0.9448,0.9512,0.9831,1.0478,1.0351,1.0478,1.0674,1.0737,1.0744,1.0744,1.0744,1.0744,1.0681,1.0681,1.0618,1.0618,1.117,1.1519,1.1558,1.1472,1.1731,1.2226,1.2444,1.2403,1.214,1.1988,1.2021,1.2071,1.1954,1.1816,1.1736,1.1587,1.1466,1.1394,1.1178,1.117,1.117,1.117,1.117,1.117,1.1178,1.1199,1.1389,1.153,1.1737,1.1801,1.1424,1.0994,1.1005,1.0953,1.1076,1.1211,1.1397,1.1759,1.2175,1.2382,1.2502,1.2609,1.2634,1.2625,1.2212,1.2197,1.232,1.2696,1.3011,1.3158,1.3287,1.3347,1.3339,1.3296,1.3348,1.3525,1.3194,1.3135,1.3186,1.3339,1.3815,1.4177,1.3795,1.3381,1.3511,1.4034,1.3914,1.4085,1.3734,1.3373,1.3485,0.5617,0.5951,0.5951,0.6083,0.642,0.642,0.642,0.642,0.642,0.6613,0.6811,0.6876,0.7003,0.7326,0.7717,0.8102,0.8361,0.8748,0.9134,0.9518,0.9454,0.9384,0.9192,0.9069,0.9256,0.9576,0.9576,0.9831,1.0155,1.0288,1.0548,1.0807,1.087,1.0863,1.0933,1.1233,1.1288,1.1351,1.1476,1.1608,1.1545,1.1413,1.1476,1.1538,1.2035,1.2313,1.2422,1.2542,1.293,1.3374,1.3412,1.324,1.308,1.3006,1.2806,1.2644,1.2477,1.2247,1.1843,1.1758,1.1692,1.1659,1.1622,1.1622,1.156,1.1622,1.1622,1.156,1.1622,1.1655,1.1887,1.2325,1.2907,1.3233,1.31,1.2749,1.2365,1.2819,1.302,1.3182,1.3256,1.33,1.3867,1.4011,1.4026,1.3933,1.3808,1.3647,1.3414,1.3606,1.3743,1.3974,1.4145,1.4264,1.461,1.4787,1.4895,1.4836,1.4777,1.5031,1.4855,1.456,1.4709,1.4808,1.4944,1.4953,1.4787,1.4787,1.5303,1.5535,1.507,1.4953,1.4885,1.4433,1.4501,0.6548,0.6552,0.6482,0.6482,0.6613,0.6548,0.6679,0.6679,0.6741,0.7068,0.7521,0.7587,0.7847,0.849,0.849,0.8941,0.9454,0.9524,1.0034,1.0421,1.0548,1.0415,1.0028,0.9901,1.0161,1.0604,1.08,1.0737,1.0737,1.0681,1.08,1.1115,1.1115,1.1115,1.1483,1.1841,1.2074,1.2197,1.2458,1.2581,1.252,1.2458,1.2397,1.2581,1.2887,1.3305,1.3735,1.4072,1.4509,1.4883,1.4748,1.4422,1.4393,1.4351,1.4063,1.3558,1.3355,1.3113,1.2409,1.2304,1.2187,1.2002,1.1926,1.1802,1.1926,1.205,1.1988,1.205,1.1802,1.2064,1.2355,1.316,1.399,1.455,1.5246,1.5261,1.4833,1.5183,1.5666,1.5666,1.5587,1.5666,1.566,1.5523,1.5255,1.5005,1.4994,1.5111,1.4865,1.4831,1.4951,1.508,1.5196,1.5323,1.5776,1.6234,1.6451,1.6507,1.6394,1.6461,1.6348,1.6234,1.6518,1.6574,1.6167,1.6224,1.6461,1.6743,1.6912,1.6765,1.6197,1.6574,1.689,1.611,1.5881,0.7265,0.726,0.6946,0.7138,0.7596,0.7396,0.7591,0.7982,0.8047,0.8143,0.8306,0.8312,0.8506,0.8753,0.9239,0.9448,0.9887,1.0219,1.0555,1.0744,1.0807,1.0926,1.087,1.0758,1.0814,1.1115,1.1052,1.1059,1.1059,1.124,1.1421,1.1903,1.1965,1.2274,1.2765,1.2826,1.294,1.294,1.3009,1.307,1.307,1.2948,1.2948,1.313,1.3606,1.4472,1.5191,1.5256,1.5411,1.5617,1.5396,1.4859,1.4331,1.4018,1.3783,1.3701,1.3798,1.3702,1.3327,1.3293,1.3468,1.3022,1.2903,1.3086,1.3086,1.3025,1.3025,1.3086,1.3094,1.3178,1.3671,1.4372,1.495,1.5452,1.6158,1.6549,1.6278,1.5965,1.5877,1.5807,1.5807,1.5737,1.5807,1.6522,1.6351,1.6015,1.6222,1.6572,1.6427,1.6163,1.6178,1.6206,1.613,1.6244,1.6687,1.7191,1.7567,1.7841,1.7841,1.7907,1.7786,1.7578,1.7731,1.7468,1.709,1.7268,1.76,1.7435,1.7368,1.729,1.7312,1.7479,1.7501,1.718,1.7146,0.7657,0.7782,0.7531,0.7787,0.8252,0.8209,0.8322,0.8673,0.8847,0.9086,0.9359,0.9487,0.9753,1.0151,1.0488,1.0765,1.089,1.1224,1.1435,1.1507,1.1558,1.1725,1.1963,1.187,1.1777,1.1839,1.1725,1.1725,1.1973,1.2035,1.2274,1.2573,1.2687,1.2826,1.3442,1.3614,1.3803,1.3855,1.3983,1.4043,1.3983,1.3923,1.3923,1.4043,1.4519,1.5124,1.5594,1.5515,1.5515,1.5652,1.5518,1.5233,1.4799,1.4469,1.43,1.4036,1.4152,1.4031,1.3744,1.3665,1.3655,1.3597,1.3511,1.3511,1.3511,1.3511,1.3511,1.3511,1.351,1.381,1.4521,1.5147,1.5618,1.6243,1.6932,1.7364,1.7364,1.7019,1.6811,1.6872,1.7198,1.7326,1.7531,1.7736,1.7925,1.7825,1.7823,1.8112,1.768,1.7488,1.7348,1.7277,1.7097,1.7213,1.7589,1.807,1.8596,1.8915,1.9125,1.9282,1.9334,1.902,1.8756,1.8447,1.8081,1.8104,1.8267,1.805,1.8038,1.817,1.8224,1.8112,1.7981,1.7895,1.7972,0.8062,0.8538,0.8317,0.849,0.8975,0.9058,0.922,0.9399,0.9576,1.0105,1.0648,1.093,1.1255,1.1676,1.1988,1.2158,1.2219,1.234,1.2468,1.2736,1.2728,1.2929,1.3163,1.3092,1.3068,1.2803,1.256,1.265,1.2826,1.307,1.3009,1.3183,1.3304,1.3614,1.3734,1.4213,1.4579,1.4647,1.4843,1.502,1.502,1.4961,1.497,1.5069,1.5186,1.5303,1.5478,1.54,1.5439,1.542,1.542,1.542,1.542,1.5352,1.5235,1.4656,1.4768,1.4598,1.4225,1.4072,1.4056,1.3838,1.3803,1.3863,1.3863,1.4094,1.4213,1.4204,1.4318,1.4596,1.5005,1.5927,1.6523,1.7025,1.7774,1.824,1.82,1.8277,1.8259,1.8124,1.824,1.8355,1.889,1.9278,1.949,1.9646,1.9588,1.9503,1.9121,1.8899,1.8792,1.8804,1.8742,1.8607,1.891,1.904,1.9565,1.9822,2.0182,2.0335,2.0461,2.0029,1.9606,1.9423,1.9226,1.9186,1.9174,1.9214,1.9214,1.9251,1.9226,1.9218,1.9008,1.8727,1.8738,0.945,1.0083,0.9479,0.9582,1.0142,1.0064,1.0394,1.0963,1.1064,1.1286,1.1792,1.2316,1.2419,1.2487,1.2774,1.2975,1.3194,1.3284,1.3581,1.3981,1.404,1.4222,1.436,1.4317,1.4517,1.4655,1.4037,1.3353,1.3319,1.3191,1.3813,1.4019,1.4225,1.4543,1.4881,1.5177,1.5215,1.5128,1.5205,1.5254,1.5303,1.5254,1.5205,1.5362,1.541,1.541,1.542,1.542,1.542,1.542,1.542,1.542,1.5536,1.5536,1.541,1.5283,1.5486,1.5427,1.5067,1.5396,1.5396,1.5223,1.505,1.5108,1.5157,1.5449,1.5545,1.5776,1.6093,1.6519,1.6618,1.7359,1.7729,1.8039,1.8664,1.9445,1.9243,1.9284,1.9365,1.911,1.9177,1.9299,1.9824,2.0279,2.0467,2.0603,2.0641,2.0723,2.0565,2.0476,2.0478,2.0482,2.0489,2.0366,2.0284,2.0322,2.0564,2.0681,2.091,2.1025,2.1009,2.0662,2.0422,2.072,2.0438,2.0093,2.0144,2.0156,2.0118,1.9978,2.0093,2.032,1.9838,1.9362,1.9319,1.0046,1.0606,1.0213,1.0443,1.1074,1.1155,1.1438,1.2025,1.2514,1.2861,1.3212,1.3839,1.4178,1.4109,1.4316,1.4514,1.4498,1.4583,1.478,1.5121,1.5121,1.5262,1.5473,1.5429,1.5761,1.5899,1.5392,1.4951,1.5031,1.5058,1.5109,1.542,1.5595,1.5683,1.5741,1.5712,1.5684,1.5518,1.5391,1.5391,1.543,1.5381,1.5381,1.543,1.543,1.542,1.542,1.542,1.542,1.5478,1.5768,1.6097,1.6311,1.628,1.6046,1.5712,1.5909,1.6115,1.6019,1.6366,1.6545,1.642,1.6312,1.6301,1.6358,1.6585,1.6797,1.6888,1.6965,1.7405,1.7796,1.8436,1.8649,1.8997,1.9705,1.9986,1.9867,2.004,2.0095,2.0139,2.0333,2.0462,2.0549,2.0933,2.1302,2.151,2.1653,2.1801,2.1885,2.1876,2.1882,2.1898,2.1892,2.1719,2.1612,2.1672,2.1669,2.1773,2.1851,2.1965,2.2133,2.2028,2.2251,2.2596,2.2069,2.1109,2.0649,2.0511,2.0599,2.0738,2.0751,2.0701,2.0357,2.0067,2.0131,1.0511,1.1023,1.0896,1.1219,1.1818,1.219,1.2539,1.2953,1.3803,1.4212,1.4466,1.5217,1.5562,1.5587,1.5579,1.572,1.5886,1.5922,1.6027,1.6227,1.6227,1.636,1.6468,1.6617,1.6788,1.7268,1.715,1.7012,1.6505,1.6611,1.6878,1.6862,1.6994,1.6884,1.6566,1.6729,1.6287,1.6088,1.6077,1.6066,1.6077,1.6077,1.6077,1.6077,1.6066,1.6185,1.6353,1.6127,1.5792,1.5919,1.6585,1.7517,1.7781,1.7685,1.7052,1.6338,1.6368,1.6436,1.6595,1.6821,1.7099,1.6989,1.7157,1.719,1.7487,1.7597,1.7867,1.7823,1.8014,1.8226,1.8799,1.9148,1.9471,1.9798,2.0269,2.0737,2.0802,2.1077,2.1608,2.1643,2.1667,2.1553,2.1502,2.1803,2.2163,2.2396,2.2552,2.2865,2.3001,2.3025,2.3049,2.3139,2.3095,2.2978,2.2933,2.3016,2.2999,2.2995,2.3124,2.3239,2.3529,2.3691,2.3825,2.3705,2.2986,2.2042,2.1432,2.1302,2.1834,2.2015,2.1546,2.1469,2.177,2.1491,2.1275,1.1142,1.1848,1.184,1.1877,1.2196,1.3142,1.37,1.3994,1.4741,1.5234,1.5525,1.6149,1.6228,1.5956,1.5816,1.6167,1.6594,1.6802,1.701,1.7373,1.7432,1.7541,1.7775,1.7784,1.8061,1.843,1.8633,1.7896,1.747,1.7604,1.7729,1.7885,1.8226,1.8208,1.7647,1.7922,1.8155,1.7706,1.8038,1.8267,1.8246,1.8164,1.8154,1.8175,1.8164,1.8061,1.7878,1.7511,1.6867,1.6059,1.8132,1.9542,1.993,1.9108,1.8725,1.8191,1.7676,1.7101,1.7244,1.7489,1.7612,1.769,1.7501,1.752,1.8113,1.885,1.9402,2.0199,2.0037,1.9854,1.9841,2.0475,2.0486,2.0877,2.1522,2.1982,2.2161,2.2189,2.2724,2.293,2.287,2.2555,2.2396,2.2677,2.3027,2.3255,2.3492,2.3846,2.4097,2.4169,2.415,2.4161,2.4259,2.4162,2.4145,2.4243,2.4211,2.4166,2.4422,2.4487,2.4498,2.4634,2.438,2.4123,2.3562,2.3497,2.3419,2.3419,2.3599,2.3303,2.2825,2.3169,2.3705,2.3248,2.2423,1.2305,1.2334,1.2598,1.2985,1.3525,1.4361,1.4759,1.515,1.587,1.6228,1.6515,1.707,1.7226,1.6941,1.701,1.7226,1.751,1.7501,1.7647,1.7998,1.8066,1.8202,1.8452,1.8586,1.8911,1.9431,1.9607,1.9403,1.8828,1.8818,1.9105,1.9136,1.9315,1.9217,1.8803,1.9008,1.8772,1.8559,1.8594,1.8786,1.8786,1.8797,1.8808,1.8868,1.8879,1.889,1.8808,1.8529,1.8087,1.7627,1.913,2.0345,2.0938,2.0488,1.9807,1.9784,1.9448,1.9011,1.8759,1.8897,1.8908,1.9067,1.9067,1.9343,1.9552,1.9878,2.0287,2.0529,2.0598,2.0626,2.0795,2.1448,2.1665,2.2085,2.2736,2.3056,2.3373,2.356,2.3774,2.3904,2.4021,2.3682,2.3399,2.3623,2.3904,2.4105,2.4337,2.4624,2.4964,2.519,2.5191,2.5135,2.5244,2.5322,2.5374,2.5396,2.5367,2.5402,2.5819,2.5819,2.5402,2.5254,2.5208,2.5213,2.5089,2.5127,2.5308,2.4742,2.4128,2.4095,2.4103,2.4207,2.4334,2.4016,2.3183,1.3321,1.3033,1.3288,1.3841,1.4658,1.5227,1.5669,1.607,1.6802,1.7148,1.7295,1.7725,1.8008,1.8008,1.793,1.8008,1.8259,1.8269,1.8405,1.8462,1.8596,1.8854,1.9177,1.9309,1.9628,2.0344,2.0355,2.0353,2.0579,2.0568,2.0512,2.0366,2.0542,2.0303,2.0028,2.0104,2.0104,1.9939,1.9894,1.9871,1.986,1.9837,1.9776,1.9754,1.9648,1.9648,1.9648,1.9742,1.967,1.9814,2.0102,2.1128,2.174,2.1392,2.0986,2.0974,2.0831,2.0701,2.0382,2.0381,2.0613,2.0646,2.072,2.0568,2.0604,2.0804,2.1019,2.1139,2.1338,2.152,2.1809,2.2393,2.2753,2.3237,2.3807,2.4066,2.4253,2.4483,2.4667,2.4838,2.4838,2.4724,2.4553,2.4654,2.4781,2.4935,2.5174,2.5453,2.566,2.5934,2.5837,2.5685,2.5887,2.598,2.6034,2.6183,2.6283,2.6457,2.6864,2.6872,2.628,2.6227,2.6283,2.6366,2.6312,2.6328,2.6205,2.5354,2.4582,2.4793,2.4934,2.4647,2.4525,2.4339,2.4128,1.3863,1.4327,1.4029,1.42,1.4772,1.5695,1.6419,1.6807,1.7569,1.7862,1.7794,1.8008,1.8066,1.8076,1.8269,1.8529,1.8911,1.8911,1.9243,1.9649,1.9966,1.9835,1.9966,2.0096,2.0355,2.0944,2.1071,2.14,2.18,2.1675,2.1463,2.1198,2.1474,2.1439,2.1295,2.1265,2.1525,2.1457,2.1457,2.1566,2.159,2.1614,2.1625,2.1711,2.1832,2.1942,2.193,2.1687,2.1519,2.1507,2.1691,2.1898,2.2347,2.225,2.2152,2.2152,2.2092,2.2019,2.1922,2.1234,2.073,2.0812,2.1054,2.1498,2.152,2.1898,2.2054,2.2128,2.2449,2.2727,2.3043,2.3441,2.38,2.4071,2.4439,2.4794,2.5021,2.5314,2.5495,2.5729,2.566,2.5425,2.5522,2.5508,2.5384,2.5536,2.5811,2.6082,2.6028,2.6136,2.6096,2.6068,2.6322,2.6428,2.6481,2.6616,2.6826,2.693,2.7174,2.7174,2.6923,2.7019,2.7071,2.6982,2.6893,2.6982,2.6953,2.6168,2.5697,2.5827,2.5816,2.5597,2.5251,2.5015,2.4968,1.4588,1.4488,1.4754,1.5111,1.5591,1.6533,1.7054,1.7302,1.7755,1.8008,1.8076,1.8395,1.8586,1.8721,1.9121,1.9375,1.9639,1.9704,1.9901,2.0031,2.0096,2.0355,2.0549,2.0816,2.1071,2.16,2.18,2.1862,2.2123,2.2197,2.2123,2.1987,2.2061,2.1987,2.1987,2.1999,2.2123,2.2197,2.2197,2.2197,2.2197,2.2197,2.2197,2.2197,2.2197,2.2197,2.2173,2.2185,2.2212,2.2262,2.2567,2.2932,2.3198,2.3258,2.322,2.322,2.316,2.316,2.3002,2.2278,2.1829,2.2243,2.2421,2.2524,2.2711,2.3179,2.3267,2.3433,2.3518,2.3682,2.3715,2.4195,2.461,2.4794,2.5034,2.5384,2.555,2.5784,2.5948,2.5934,2.5934,2.5879,2.6082,2.6297,2.6176,2.6068,2.639,2.6616,2.651,2.6496,2.6457,2.6457,2.6721,2.6826,2.693,2.7137,2.7408,2.7509,2.7545,2.7494,2.7458,2.7509,2.7509,2.7458,2.7408,2.7393,2.724,2.6916,2.6707,2.6549,2.6602,2.6672,2.626,2.5745,2.5602,1.5177,1.4824,1.5235,1.5664,1.6184,1.6971,1.7382,1.7571,1.8147,1.8496,1.8664,1.8988,1.9177,1.9441,1.977,2.0226,2.0355,2.042,2.0549,2.0752,2.0944,2.1008,2.1262,2.1463,2.1663,2.2123,2.2197,2.2197,2.2197,2.2197,2.2123,2.2123,2.2197,2.2123,2.2185,2.2197,2.2197,2.2197,2.2197,2.2197,2.2197,2.2197,2.2197,2.2247,2.2359,2.2531,2.2653,2.2689,2.2552,2.2598,2.2946,2.376,2.4106,2.4255,2.4034,2.4021,2.4021,2.4008,2.3625,2.3339,2.282,2.269,2.3216,2.3682,2.4262,2.4255,2.38,2.3917,2.4092,2.4323,2.4323,2.4865,2.5216,2.5328,2.5495,2.5729,2.5784,2.5893,2.6042,2.6096,2.615,2.6258,2.6616,2.6878,2.6826,2.6654,2.6707,2.6864,2.6864,2.6864,2.6916,2.6967,2.7137,2.724,2.7342,2.761,2.7875,2.7925,2.7925,2.7925,2.7875,2.794,2.794,2.794,2.7825,2.771,2.766,2.756,2.7342,2.7071,2.7004,2.6886,2.7027,2.6549,2.6263,1.541,1.542,1.541,1.5713,1.6187,1.6787,1.7265,1.7698,1.868,1.9447,1.9738,1.9441,1.9507,2.0031,2.0291,2.0688,2.0996,2.1123,2.1325,2.1726,2.1737,2.1999,2.2061,2.2061,2.1999,2.2135,2.2197,2.2197,2.2197,2.2197,2.2197,2.2197,2.2197,2.2197,2.2197,2.2197,2.2197,2.2197,2.2247,2.2309,2.242,2.2482,2.2482,2.2592,2.2871,2.31,2.3148,2.3386,2.3242,2.2857,2.3535,2.4469,2.5337,2.4656,2.4337,2.4253,2.4195,2.3942,2.3567,2.38,2.3599,2.3135,2.3806,2.4456,2.5164,2.4914,2.4253,2.4496,2.4738,2.4991,2.523,2.5508,2.577,2.5934,2.6096,2.615,2.615,2.6204,2.6351,2.6457,2.651,2.6616,2.7086,2.7342,2.7408,2.7291,2.7122,2.7122,2.7276,2.7327,2.7444,2.7494,2.766,2.766,2.781,2.8088,2.8299,2.8348,2.8299,2.8201,2.8201,2.825,2.825,2.8314,2.825,2.8088,2.8186,2.8348,2.7974,2.7545,2.7027,2.6857,2.7159,2.7246,2.6931,1.6026,1.5968,1.5968,1.6337,1.6812,1.694,1.7277,1.7948,1.883,1.9595,2.0095,2.0215,2.0484,2.0805,2.121,2.1537,2.1726,2.1851,2.2123,2.2123,2.2197,2.2197,2.2197,2.2197,2.2197,2.2197,2.2197,2.2197,2.2197,2.2197,2.2197,2.2197,2.2309,2.2197,2.2197,2.2247,2.2359,2.2689,2.2871,2.2992,2.3339,2.3339,2.3339,2.3339,2.3564,2.3669,2.3728,2.4021,2.3825,2.3519,2.4306,2.503,2.5771,2.5216,2.5203,2.5189,2.5245,2.5231,2.5107,2.5217,2.512,2.4732,2.4603,2.5073,2.5674,2.5591,2.5328,2.53,2.5577,2.5811,2.6082,2.639,2.6654,2.6707,2.6759,2.6759,2.6774,2.6759,2.6864,2.6864,2.693,2.7137,2.7509,2.776,2.7825,2.7875,2.776,2.781,2.7925,2.7974,2.8088,2.8088,2.8137,2.8186,2.8235,2.8348,2.8411,2.8348,2.8348,2.8348,2.8411,2.8411,2.8411,2.8363,2.8411,2.8411,2.8411,2.8411,2.8299,2.7959,2.7449,2.7348,2.7695,2.771,2.7348,1.6585,1.6595,1.6585,1.6968,1.7412,1.7427,1.7816,1.8576,1.9148,1.9783,2.05,2.0968,2.1262,2.1526,2.1925,2.2197,2.2197,2.2197,2.2197,2.2197,2.2197,2.2197,2.2197,2.2197,2.2197,2.2197,2.2197,2.2197,2.2197,2.2197,2.2359,2.2531,2.2714,2.2944,2.2884,2.2811,2.2702,2.304,2.3207,2.3551,2.3787,2.3904,2.3904,2.4021,2.415,2.4337,2.4394,2.4526,2.4644,2.4801,2.5079,2.5508,2.5784,2.5893,2.5893,2.5893,2.5893,2.5893,2.5825,2.577,2.5687,2.5687,2.5508,2.5508,2.5784,2.5798,2.5948,2.6096,2.6351,2.6563,2.6707,2.7071,2.7122,2.7174,2.7174,2.7122,2.7122,2.7122,2.724,2.724,2.7408,2.761,2.7875,2.8088,2.825,2.8299,2.8348,2.8411,2.8411,2.8411,2.8411,2.8411,2.8348,2.8348,2.8348,2.8348,2.8411,2.8411,2.8411,2.8411,2.8411,2.8411,2.8411,2.8411,2.8411,2.8411,2.8411,2.8348,2.8348,2.822,2.8027,2.8091,2.8348,2.8088,2.766,1.7202,1.7191,1.7257,1.76,1.805,1.8084,1.8756,1.973,1.9611,2.0274,2.1368,2.1249,2.1526,2.2061,2.2197,2.2197,2.2197,2.2197,2.2197,2.2197,2.2197,2.2197,2.2197,2.2197,2.2197,2.2197,2.2197,2.2247,2.2247,2.2531,2.2811,2.31,2.3505,2.3623,2.3564,2.3505,2.3327,2.3623,2.3774,2.4124,2.4425,2.431,2.4368,2.4553,2.4738,2.4991,2.516,2.537,2.5591,2.5742,2.5839,2.5893,2.5893,2.5893,2.5893,2.5893,2.5893,2.5893,2.5893,2.5893,2.5893,2.5893,2.5934,2.5893,2.5893,2.5948,2.6042,2.6312,2.6563,2.6826,2.7086,2.724,2.7342,2.7327,2.7327,2.7327,2.7291,2.7393,2.7509,2.7625,2.779,2.7989,2.8201,2.8411,2.8411,2.8411,2.8411,2.8411,2.8411,2.8411,2.8411,2.8411,2.8411,2.8411,2.8411,2.8411,2.8411,2.8411,2.8411,2.8411,2.8411,2.8411,2.8411,2.8411,2.8411,2.8411,2.8411,2.8411,2.8411,2.8332,2.822,2.8268,2.8363,2.8103,2.784,1.7865,1.782,1.7799,1.8193,1.8709,1.8762,1.9383,2.0298,2.032,2.0914,2.1981,2.1916,2.1987,2.2197,2.2197,2.2197,2.2197,2.2197,2.2197,2.2185,2.2309,2.2247,2.2197,2.2185,2.2197,2.2247,2.2309,2.2469,2.2871,2.316,2.3446,2.3787,2.4079,2.4079,2.4195,2.4266,2.4337,2.4394,2.4526,2.4754,2.5119,2.5189,2.5189,2.5314,2.5384,2.5564,2.5674,2.5784,2.5893,2.5893,2.5893,2.5893,2.5893,2.5893,2.5893,2.5893,2.5893,2.5893,2.5893,2.5893,2.5934,2.6042,2.619,2.6096,2.6002,2.6056,2.6204,2.6563,2.6878,2.7188,2.7509,2.766,2.7775,2.781,2.781,2.781,2.7825,2.7825,2.7989,2.7989,2.8152,2.8152,2.8411,2.8411,2.8411,2.8411,2.8411,2.8411,2.8411,2.8411,2.8411,2.8411,2.8411,2.8411,2.8411,2.8411,2.8411,2.8411,2.8411,2.8411,2.8411,2.8411,2.8411,2.8411,2.8411,2.8411,2.8411,2.8411,2.8411,2.8363,2.8299,2.8314,2.8314,2.8054,2.794,1.8464,1.8441,1.8476,1.8691,1.8987,1.9239,1.9956,2.0783,2.0713,2.1115,2.1861,2.2101,2.2197,2.2247,2.2469,2.258,2.2641,2.2932,2.3053,2.2992,2.2641,2.258,2.2531,2.2359,2.242,2.242,2.2641,2.2932,2.3446,2.4034,2.4394,2.4439,2.4553,2.4724,2.4908,2.5147,2.5258,2.5258,2.53,2.5522,2.5701,2.5893,2.5893,2.5893,2.5893,2.5893,2.5893,2.5893,2.5893,2.5893,2.5893,2.5893,2.5893,2.5893,2.5893,2.5893,2.5893,2.6002,2.6096,2.615,2.6162,2.6293,2.6534,2.6674,2.6621,2.6621,2.6803,2.7034,2.7306,2.756,2.794,2.825,2.8299,2.8348,2.8348,2.8396,2.8363,2.8363,2.8411,2.8363,2.8411,2.8363,2.8411,2.8411,2.8411,2.8411,2.8411,2.8411,2.8411,2.8411,2.8411,2.8411,2.8411,2.8411,2.8411,2.8411,2.8411,2.8411,2.8411,2.8411,2.8411,2.8411,2.8411,2.8411,2.8411,2.8411,2.8411,2.8411,2.8411,2.8363,2.8266,2.8217,2.8201,2.8103,2.8039,1.904,1.9093,1.9105,1.9186,1.9198,1.9656,2.0532,2.1436,2.1031,2.1122,2.1764,2.2165,2.2482,2.2702,2.298,2.3148,2.3267,2.3564,2.3682,2.3962,2.3386,2.316,2.304,2.2702,2.2932,2.3088,2.3267,2.3518,2.4105,2.4681,2.5048,2.5104,2.5495,2.5605,2.5605,2.5674,2.5729,2.5715,2.5715,2.5825,2.5839,2.5893,2.5893,2.5893,2.5893,2.5893,2.5893,2.5893,2.5893,2.5893,2.5893,2.5893,2.5893,2.5893,2.5893,2.6002,2.6056,2.6258,2.6457,2.6563,2.6596,2.6724,2.6983,2.7233,2.7225,2.6989,2.71,2.7357,2.7625,2.7825,2.8152,2.8299,2.8411,2.8411,2.8411,2.8411,2.8411,2.8411,2.8411,2.8411,2.8411,2.8411,2.8411,2.8411,2.8411,2.8411,2.8411,2.8411,2.8411,2.8411,2.8411,2.8411,2.8411,2.8411,2.8411,2.8411,2.8411,2.8411,2.8411,2.8411,2.8411,2.8411,2.8411,2.8411,2.8411,2.8411,2.8411,2.8411,2.8411,2.8363,2.8266,2.8152,2.8054,2.7989,2.8005,1.9239,1.9643,2.0055,2.0207,2.0207,2.0359,2.1056,2.2066,2.1982,2.2437,2.3257,2.3487,2.3518,2.3505,2.3682,2.3787,2.3846,2.4092,2.4021,2.4079,2.3846,2.38,2.3787,2.3505,2.3623,2.3728,2.3904,2.415,2.4738,2.5328,2.5674,2.5674,2.5893,2.5893,2.5893,2.5893,2.5893,2.5893,2.5893,2.5893,2.5893,2.5893,2.5893,2.5893,2.5893,2.5893,2.5893,2.5893,2.5893,2.5893,2.5893,2.5893,2.5893,2.5948,2.6096,2.6312,2.6365,2.6563,2.6826,2.6982,2.7041,2.7144,2.7378,2.759,2.7604,2.7306,2.7291,2.7625,2.789,2.8103,2.825,2.8348,2.8411,2.8411,2.8411,2.8411,2.8411,2.8411,2.8411,2.8411,2.8411,2.8411,2.8411,2.8411,2.8411,2.8411,2.8411,2.8411,2.8411,2.8411,2.8411,2.8411,2.8411,2.8411,2.8411,2.8411,2.8411,2.8411,2.8411,2.8411,2.8411,2.8396,2.8348,2.8411,2.8411,2.8411,2.8411,2.8411,2.8411,2.8363,2.8217,2.8054,2.794,2.789,2.784,1.9861,2.0156,2.0446,2.061,2.066,2.0858,2.1621,2.2671,2.2963,2.3744,2.463,2.431,2.4021,2.4079,2.4266,2.4452,2.4509,2.4794,2.4964,2.4894,2.4496,2.4465,2.4394,2.4208,2.4279,2.4323,2.4724,2.5133,2.5384,2.5619,2.5893,2.5893,2.5893,2.5948,2.5948,2.5893,2.5948,2.5893,2.5962,2.5976,2.5976,2.5907,2.5893,2.5893,2.5893,2.5893,2.5893,2.5893,2.5893,2.6099,2.625,2.6476,2.65,2.651,2.6549,2.6707,2.6826,2.693,2.724,2.7444,2.7494,2.766,2.7825,2.8069,2.8069,2.7825,2.7825,2.8152,2.8152,2.8299,2.8348,2.8411,2.8411,2.8411,2.8411,2.8411,2.8411,2.8411,2.8411,2.8411,2.8411,2.8411,2.8411,2.8411,2.8411,2.8299,2.8348,2.8348,2.8348,2.8429,2.8444,2.8493,2.8541,2.8444,2.8411,2.8411,2.8411,2.8411,2.8411,2.8348,2.8348,2.8299,2.8299,2.8299,2.8299,2.8348,2.8348,2.8348,2.8348,2.8299,2.8152,2.802,2.7855,2.7725,2.774,2.064,2.0673,2.0809,2.0795,2.0858,2.1313,2.2237,2.3338,2.3863,2.4741,2.5563,2.4738,2.4323,2.4439,2.4808,2.4991,2.5174,2.5384,2.5715,2.5605,2.5272,2.516,2.4921,2.4667,2.4851,2.509,2.5481,2.566,2.5784,2.5893,2.5893,2.5893,2.5948,2.6002,2.6002,2.6056,2.6165,2.6221,2.6264,2.6266,2.6155,2.5907,2.5907,2.5893,2.5962,2.5948,2.6002,2.6071,2.6125,2.6315,2.6722,2.7001,2.6989,2.6916,2.7071,2.7137,2.7203,2.7458,2.7725,2.7825,2.8039,2.825,2.8363,2.8411,2.8348,2.8348,2.8348,2.8348,2.8348,2.8348,2.8411,2.8411,2.8411,2.8411,2.8411,2.8411,2.8411,2.8411,2.8411,2.8411,2.8411,2.8411,2.8396,2.8396,2.8348,2.8235,2.8235,2.8284,2.8317,2.851,2.859,2.8748,2.8858,2.8716,2.8493,2.8444,2.8444,2.8411,2.8411,2.8299,2.825,2.8201,2.8201,2.8201,2.8201,2.825,2.8299,2.8299,2.825,2.8186,2.8054,2.7905,2.784,2.7725,2.7625,2.0835,2.1277,2.1698,2.1888,2.1888,2.1983,2.279,2.3839,2.403,2.4741,2.56,2.577,2.5536,2.555,2.5605,2.566,2.5619,2.5839,2.5893,2.5839,2.5674,2.5674,2.5605,2.5314,2.555,2.5729,2.5839,2.5893,2.5948,2.5948,2.5948,2.5948,2.6297,2.6404,2.6457,2.6539,2.6799,2.6808,2.7209,2.752,2.6938,2.6603,2.599,2.6071,2.6315,2.6394,2.6568,2.6972,2.6643,2.6666,2.7151,2.7476,2.7439,2.7276,2.7393,2.761,2.7675,2.7825,2.8039,2.8152,2.8363,2.8363,2.8411,2.8411,2.8411,2.8411,2.8411,2.8411,2.8411,2.8411,2.8411,2.8411,2.8411,2.8411,2.8411,2.8411,2.8411,2.8411,2.8411,2.8348,2.8348,2.8299,2.8299,2.8299,2.825,2.8186,2.8284,2.8332,2.8637,2.8716,2.8795,2.8967,2.9167,2.8858,2.8556,2.8493,2.8493,2.8444,2.8493,2.8558,2.8462,2.8103,2.8054,2.8186,2.8137,2.8137,2.8201,2.825,2.8201,2.8152,2.794,2.779,2.774,2.7725,2.7625]},{"header":{"parameterUnit":"m.s-1","parameterCategory":1,"la1":31.0,"la2":29.5877,"lo1":-88.7671,"lo2":-86.6584,"dy":0.0162,"dx":0.0185,"nx":115,"ny":88,"refTime":"2023-09-10T06:00:00:Z","depth":0,"parameterNumber":3,"parameterNumberName":"V-component_of_WINDS"},"data":[0.0,0.0,0.0,0.0,0.0,0.0,0.0,0.0,0.0,0.0,0.0,0.0,0.0,0.0,0.0,0.0,0.0,0.0,0.0,0.0,0.0,0.0,0.0,0.0,0.0,0.0,0.0,0.0,0.0,0.0,0.0,0.0,0.0,0.0,0.0,0.0,0.0,0.0,0.0,0.0,0.0,0.0,0.0,0.0,0.0,0.0,0.0,0.0,0.0,0.0,0.0,0.0,0.0,0.0,0.0,0.0,0.0,0.0,0.0,0.0,0.0,0.0,0.0,0.0,0.0,0.0,0.0,0.0,0.0,0.0,0.0,0.0,0.0,0.0,0.0,0.0,0.0,0.0,0.0,0.0,0.0,0.0,0.0,0.0,0.0,0.0,0.0,0.0,0.0,0.0,0.0,0.0,0.0,0.0,0.0,0.0,0.0,0.0,0.0,0.0,0.0,0.0,0.0,0.0,0.0,0.0,0.0,0.0,0.0,0.0,0.0,0.0,0.0,0.0,0.0,0.0,0.0,0.0,0.0,0.0,0.0,0.0,0.0,0.0,0.0,0.0,0.0,0.0,0.0,0.0,0.0,0.0,0.0,0.0,0.0,0.0,0.0,0.0,0.0,0.0,0.0,0.0,0.0,0.0,0.0,0.0,0.0,0.0,0.0,0.0,0.0,0.0,0.0,0.0,0.0,0.0,0.0,0.0,0.0,0.0,0.0,0.0,0.0,0.0,0.0,0.0,0.0,0.0,0.0,0.0,0.0,0.0,0.0,0.0,0.0,0.0,0.0,0.0,0.0,0.0,0.0,0.0,0.0,0.0,0.0,0.0,0.0,0.0,0.0,0.0,0.0,0.0,0.0,0.0,0.0,0.0,0.0,0.0,0.0,0.0,0.0,0.0,0.0,0.0,0.0,0.0,0.0,0.0,0.0,0.0,0.0,0.0,0.0,0.0,0.0,0.0,0.0,0.0,0.0,0.0,0.0,0.0,0.0,0.0,0.0,0.0,0.0,0.0,0.0,0.0,0.0,0.0,0.0,0.0,0.0,0.0,0.0,0.0,0.0,0.0,0.0,0.0,0.0,0.0,0.0,0.0,0.0,0.0,0.0,0.0,0.0,0.0,0.0,0.0,0.0,0.0,0.0,0.0,0.0,0.0,0.0,0.0,0.0,0.0,0.0,0.0,0.0,0.0,0.0,0.0,0.0,0.0,0.0,0.0,0.0,0.0,0.0,0.0,0.0,0.0,0.0,0.0,0.0,0.0,0.0,0.0,0.0,0.0,0.0,0.0,0.0,0.0,0.0,0.0,0.0,0.0,0.0,0.0,0.0,0.0,0.0,0.0,0.0,0.0,0.0,0.0,0.0,0.0,0.0,0.0,0.0,0.0,0.0,0.0,0.0,0.0,0.0,0.0,0.0,0.0,0.0,0.0,0.0,0.0,0.0,0.0,0.0,0.0,0.0,0.0,0.0,0.0,0.0,0.0,0.0,0.0,0.0,0.0,0.0,0.0,0.0,0.0,0.0,0.0,0.0,0.0,0.0,0.0,0.0,0.0,0.0,0.0,0.0,0.0,0.0,0.0,0.0,0.0,0.0,0.0,0.0,0.0,0.0,0.0,0.0,0.0,0.0,0.0,0.0,0.0,0.0,0.0,0.0,0.0,0.0,0.0,0.0,0.0,0.0,0.0,0.0,0.0,0.0,0.0,0.0,0.0,0.0,0.0,0.0,0.0,0.0,0.0,0.0,0.0,0.0,0.0,0.0,0.0,0.0,0.0,0.0,0.0,0.0,0.0,0.0,0.0,0.0,0.0,0.0,0.0,0.0,0.0,0.0,0.0,0.0,0.0,0.0,0.0,0.0,0.0,0.0,0.0,0.0,0.0,0.0,0.0,0.0,0.0,0.0,0.0,0.0,0.0,0.0,0.0,0.0,0.0,0.0,0.0,0.0,0.0,0.0,0.0,0.0,0.0,0.0,0.0,0.0,0.0,0.0,0.0,0.0,0.0,0.0,0.0,0.0,0.0,0.0,0.0,0.0,0.0,0.0,0.0,0.0,0.0,0.0,0.0,0.0,0.0,0.0,0.0,0.0,0.0,0.0,0.0,0.0,0.0,0.0,0.0,0.0,0.0,0.0,0.0,0.0,0.0,0.0,0.0,0.0,0.0,0.0,0.0,0.0,0.0,0.0,0.0,0.0,0.0,0.0,0.0,0.0,0.0,0.0,0.0,0.0,0.0,0.0,0.0,0.0,0.0,0.0,0.0,0.0,0.0,0.0,0.0,0.0,0.0,0.0,0.0,0.0,0.0,0.0,0.0,0.0,0.0,0.0,0.0,0.0,0.0,0.0,0.0,0.0,0.0,0.0,0.0,0.0,0.0,0.0,0.0,0.0,0.0,0.0,0.0,0.0,0.0,0.0,0.0,0.0,0.0,0.0,0.0,0.0,0.0,0.0,0.0,0.0,0.0,0.0,0.0,0.0,0.0,0.0,0.0,0.0,0.0,0.0,0.0,0.0,0.0,0.0,0.0,0.0,0.0,0.0,0.0,0.0,0.0,0.0,0.0,0.0,0.0,0.0,0.0,0.0,0.0,0.0,0.0,0.0,0.0,0.0,0.0,0.0,0.0,0.0,0.0,0.0,0.0,0.0,0.0,0.0,0.0,0.0,0.0,0.0,0.0,0.0,0.0,0.0,0.0,0.0,0.0,0.0,0.0,0.0,0.0,0.0,0.0,0.0,0.0,0.0,0.0,0.0,0.0,0.0,0.0,0.0,0.0,0.0,0.0,0.0,0.0,0.0,0.0,0.0,0.0,0.0,0.0,0.0,0.0,0.0,0.0,0.0,0.0,0.0,0.0,0.0,0.0,0.0,0.0,0.0,0.0,0.0,0.0,0.0,0.0,0.0,0.0,0.0,0.0,0.0,0.0,0.0,0.0,0.0,0.0,0.0,0.0,0.0,0.0,0.0,0.0,0.0,0.0,0.0,0.0,0.0,0.0,0.0,0.0,0.0,0.0,0.0,0.0,0.0,0.0,0.0,0.0,0.0,0.0,0.0,0.0,0.0,0.0,0.0,0.0,0.0,0.0,0.0,0.0,0.0,0.0,0.0,0.0,0.0,0.0,0.0,0.0,0.0,0.0,0.0,0.0,0.0,0.0,0.0,0.0,0.0,0.0,0.0,0.0,0.0,0.0,0.0,0.0,0.0,0.0,0.0,0.0,0.0,0.0,0.0,0.0,0.0,0.0,0.0,0.0,0.0,0.0,0.0,0.0,0.0,0.0,0.0,0.0,0.0,0.0,0.0,0.0,0.0,0.0,0.0,0.0,0.0,0.0,0.0,0.0,0.0,0.0,0.0,0.0,0.0,0.0,0.0,0.0,0.0,0.0,0.0,0.0,0.0,0.0,0.0,0.0,0.0,0.0,0.0,0.0,0.0,0.0,0.0,0.0,0.0,0.0,0.0,0.0,0.0,0.0,0.0,0.0,0.0,0.0,0.0,0.0,0.0,0.0,0.0,0.0,0.0,0.0,0.0,0.0,0.0,0.0,0.0,0.0,0.0,0.0,0.0,0.0,0.0,0.0,0.0,0.0,0.0,0.0,0.0,0.0,0.0,0.0,0.0,0.0,0.0,0.0,0.0,0.0,0.0,0.0,0.0,0.0,0.0,0.0,0.0,0.0,0.0,0.0,0.0,0.0,0.0,0.0,0.0,0.0,0.0,0.0,0.0,0.0,0.0,0.0,0.0,0.0,0.0,0.0,0.0,0.0,0.0,0.0,0.0,0.0,0.0,0.0,0.0,0.0,0.0,0.0,0.0,0.0,0.0,0.0,0.0,0.0,0.0,0.0,0.0,0.0,0.0,0.0,0.0,0.0,0.0,0.0,0.0,0.0,0.0,0.0,0.0,0.0,0.0,0.0,0.0,0.0,0.0,0.0,0.0,0.0,0.0,0.0,0.0,0.0,0.0,0.0,0.0,0.0,0.0,0.0,0.0,0.0,0.0,0.0,0.0,0.0,0.0,0.0,0.0,0.0,0.0,0.0,0.0,0.0,0.0,0.0,0.0,0.0,0.0,0.0,0.0,0.0,0.0,0.0,0.0,0.0,0.0,0.0,0.0,0.0,0.0,0.0,0.0,0.0,0.0,0.0,0.0,0.0,0.0,0.0,0.0,0.0,0.0,0.0,0.0,0.0,0.0,0.0,0.0,0.0,0.0,0.0,0.0,0.0,0.0,0.0,0.0,0.0,0.0,0.0,0.0,0.0,0.0,0.0,0.0,0.0,-2.0042,0.0,0.0,0.0,0.0,0.0,0.0,0.0,0.0,0.0,0.0,0.0,0.0,0.0,0.0,0.0,0.0,0.0,0.0,0.0,0.0,0.0,0.0,0.0,0.0,0.0,0.0,0.0,0.0,0.0,0.0,0.0,0.0,0.0,0.0,0.0,0.0,0.0,0.0,0.0,0.0,0.0,0.0,0.0,0.0,0.0,0.0,0.0,0.0,0.0,0.0,0.0,0.0,0.0,0.0,0.0,0.0,0.0,0.0,0.0,0.0,0.0,0.0,0.0,0.0,0.0,0.0,0.0,0.0,0.0,0.0,0.0,0.0,0.0,0.0,0.0,0.0,0.0,0.0,0.0,0.0,0.0,0.0,0.0,0.0,0.0,0.0,0.0,0.0,0.0,0.0,0.0,0.0,0.0,0.0,0.0,0.0,0.0,0.0,0.0,0.0,0.0,0.0,0.0,0.0,0.0,0.0,0.0,0.0,0.0,0.0,-2.0232,-2.0597,-2.0733,-2.0868,-2.0988,0.0,0.0,0.0,0.0,0.0,0.0,0.0,0.0,0.0,0.0,0.0,0.0,0.0,0.0,0.0,0.0,0.0,0.0,0.0,0.0,0.0,0.0,0.0,0.0,0.0,0.0,0.0,0.0,0.0,0.0,0.0,0.0,0.0,0.0,0.0,0.0,0.0,0.0,0.0,0.0,0.0,0.0,0.0,0.0,0.0,0.0,0.0,0.0,0.0,0.0,0.0,0.0,0.0,0.0,0.0,0.0,0.0,0.0,0.0,0.0,0.0,0.0,0.0,0.0,0.0,0.0,0.0,0.0,0.0,0.0,0.0,0.0,0.0,0.0,0.0,0.0,0.0,0.0,0.0,0.0,0.0,0.0,0.0,0.0,0.0,0.0,0.0,0.0,0.0,0.0,0.0,0.0,0.0,0.0,0.0,0.0,0.0,0.0,0.0,0.0,0.0,0.0,0.0,0.0,0.0,0.0,0.0,0.0,0.0,0.0,0.0,0.0,-2.188,-2.2039,-2.2165,0.0,0.0,0.0,0.0,0.0,0.0,0.0,0.0,0.0,0.0,0.0,0.0,0.0,0.0,0.0,0.0,0.0,0.0,0.0,0.0,0.0,0.0,0.0,0.0,0.0,0.0,0.0,0.0,0.0,0.0,0.0,0.0,0.0,0.0,0.0,0.0,0.0,0.0,0.0,0.0,0.0,0.0,0.0,0.0,0.0,0.0,0.0,0.0,0.0,0.0,0.0,0.0,0.0,0.0,0.0,0.0,0.0,0.0,0.0,0.0,0.0,0.0,0.0,0.0,0.0,0.0,0.0,0.0,0.0,0.0,0.0,0.0,0.0,0.0,0.0,0.0,0.0,0.0,0.0,0.0,0.0,0.0,0.0,0.0,0.0,0.0,0.0,0.0,0.0,0.0,0.0,0.0,0.0,0.0,0.0,0.0,0.0,0.0,0.0,0.0,0.0,0.0,0.0,0.0,0.0,0.0,0.0,0.0,0.0,0.0,-2.2423,-2.2846,-2.2995,0.0,-2.3477,0.0,0.0,0.0,0.0,0.0,0.0,0.0,0.0,0.0,0.0,0.0,0.0,0.0,0.0,0.0,0.0,0.0,0.0,0.0,0.0,0.0,0.0,0.0,0.0,0.0,0.0,0.0,0.0,0.0,0.0,0.0,0.0,0.0,0.0,0.0,0.0,0.0,0.0,0.0,0.0,0.0,0.0,0.0,0.0,0.0,0.0,0.0,0.0,0.0,0.0,0.0,0.0,0.0,0.0,0.0,0.0,0.0,0.0,0.0,0.0,0.0,0.0,0.0,0.0,0.0,0.0,0.0,0.0,0.0,0.0,0.0,0.0,0.0,0.0,0.0,0.0,0.0,0.0,0.0,0.0,0.0,0.0,0.0,0.0,0.0,0.0,0.0,0.0,0.0,0.0,0.0,0.0,0.0,0.0,0.0,0.0,0.0,0.0,0.0,0.0,0.0,0.0,0.0,0.0,0.0,0.0,0.0,0.0,0.0,0.0,-2.3761,-2.4179,-2.4393,-2.4538,0.0,0.0,0.0,0.0,0.0,0.0,0.0,0.0,0.0,0.0,0.0,0.0,0.0,0.0,0.0,0.0,0.0,0.0,0.0,0.0,0.0,0.0,0.0,0.0,0.0,0.0,0.0,0.0,0.0,0.0,0.0,0.0,0.0,0.0,0.0,0.0,0.0,0.0,0.0,0.0,0.0,0.0,0.0,0.0,0.0,0.0,0.0,0.0,0.0,0.0,0.0,0.0,0.0,0.0,0.0,0.0,0.0,0.0,0.0,0.0,0.0,0.0,0.0,0.0,0.0,0.0,0.0,0.0,0.0,0.0,0.0,0.0,0.0,0.0,0.0,0.0,0.0,0.0,0.0,0.0,0.0,0.0,0.0,0.0,0.0,0.0,0.0,0.0,0.0,0.0,0.0,0.0,0.0,0.0,0.0,0.0,0.0,0.0,0.0,0.0,0.0,0.0,0.0,0.0,0.0,0.0,0.0,0.0,0.0,0.0,-2.4729,-2.5064,-2.5538,-2.5757,-2.5881,-2.5881,0.0,0.0,0.0,0.0,0.0,0.0,0.0,0.0,0.0,0.0,0.0,0.0,0.0,0.0,0.0,0.0,0.0,0.0,0.0,0.0,0.0,0.0,0.0,0.0,0.0,0.0,0.0,0.0,0.0,0.0,0.0,0.0,0.0,0.0,0.0,0.0,0.0,0.0,0.0,0.0,0.0,0.0,0.0,0.0,0.0,0.0,0.0,0.0,0.0,0.0,0.0,0.0,0.0,0.0,0.0,0.0,0.0,0.0,0.0,0.0,0.0,0.0,0.0,0.0,0.0,0.0,0.0,0.0,0.0,0.0,0.0,0.0,0.0,0.0,0.0,0.0,0.0,0.0,0.0,0.0,0.0,0.0,0.0,0.0,0.0,0.0,0.0,0.0,0.0,0.0,0.0,0.0,0.0,0.0,0.0,0.0,0.0,0.0,0.0,0.0,0.0,0.0,0.0,0.0,0.0,0.0,0.0,0.0,-2.5265,-2.5757,-2.632,-2.6879,-2.6994,-2.7029,0.0,0.0,0.0,0.0,0.0,0.0,0.0,0.0,0.0,0.0,0.0,0.0,0.0,0.0,0.0,0.0,0.0,0.0,0.0,0.0,0.0,0.0,0.0,0.0,0.0,0.0,0.0,0.0,0.0,0.0,0.0,0.0,0.0,0.0,0.0,0.0,0.0,0.0,0.0,0.0,0.0,0.0,0.0,0.0,0.0,0.0,0.0,0.0,0.0,0.0,0.0,0.0,0.0,0.0,0.0,0.0,0.0,0.0,0.0,0.0,0.0,0.0,0.0,0.0,0.0,0.0,0.0,0.0,0.0,0.0,0.0,0.0,0.0,0.0,0.0,0.0,0.0,0.0,0.0,0.0,0.0,0.0,0.0,0.0,0.0,0.0,0.0,0.0,0.0,0.0,0.0,0.0,0.0,0.0,0.0,0.0,0.0,0.0,0.0,0.0,0.0,0.0,0.0,0.0,0.0,0.0,0.0,0.0,0.0,-2.6539,-2.7122,-2.7614,-2.8012,-2.8058,-2.804,0.0,0.0,0.0,0.0,0.0,0.0,0.0,0.0,0.0,0.0,0.0,0.0,0.0,0.0,0.0,0.0,0.0,0.0,0.0,0.0,0.0,0.0,0.0,0.0,0.0,0.0,0.0,0.0,0.0,0.0,0.0,0.0,0.0,0.0,0.0,0.0,0.0,0.0,0.0,0.0,0.0,0.0,0.0,0.0,0.0,0.0,0.0,0.0,0.0,0.0,0.0,0.0,0.0,0.0,0.0,0.0,0.0,0.0,0.0,0.0,0.0,0.0,0.0,0.0,0.0,0.0,0.0,0.0,0.0,0.0,0.0,0.0,0.0,0.0,0.0,0.0,0.0,0.0,0.0,0.0,0.0,0.0,0.0,0.0,0.0,0.0,0.0,0.0,0.0,0.0,0.0,0.0,0.0,0.0,0.0,0.0,0.0,0.0,0.0,0.0,0.0,0.0,0.0,0.0,0.0,0.0,0.0,0.0,0.0,-2.7816,0.0,-2.8725,-2.8977,-2.8947,-2.8898,0.0,0.0,0.0,0.0,0.0,0.0,0.0,0.0,0.0,0.0,0.0,0.0,0.0,0.0,0.0,0.0,0.0,0.0,0.0,0.0,0.0,0.0,0.0,0.0,0.0,0.0,0.0,0.0,0.0,0.0,0.0,0.0,0.0,0.0,0.0,0.0,0.0,0.0,0.0,0.0,0.0,0.0,0.0,0.0,0.0,0.0,0.0,0.0,0.0,0.0,0.0,0.0,0.0,0.0,0.0,0.0,0.0,0.0,0.0,0.0,0.0,0.0,0.0,0.0,0.0,0.0,0.0,0.0,0.0,0.0,0.0,0.0,0.0,0.0,0.0,0.0,0.0,0.0,0.0,0.0,0.0,0.0,0.0,0.0,0.0,0.0,0.0,0.0,0.0,0.0,0.0,0.0,0.0,0.0,0.0,0.0,0.0,0.0,0.0,0.0,0.0,0.0,0.0,0.0,0.0,0.0,0.0,0.0,-2.8225,-2.9155,-2.9324,-2.9529,-2.9785,-2.9671,-2.9561,0.0,0.0,0.0,0.0,0.0,0.0,0.0,0.0,0.0,0.0,0.0,0.0,0.0,0.0,0.0,0.0,0.0,0.0,0.0,0.0,0.0,0.0,0.0,0.0,0.0,0.0,0.0,0.0,0.0,0.0,0.0,0.0,0.0,0.0,0.0,0.0,0.0,0.0,0.0,0.0,0.0,0.0,0.0,0.0,0.0,0.0,0.0,0.0,0.0,0.0,0.0,0.0,0.0,0.0,0.0,0.0,0.0,0.0,0.0,0.0,0.0,0.0,0.0,0.0,0.0,0.0,0.0,0.0,0.0,0.0,0.0,0.0,0.0,0.0,0.0,0.0,0.0,0.0,0.0,0.0,0.0,0.0,0.0,0.0,0.0,0.0,0.0,0.0,0.0,0.0,0.0,0.0,0.0,0.0,0.0,0.0,0.0,0.0,0.0,0.0,0.0,0.0,0.0,0.0,0.0,0.0,0.0,0.0,0.0,-2.9819,-2.9952,-3.0095,-3.0272,-3.0211,-3.0102,0.0,0.0,0.0,0.0,0.0,0.0,0.0,0.0,0.0,0.0,0.0,0.0,0.0,0.0,0.0,0.0,0.0,0.0,0.0,0.0,0.0,0.0,0.0,0.0,0.0,0.0,0.0,0.0,0.0,0.0,0.0,0.0,0.0,0.0,0.0,0.0,0.0,0.0,0.0,0.0,0.0,0.0,0.0,0.0,0.0,0.0,0.0,0.0,0.0,0.0,0.0,0.0,0.0,0.0,0.0,0.0,0.0,0.0,0.0,0.0,0.0,0.0,0.0,0.0,0.0,0.0,0.0,0.0,0.0,0.0,0.0,0.0,0.0,0.0,0.0,0.0,0.0,0.0,0.0,0.0,0.0,0.0,0.0,0.0,0.0,0.0,0.0,0.0,0.0,0.0,0.0,0.0,0.0,0.0,0.0,0.0,0.0,0.0,0.0,0.0,0.0,0.0,0.0,0.0,0.0,0.0,0.0,0.0,0.0,-2.982,-3.0182,-3.0434,-3.0582,-3.0486,-3.0412,-3.0352,0.0,0.0,0.0,0.0,0.0,0.0,0.0,0.0,0.0,0.0,0.0,0.0,0.0,0.0,0.0,0.0,0.0,0.0,0.0,0.0,0.0,0.0,0.0,0.0,0.0,0.0,0.0,0.0,0.0,0.0,0.0,0.0,0.0,0.0,0.0,0.0,0.0,0.0,0.0,0.0,0.0,0.0,0.0,0.0,0.0,0.0,0.0,0.0,0.0,0.0,0.0,0.0,0.0,0.0,0.0,0.0,0.0,0.0,0.0,0.0,0.0,0.0,0.0,0.0,0.0,0.0,0.0,0.0,0.0,0.0,0.0,0.0,0.0,0.0,0.0,0.0,0.0,0.0,0.0,0.0,0.0,0.0,0.0,0.0,0.0,0.0,0.0,0.0,0.0,0.0,0.0,0.0,0.0,0.0,0.0,0.0,0.0,0.0,0.0,0.0,0.0,0.0,0.0,0.0,0.0,0.0,0.0,0.0,-2.9294,-3.0026,-3.0462,-3.0591,-3.0486,-3.0503,0.0,0.0,0.0,0.0,0.0,0.0,0.0,0.0,0.0,0.0,0.0,0.0,0.0,0.0,0.0,0.0,0.0,0.0,0.0,0.0,0.0,0.0,0.0,0.0,0.0,0.0,0.0,0.0,0.0,0.0,0.0,0.0,0.0,0.0,0.0,0.0,0.0,0.0,0.0,0.0,0.0,0.0,0.0,0.0,0.0,0.0,0.0,0.0,0.0,0.0,0.0,0.0,0.0,0.0,0.0,0.0,0.0,0.0,0.0,0.0,0.0,0.0,0.0,0.0,0.0,0.0,0.0,0.0,0.0,0.0,0.0,0.0,0.0,0.0,0.0,0.0,0.0,0.0,0.0,0.0,0.0,0.0,0.0,0.0,0.0,0.0,0.0,0.0,0.0,0.0,0.0,0.0,0.0,0.0,0.0,0.0,0.0,0.0,0.0,0.0,0.0,0.0,0.0,0.0,0.0,0.0,0.0,0.0,0.0,-2.906,-2.9205,-2.9418,-2.9654,-2.9624,-2.9949,0.0,0.0,0.0,0.0,0.0,0.0,0.0,0.0,0.0,0.0,0.0,0.0,0.0,0.0,0.0,0.0,0.0,0.0,0.0,0.0,0.0,0.0,0.0,0.0,0.0,0.0,0.0,0.0,0.0,0.0,0.0,0.0,0.0,0.0,0.0,0.0,0.0,0.0,0.0,0.0,0.0,0.0,0.0,0.0,0.0,0.0,0.0,0.0,0.0,0.0,0.0,0.0,0.0,0.0,0.0,0.0,0.0,0.0,0.0,0.0,0.0,0.0,0.0,0.0,0.0,0.0,0.0,0.0,0.0,0.0,0.0,0.0,0.0,0.0,0.0,0.0,0.0,0.0,0.0,0.0,0.0,0.0,0.0,0.0,0.0,0.0,0.0,0.0,0.0,0.0,0.0,0.0,0.0,0.0,0.0,0.0,0.0,0.0,0.0,0.0,0.0,0.0,0.0,0.0,0.0,0.0,0.0,0.0,-2.9732,-2.8404,-2.8316,-2.839,-2.8589,-2.8999,-2.968,0.0,0.0,0.0,0.0,0.0,0.0,0.0,0.0,0.0,0.0,0.0,0.0,0.0,0.0,0.0,0.0,0.0,0.0,0.0,0.0,0.0,0.0,0.0,0.0,0.0,0.0,0.0,0.0,0.0,0.0,0.0,0.0,0.0,0.0,0.0,0.0,0.0,0.0,0.0,0.0,0.0,0.0,0.0,0.0,0.0,0.0,0.0,0.0,0.0,0.0,0.0,0.0,0.0,0.0,0.0,0.0,0.0,0.0,0.0,0.0,0.0,0.0,0.0,0.0,0.0,0.0,0.0,0.0,0.0,0.0,0.0,0.0,0.0,0.0,0.0,0.0,0.0,0.0,0.0,0.0,0.0,0.0,0.0,0.0,0.0,0.0,0.0,0.0,0.0,0.0,0.0,0.0,0.0,0.0,0.0,0.0,0.0,0.0,0.0,0.0,0.0,0.0,0.0,0.0,0.0,0.0,0.0,0.0,-2.9308,-2.7561,-2.7437,-2.7418,-2.7409,-2.8415,-2.9496,0.0,0.0,0.0,0.0,0.0,0.0,0.0,0.0,0.0,0.0,0.0,0.0,0.0,0.0,0.0,0.0,0.0,0.0,0.0,0.0,0.0,0.0,0.0,0.0,0.0,0.0,0.0,0.0,0.0,0.0,0.0,0.0,0.0,0.0,0.0,0.0,0.0,0.0,0.0,0.0,0.0,0.0,0.0,0.0,0.0,0.0,0.0,0.0,0.0,0.0,0.0,0.0,0.0,0.0,0.0,0.0,0.0,0.0,0.0,0.0,0.0,0.0,0.0,0.0,0.0,0.0,0.0,0.0,0.0,0.0,0.0,0.0,0.0,0.0,0.0,0.0,0.0,0.0,0.0,0.0,0.0,0.0,0.0,0.0,0.0,0.0,0.0,0.0,0.0,0.0,0.0,0.0,0.0,0.0,0.0,0.0,0.0,0.0,0.0,0.0,0.0,0.0,0.0,0.0,0.0,0.0,0.0,0.0,-2.8835,-2.6905,-2.6897,-2.6617,-2.5966,-2.7317,-2.8849,0.0,0.0,0.0,0.0,0.0,0.0,0.0,0.0,0.0,0.0,0.0,0.0,0.0,0.0,0.0,0.0,0.0,0.0,0.0,0.0,0.0,0.0,0.0,0.0,0.0,0.0,0.0,0.0,0.0,0.0,0.0,0.0,0.0,0.0,0.0,0.0,0.0,0.0,0.0,0.0,0.0,0.0,0.0,0.0,0.0,0.0,0.0,0.0,-2.9877,0.0,0.0,0.0,0.0,0.0,0.0,0.0,0.0,0.0,0.0,0.0,0.0,0.0,0.0,0.0,0.0,0.0,0.0,0.0,0.0,0.0,0.0,0.0,0.0,0.0,0.0,0.0,0.0,0.0,0.0,0.0,0.0,0.0,0.0,0.0,0.0,0.0,0.0,0.0,0.0,0.0,0.0,0.0,0.0,0.0,0.0,0.0,0.0,0.0,0.0,0.0,0.0,0.0,0.0,0.0,0.0,0.0,0.0,0.0,-2.8516,-2.678,-2.6624,-2.6485,-2.6265,-2.7134,-2.8284,0.0,0.0,0.0,0.0,0.0,0.0,0.0,0.0,0.0,0.0,0.0,0.0,0.0,0.0,0.0,0.0,0.0,0.0,0.0,0.0,0.0,0.0,0.0,0.0,0.0,0.0,0.0,0.0,0.0,0.0,0.0,0.0,0.0,0.0,0.0,0.0,0.0,0.0,0.0,0.0,0.0,0.0,0.0,0.0,0.0,0.0,0.0,0.0,0.0,0.0,0.0,0.0,0.0,0.0,0.0,0.0,0.0,0.0,0.0,0.0,0.0,0.0,0.0,0.0,0.0,0.0,0.0,0.0,0.0,0.0,0.0,0.0,0.0,0.0,0.0,0.0,0.0,0.0,0.0,0.0,0.0,0.0,0.0,0.0,0.0,0.0,0.0,0.0,0.0,0.0,0.0,0.0,0.0,0.0,0.0,0.0,0.0,0.0,0.0,0.0,0.0,0.0,0.0,0.0,0.0,0.0,0.0,-2.9098,-2.822,-2.688,-2.6585,-2.6618,-2.6916,-2.7307,-2.7956,-2.8941,0.0,0.0,0.0,0.0,0.0,0.0,0.0,0.0,0.0,0.0,0.0,0.0,0.0,0.0,0.0,0.0,0.0,0.0,0.0,0.0,0.0,0.0,0.0,0.0,0.0,0.0,0.0,0.0,0.0,0.0,0.0,0.0,0.0,0.0,0.0,0.0,0.0,0.0,-3.0508,-3.0612,0.0,0.0,0.0,0.0,0.0,0.0,0.0,0.0,-2.9829,0.0,0.0,0.0,0.0,0.0,0.0,0.0,0.0,0.0,0.0,0.0,0.0,0.0,0.0,0.0,0.0,0.0,0.0,0.0,0.0,0.0,0.0,0.0,0.0,0.0,0.0,0.0,0.0,0.0,0.0,0.0,0.0,0.0,0.0,0.0,0.0,0.0,0.0,0.0,0.0,0.0,0.0,0.0,0.0,0.0,0.0,0.0,0.0,0.0,0.0,0.0,0.0,0.0,0.0,0.0,0.0,-2.8777,-2.8535,-2.7969,-2.6997,-2.6823,-2.67,-2.6694,-2.7509,-2.8253,-2.8815,0.0,0.0,0.0,0.0,0.0,0.0,0.0,0.0,0.0,0.0,0.0,0.0,0.0,0.0,0.0,0.0,0.0,0.0,0.0,0.0,0.0,0.0,0.0,0.0,0.0,0.0,0.0,0.0,0.0,0.0,0.0,0.0,0.0,0.0,0.0,0.0,0.0,0.0,0.0,-3.0148,-3.0202,0.0,0.0,0.0,0.0,0.0,0.0,0.0,0.0,-2.9175,0.0,0.0,0.0,0.0,0.0,0.0,0.0,0.0,0.0,0.0,0.0,0.0,0.0,0.0,0.0,0.0,0.0,0.0,0.0,0.0,0.0,0.0,0.0,0.0,0.0,0.0,0.0,0.0,0.0,0.0,0.0,0.0,0.0,0.0,0.0,0.0,0.0,0.0,0.0,0.0,0.0,0.0,0.0,0.0,0.0,0.0,0.0,0.0,0.0,0.0,0.0,0.0,0.0,0.0,0.0,-2.8779,-2.8394,-2.7834,-2.7136,-2.6881,-2.6892,-2.7171,-2.7777,-2.8502,0.0,0.0,0.0,0.0,0.0,0.0,0.0,0.0,0.0,0.0,0.0,0.0,0.0,0.0,0.0,0.0,0.0,0.0,0.0,0.0,0.0,0.0,0.0,0.0,0.0,0.0,0.0,0.0,0.0,0.0,0.0,0.0,0.0,0.0,0.0,0.0,0.0,0.0,0.0,0.0,-2.9511,-2.9356,-2.8445,0.0,0.0,0.0,0.0,0.0,0.0,-2.8772,-2.8929,0.0,0.0,0.0,0.0,0.0,0.0,0.0,0.0,0.0,0.0,0.0,0.0,0.0,0.0,0.0,0.0,0.0,0.0,0.0,0.0,0.0,0.0,0.0,0.0,0.0,0.0,0.0,0.0,0.0,0.0,0.0,0.0,0.0,0.0,0.0,0.0,0.0,0.0,0.0,0.0,0.0,0.0,0.0,0.0,0.0,0.0,0.0,0.0,0.0,0.0,0.0,0.0,0.0,0.0,0.0,-2.8773,-2.8316,-2.7861,-2.7376,-2.7148,-2.7312,-2.794,-2.8218,-2.8877,0.0,0.0,0.0,0.0,0.0,0.0,0.0,0.0,0.0,0.0,0.0,0.0,0.0,0.0,0.0,0.0,0.0,0.0,0.0,0.0,0.0,0.0,0.0,0.0,0.0,0.0,0.0,0.0,0.0,0.0,0.0,0.0,0.0,0.0,0.0,0.0,0.0,0.0,0.0,0.0,0.0,-2.8496,-2.7599,-2.8092,0.0,0.0,0.0,0.0,-2.8255,-2.8289,0.0,0.0,0.0,0.0,0.0,0.0,0.0,0.0,0.0,0.0,0.0,0.0,0.0,0.0,0.0,0.0,0.0,0.0,0.0,0.0,0.0,0.0,0.0,0.0,0.0,0.0,0.0,0.0,0.0,0.0,0.0,0.0,0.0,0.0,0.0,0.0,0.0,0.0,0.0,0.0,0.0,0.0,0.0,0.0,0.0,0.0,0.0,0.0,0.0,0.0,0.0,0.0,0.0,0.0,0.0,0.0,-2.8376,-2.8129,-2.8029,-2.8004,-2.8146,-2.8395,-2.8847,-2.9178,-2.955,0.0,0.0,0.0,0.0,0.0,0.0,0.0,0.0,0.0,0.0,0.0,0.0,0.0,0.0,0.0,0.0,0.0,0.0,0.0,0.0,0.0,0.0,0.0,0.0,0.0,0.0,0.0,0.0,0.0,0.0,0.0,0.0,0.0,0.0,0.0,0.0,0.0,0.0,0.0,0.0,0.0,-2.8385,-2.7447,-2.7999,-2.8263,0.0,0.0,-2.7201,-2.6525,-2.6422,0.0,0.0,0.0,0.0,0.0,0.0,0.0,0.0,0.0,0.0,0.0,0.0,0.0,0.0,0.0,0.0,0.0,0.0,0.0,0.0,0.0,0.0,0.0,0.0,0.0,0.0,0.0,0.0,0.0,0.0,0.0,0.0,0.0,0.0,0.0,0.0,0.0,0.0,0.0,0.0,0.0,0.0,0.0,0.0,0.0,0.0,0.0,0.0,0.0,0.0,0.0,0.0,0.0,0.0,0.0,-2.8892,-2.8482,-2.8507,-2.8456,-2.8326,-2.8533,-2.8755,-2.9062,-2.9314,-2.9607,0.0,0.0,0.0,0.0,0.0,0.0,0.0,0.0,0.0,0.0,0.0,0.0,0.0,0.0,0.0,0.0,0.0,0.0,0.0,0.0,0.0,0.0,0.0,0.0,0.0,0.0,0.0,0.0,0.0,0.0,0.0,0.0,0.0,0.0,0.0,0.0,0.0,0.0,0.0,0.0,0.0,0.0,-2.7242,-2.704,0.0,0.0,0.0,-2.6461,-2.6637,0.0,0.0,0.0,0.0,0.0,0.0,0.0,0.0,0.0,0.0,0.0,0.0,0.0,0.0,0.0,0.0,0.0,0.0,0.0,0.0,0.0,0.0,0.0,0.0,0.0,0.0,0.0,0.0,0.0,0.0,0.0,0.0,0.0,0.0,0.0,0.0,0.0,0.0,0.0,0.0,0.0,0.0,0.0,0.0,0.0,0.0,0.0,0.0,0.0,0.0,0.0,0.0,0.0,0.0,0.0,0.0,0.0,-2.8737,-2.8815,-2.881,-2.8619,-2.8821,-2.9007,-2.9163,-2.9411,0.0,0.0,0.0,0.0,0.0,0.0,0.0,0.0,0.0,0.0,0.0,0.0,0.0,0.0,0.0,0.0,0.0,0.0,0.0,0.0,0.0,0.0,0.0,0.0,0.0,0.0,0.0,-3.0801,0.0,0.0,0.0,0.0,0.0,0.0,0.0,0.0,0.0,0.0,0.0,0.0,0.0,0.0,-2.7006,-2.6784,-2.6153,-2.5633,0.0,0.0,-2.5874,-2.6372,-2.6074,-2.6278,0.0,0.0,0.0,0.0,0.0,0.0,0.0,0.0,0.0,0.0,0.0,0.0,0.0,0.0,0.0,0.0,0.0,0.0,0.0,0.0,0.0,0.0,0.0,0.0,0.0,0.0,0.0,0.0,0.0,0.0,0.0,0.0,0.0,0.0,0.0,0.0,0.0,0.0,0.0,0.0,0.0,0.0,0.0,0.0,0.0,0.0,0.0,0.0,0.0,0.0,0.0,0.0,0.0,0.0,-2.9089,-2.9067,-2.8952,-2.8929,-2.897,-2.9163,-2.9295,-2.9378,-2.968,-3.0,0.0,0.0,0.0,0.0,0.0,0.0,0.0,0.0,0.0,0.0,0.0,0.0,0.0,0.0,0.0,0.0,0.0,0.0,0.0,0.0,0.0,0.0,0.0,0.0,0.0,0.0,0.0,0.0,0.0,0.0,0.0,0.0,0.0,0.0,0.0,0.0,0.0,0.0,0.0,0.0,0.0,-2.6711,-2.5912,-2.5745,-2.5429,0.0,-2.5224,-2.5466,-2.4796,-2.5279,-2.6023,-2.6953,0.0,0.0,0.0,0.0,0.0,0.0,0.0,0.0,0.0,0.0,0.0,0.0,0.0,0.0,0.0,0.0,0.0,0.0,0.0,0.0,0.0,0.0,0.0,0.0,0.0,0.0,0.0,0.0,0.0,0.0,0.0,0.0,0.0,0.0,0.0,0.0,0.0,0.0,0.0,0.0,0.0,0.0,0.0,0.0,0.0,0.0,0.0,0.0,0.0,0.0,0.0,0.0,0.0,-2.92,-2.9044,-2.9134,-2.9156,-2.9085,-2.9265,-2.9351,-2.9373,-2.9662,-2.9912,0.0,0.0,0.0,0.0,0.0,0.0,0.0,0.0,0.0,0.0,0.0,0.0,0.0,0.0,0.0,0.0,0.0,0.0,0.0,0.0,0.0,0.0,0.0,0.0,0.0,0.0,0.0,0.0,-3.0664,-3.0637,-3.0585,0.0,0.0,0.0,0.0,0.0,0.0,0.0,0.0,0.0,0.0,-2.6637,-2.5819,-2.528,0.0,0.0,-2.5503,-2.5764,-2.5968,-2.6247,-2.6712,-2.7549,-2.8035,0.0,0.0,0.0,0.0,0.0,0.0,0.0,0.0,0.0,0.0,0.0,0.0,0.0,0.0,0.0,0.0,0.0,0.0,0.0,0.0,0.0,0.0,0.0,0.0,0.0,0.0,0.0,0.0,0.0,0.0,0.0,0.0,0.0,0.0,0.0,0.0,0.0,0.0,0.0,0.0,0.0,0.0,0.0,0.0,0.0,0.0,0.0,0.0,0.0,0.0,0.0,0.0,-2.9304,-2.9134,-2.9304,-2.9326,-2.9197,-2.9388,-2.9491,-2.9551,-2.9767,-2.9973,0.0,0.0,0.0,0.0,0.0,0.0,0.0,0.0,0.0,0.0,0.0,0.0,0.0,0.0,0.0,0.0,0.0,0.0,0.0,0.0,0.0,0.0,0.0,0.0,0.0,0.0,0.0,0.0,-3.0574,-3.0501,-3.0422,0.0,0.0,0.0,0.0,0.0,0.0,0.0,0.0,0.0,0.0,-2.6265,-2.5448,-2.4871,-2.4704,-2.5262,-2.5559,-2.5912,-2.6488,-2.6972,-2.7493,-2.8031,0.0,0.0,0.0,0.0,0.0,0.0,0.0,0.0,0.0,0.0,0.0,0.0,0.0,0.0,0.0,0.0,0.0,0.0,0.0,0.0,0.0,0.0,0.0,0.0,0.0,0.0,0.0,0.0,0.0,0.0,-3.0491,0.0,0.0,0.0,0.0,0.0,0.0,0.0,0.0,0.0,0.0,0.0,0.0,0.0,0.0,0.0,0.0,0.0,0.0,0.0,0.0,0.0,0.0,-2.9407,-2.9386,-2.9407,-2.9407,-2.9407,-2.9513,-2.968,-2.9869,-3.0022,-3.0222,-3.0469,0.0,0.0,0.0,0.0,0.0,0.0,0.0,0.0,0.0,0.0,0.0,0.0,0.0,0.0,0.0,0.0,0.0,0.0,0.0,0.0,0.0,0.0,0.0,0.0,0.0,0.0,-3.0595,-3.0482,-3.0352,0.0,0.0,0.0,0.0,0.0,0.0,0.0,0.0,0.0,-2.7028,-2.6247,-2.5448,-2.4648,-2.45,-2.4518,-2.4574,-2.5224,-2.5763,-2.5873,-2.7177,-2.8183,0.0,0.0,0.0,0.0,0.0,0.0,0.0,0.0,0.0,0.0,0.0,0.0,0.0,0.0,0.0,0.0,0.0,0.0,0.0,0.0,0.0,0.0,0.0,0.0,0.0,0.0,0.0,-3.1241,-3.1317,0.0,0.0,0.0,0.0,0.0,0.0,0.0,0.0,0.0,0.0,0.0,-3.3353,-3.2452,0.0,0.0,0.0,0.0,0.0,0.0,0.0,0.0,0.0,0.0,0.0,0.0,-2.9388,-2.9411,-2.9492,-2.9532,-2.9532,-2.9698,-2.9836,-2.9902,-3.0037,-3.0253,-3.0558,0.0,0.0,0.0,0.0,0.0,0.0,0.0,0.0,0.0,0.0,0.0,0.0,0.0,0.0,0.0,0.0,0.0,0.0,0.0,0.0,0.0,0.0,0.0,0.0,0.0,-3.053,0.0,0.0,0.0,0.0,0.0,0.0,0.0,0.0,0.0,0.0,0.0,-2.7084,-2.621,-2.5875,-2.541,-2.4611,-2.45,-2.4685,0.0,0.0,0.0,0.0,0.0,0.0,0.0,0.0,0.0,0.0,0.0,0.0,0.0,0.0,-3.0166,-3.0171,-3.0152,-3.009,-2.9972,0.0,0.0,0.0,0.0,0.0,0.0,0.0,0.0,0.0,0.0,0.0,0.0,0.0,0.0,-3.2134,0.0,-3.2355,0.0,0.0,0.0,0.0,0.0,0.0,0.0,0.0,-3.4072,-3.4388,-3.426,-3.307,-3.2507,0.0,-3.1018,-3.0173,0.0,0.0,0.0,0.0,0.0,0.0,0.0,0.0,-2.9549,-2.9551,-2.9644,-2.9697,-2.9716,-2.9867,-2.9981,-2.9962,-3.0163,-3.0353,-3.0605,-3.0716,-3.0779,0.0,0.0,0.0,0.0,0.0,0.0,0.0,0.0,0.0,0.0,0.0,0.0,0.0,0.0,0.0,0.0,0.0,0.0,0.0,0.0,0.0,0.0,0.0,-3.0016,0.0,0.0,0.0,0.0,0.0,0.0,0.0,0.0,0.0,-2.8278,-2.7289,-2.6339,-2.5782,-2.5466,-2.5094,-2.4574,0.0,0.0,0.0,0.0,0.0,0.0,0.0,-2.9097,-2.9455,-2.955,-2.9645,-2.9789,-2.9984,-3.0166,-3.0247,0.0,0.0,-3.0152,-3.0174,-3.0161,-2.9921,-2.9905,-2.9869,-2.9773,-2.9719,-2.9737,0.0,0.0,0.0,0.0,0.0,0.0,0.0,0.0,-3.2757,-3.2885,0.0,-3.2968,0.0,0.0,0.0,0.0,0.0,-3.3878,0.0,0.0,-3.4856,-3.5155,-3.4931,-3.332,-3.2523,-3.2431,-3.1493,-3.0728,-3.0113,-2.9786,0.0,0.0,0.0,0.0,0.0,0.0,-2.9808,-2.9789,-2.9872,-2.9921,-2.9902,-3.0037,-3.0122,-3.0117,-3.0381,-3.0576,-3.0682,-3.0697,-3.0739,-3.0799,-3.0784,0.0,0.0,0.0,0.0,0.0,0.0,0.0,0.0,0.0,0.0,0.0,0.0,0.0,0.0,0.0,0.0,0.0,0.0,0.0,0.0,-2.9226,0.0,0.0,0.0,0.0,0.0,0.0,0.0,0.0,0.0,0.0,-2.8204,-2.6767,-2.5671,-2.5652,0.0,0.0,0.0,0.0,-2.4592,-2.463,-2.528,-2.6135,-2.7008,-2.7793,-2.8576,-2.938,0.0,0.0,-2.9767,-3.0026,-3.0266,-3.0405,-3.0475,-3.0369,-3.0166,-3.0251,-3.0194,-2.9918,-2.9915,-2.9946,-2.9834,-2.9806,-2.9808,-3.1823,0.0,0.0,0.0,0.0,-3.1463,-3.1632,-3.1905,-3.2588,-3.2891,-3.2968,-3.4225,0.0,0.0,0.0,0.0,0.0,0.0,-3.5048,-3.5053,-3.5254,-3.5043,-3.4443,-3.3752,-3.2908,-3.1903,-3.1013,-3.0509,-3.0305,-3.0085,-2.9915,-2.9874,0.0,0.0,0.0,0.0,-2.9855,-2.994,-3.0011,-3.0052,-3.0052,-3.0228,-3.034,-3.0392,-3.0545,-3.0656,-3.0711,-3.0743,-3.0785,-3.0801,-3.0785,0.0,0.0,0.0,0.0,0.0,0.0,0.0,0.0,0.0,0.0,0.0,0.0,0.0,0.0,0.0,0.0,0.0,0.0,0.0,-3.0095,-2.8991,-2.8744,0.0,0.0,0.0,0.0,0.0,0.0,0.0,0.0,0.0,-2.8163,-2.6318,-2.4853,0.0,0.0,-2.5373,-2.5355,-2.5856,-2.621,-2.621,-2.6897,0.0,-2.783,-2.8652,-2.9382,-2.9662,-2.9853,-3.0026,-3.0133,-3.026,-3.0559,-3.1184,-3.1345,-3.1462,-3.1832,-3.0994,-3.0272,-3.0152,-2.9996,-2.9869,-2.9861,-2.9827,-2.9827,-3.157,-3.1976,-3.204,-3.186,-3.1525,-3.1663,-3.1844,-3.2034,-3.2653,-3.2885,-3.2949,-3.4,-3.4077,-3.3487,-3.4866,0.0,0.0,0.0,-3.5427,-3.5427,-3.5081,-3.4653,-3.416,-3.3346,-3.2538,-3.1718,-3.1098,-3.0657,-3.0398,-3.0513,-3.0409,-3.0075,0.0,0.0,-3.0019,-3.0015,-3.0026,-3.0128,-3.0222,-3.0259,-3.0278,-3.0411,-3.05,-3.0571,-3.0658,-3.0703,-3.0755,-3.079,-3.0798,-3.0761,-3.0802,-3.0788,0.0,0.0,0.0,0.0,0.0,0.0,0.0,0.0,0.0,0.0,0.0,-3.3564,-3.2687,0.0,0.0,0.0,-3.1321,-3.0859,-3.0447,-2.949,0.0,0.0,0.0,0.0,0.0,0.0,0.0,-2.8755,-2.7842,-2.7369,-2.7954,-2.6653,-2.5602,-2.5465,-2.5875,-2.6172,-2.6172,0.0,-2.6897,-2.6897,-2.7306,-2.7791,-2.8241,-2.8818,-2.9338,-2.9799,-3.0056,-3.0196,-3.026,-3.0592,-3.1087,-3.1573,-3.1715,-3.1838,-3.2326,-3.1219,-3.0145,-3.0008,-3.0572,-3.0871,-3.0231,-3.0254,-3.0402,-3.1096,-3.2009,-3.2108,-3.209,-3.207,-3.2444,-3.2507,-3.2454,-3.2672,-3.2814,-3.2795,-3.2872,-3.3333,-3.4122,-3.493,0.0,-3.5301,-3.5295,-3.5262,-3.5262,-3.4468,-3.4064,-3.393,-3.2449,-3.1679,-3.1602,-3.1402,-3.1,-3.0456,-3.0953,-3.092,-3.0336,-3.015,-3.0114,-3.0213,-3.0279,-3.0318,-3.033,-3.0462,-3.051,-3.051,-3.0571,-3.0639,-3.0696,-3.0693,-3.0736,-3.0801,-3.0799,-3.0754,-3.0701,-3.0755,-3.0769,-3.0736,0.0,0.0,0.0,0.0,0.0,0.0,0.0,0.0,0.0,0.0,0.0,0.0,0.0,0.0,0.0,-3.2241,0.0,-3.0466,-3.0337,0.0,0.0,0.0,-3.0183,-3.0106,-3.0048,-2.9729,-2.8987,0.0,0.0,-2.7804,-2.7609,-2.7422,-2.7177,-2.7084,-2.7028,-2.7047,-2.7121,-2.7102,-2.7252,-2.7196,-2.7531,-2.8531,-2.8711,-2.9039,-2.9893,-3.0117,-3.0235,-3.0292,-3.0905,-3.1534,-3.17,-3.1711,-3.1791,-3.1881,-3.1245,-3.0337,-2.9865,-3.1245,-3.216,-3.0688,-3.0789,-3.1013,-3.0358,-3.1205,-3.149,-3.1572,-3.1575,-3.1669,-3.1407,-3.0983,-3.1674,-3.1987,-3.2045,-3.2622,-3.3026,-3.3218,-3.343,-3.3526,-3.3526,-3.3506,-3.3506,-3.3506,-3.3314,-3.2891,-3.2295,-3.2076,-3.1545,-3.0744,-3.0662,-3.0566,-3.041,-3.059,-3.0614,-3.0452,-3.0462,-3.0443,-3.0428,-3.0458,-3.0462,-3.0524,-3.0548,-3.0583,-3.0571,-3.0638,-3.0664,-3.0693,-3.0761,-3.0793,-3.079,-3.0755,-3.0713,-3.0701,-3.0725,-3.0697,-3.071,-3.2154,0.0,0.0,0.0,0.0,0.0,0.0,0.0,0.0,0.0,-3.5324,-3.4452,0.0,-3.4024,0.0,-3.1798,-3.0743,-3.0414,-2.9794,0.0,0.0,-2.9747,-2.937,-2.9295,-2.8751,-2.8521,-2.8925,-2.8434,-2.8396,-2.9351,-2.8903,-2.8658,-2.9103,-2.8534,-2.8106,-2.8242,-2.8686,-2.9007,-2.9108,-2.9106,-2.929,-2.9535,-2.9722,-2.9874,-3.0247,-3.034,-3.0364,-3.0425,-3.0601,-3.1,-3.16,-3.1733,-3.1976,-3.2617,-3.2557,-3.2196,-3.168,-3.1219,-3.0726,-3.0433,-3.0522,-3.0522,-3.111,-3.1703,-3.1901,-3.2005,-3.2048,-3.2067,-3.1853,-3.1564,-3.2045,-3.2237,-3.2295,-3.3103,-3.3276,-3.2929,-3.3295,-3.3256,-3.291,-3.2891,-3.2891,-3.2872,-3.2526,-3.2122,-3.1698,-3.1468,-3.1006,-3.041,-3.0417,-3.0449,-3.0449,-3.0519,-3.0543,-3.0543,-3.0571,-3.0605,-3.0603,-3.0563,-3.056,-3.0613,-3.0631,-3.0667,-3.0693,-3.0715,-3.0742,-3.0742,-3.0765,-3.0758,-3.0758,-3.0726,-3.0697,-3.0711,-3.0697,-3.069,-3.0729,-3.2361,-3.3301,0.0,0.0,0.0,0.0,0.0,0.0,0.0,0.0,0.0,0.0,0.0,-3.4262,-3.3329,-3.2286,-3.1642,-3.1561,-3.0768,-3.0448,-3.0867,-3.0163,-2.9663,-2.9632,-2.924,-2.9137,-2.9555,-2.9217,-2.9282,-3.01,-2.9813,-2.9646,-3.0084,-2.9607,-2.9197,-2.9254,-2.955,-2.9834,-2.9927,-2.9946,-2.9977,-3.0109,-3.0248,-3.0383,-3.046,-3.0471,-3.049,-3.05,-3.0828,-3.1234,-3.1658,-3.1744,-3.189,-3.2405,-3.2222,-3.1893,-3.1554,-3.0901,-3.0429,-3.046,-3.076,-3.0906,-3.2425,-3.2837,-3.2775,-3.2861,-3.3064,-3.2949,-3.2891,-3.2891,-3.2795,-3.2692,-3.2646,-3.3422,-3.3326,-3.2671,-3.3403,-3.3326,-3.2613,-3.2594,-3.2594,-3.2555,-3.1881,-3.1553,-3.1515,-3.0802,-3.0436,-3.0436,-3.0492,-3.0519,-3.0519,-3.0571,-3.0607,-3.0607,-3.062,-3.0656,-3.0704,-3.0661,-3.0613,-3.0619,-3.0664,-3.0737,-3.08,-3.079,-3.0796,-3.0794,-3.0739,-3.0697,-3.0711,-3.0704,-3.069,-3.069,-3.069,-3.069,-3.0729,-3.2341,-3.3293,0.0,-3.4924,0.0,0.0,0.0,0.0,0.0,0.0,0.0,0.0,-3.4596,-3.4106,-3.313,-3.2938,-3.2801,-3.2686,-3.1985,-3.1537,-3.1506,-3.0871,-3.0398,-3.0398,-3.0398,-3.0398,-3.0398,-3.0398,-3.0398,-3.0398,-3.0394,-3.0386,-3.0364,-3.0278,-3.0081,-2.9999,-3.0003,-3.0018,-3.0052,-3.0066,-3.0169,-3.0304,-3.0428,-3.052,-3.0588,-3.0588,-3.0569,-3.052,-3.11,-3.1592,-3.1551,-3.1534,-3.1621,-3.1641,-3.1081,-3.0675,-3.0694,-3.0627,-3.0579,-3.0646,-3.1033,-3.1371,-3.3004,-3.3597,-3.3081,-3.3269,-3.3891,-3.3199,-3.2891,-3.2852,-3.2218,-3.1546,-3.0975,-3.1194,-3.1208,-3.1053,-3.1208,-3.12,-3.1053,-3.1033,-3.1053,-3.1033,-3.0878,-3.0801,-3.0801,-3.0645,-3.0568,-3.0568,-3.0583,-3.0571,-3.0591,-3.0645,-3.0697,-3.0677,-3.0732,-3.076,-3.0778,0.0,0.0,0.0,-3.0762,-3.0795,-3.0788,-3.0785,-3.0786,-3.0715,-3.0703,0.0,-3.0711,-3.0697,-3.069,-3.069,-3.069,0.0,0.0,0.0,0.0,0.0,0.0,0.0,0.0,0.0,0.0,0.0,-3.4921,-3.4878,-3.4697,-3.4008,-3.319,-3.2325,-3.2142,-3.1798,-3.1052,-3.082,-3.0702,-3.0633,-3.0506,-3.0398,-3.0398,-3.0398,-3.0398,-3.0398,-3.0398,-3.0398,-3.041,-3.039,-3.039,-3.0402,-3.0425,-3.0436,-3.0383,-3.026,-3.0209,-3.0356,-3.0428,-3.0469,-3.0458,-3.049,-3.052,-3.052,-3.052,-3.055,-3.0588,-3.0685,-3.084,-3.083,-3.082,-3.0859,-3.084,-3.0714,-3.0617,-3.0617,-3.0617,-3.0617,-3.0617,-3.0714,-3.0772,-3.2943,0.0,-3.3038,-3.3179,0.0,-3.3141,-3.299,-3.3014,-3.2566,-3.2153,-3.1842,-3.1864,-3.1654,-3.1254,-3.1254,-3.1001,-3.0613,-3.0613,-3.0613,-3.0613,-3.0613,-3.0613,-3.0613,-3.0613,-3.0613,-3.0613,-3.0633,-3.0645,-3.065,-3.07,-3.0743,-3.0762,-3.0799,-3.08,-3.0796,-3.0767,-3.0771,-3.08,-3.0762,-3.0749,-3.0755,-3.075,-3.0728,-3.0703,-3.0711,0.0,0.0,0.0,0.0,0.0,0.0,0.0,0.0,-3.2341,0.0,-3.3332,-3.4882,-3.5823,-3.5823,-3.5489,-3.5059,-3.4639,-3.388,-3.3408,-3.3414,-3.258,-3.1874,-3.1393,-3.1343,-3.1099,-3.0558,-3.0482,-3.0472,-3.0421,-3.0398,-3.0402,-3.0439,-3.0425,-3.0414,-3.0439,-3.0425,-3.0398,-3.0398,-3.0458,-3.0507,-3.0494,-3.0569,-3.0597,-3.0588,-3.0469,-3.043,-3.053,-3.0608,-3.0627,-3.0608,-3.0608,-3.0579,-3.0598,-3.0598,-3.0617,-3.0656,-3.0656,-3.0636,-3.0617,-3.0617,-3.0636,-3.0617,-3.0617,-3.0636,-3.0646,-3.0657,-3.0671,-3.0683,-3.0668,-3.0656,-3.2732,-3.2891,-3.2743,-3.2744,-3.2773,-3.2619,-3.2637,-3.2749,0.0,0.0,0.0,-3.2764,-3.2363,-3.1696,-3.1696,-3.1307,-3.0652,-3.0652,-3.0633,-3.0633,-3.0633,-3.0633,-3.0633,-3.0625,-3.0631,-3.0631,-3.0685,-3.0703,-3.0726,-3.076,-3.08,-3.08,-3.079,-3.0799,-3.0791,-3.0735,-3.0724,-3.0784,-3.0728,-3.0706,-3.0712,-3.0703,-3.0697,-3.069,-3.069,-3.069,-3.069,-3.069,-3.069,-3.069,-3.069,-3.069,-3.0749,-3.2361,-3.3293,-3.3371,-3.4863,-3.5737,-3.5585,-3.4956,-3.4447,-3.4158,-3.2739,-3.1855,-3.1864,-3.1214,-3.0791,-3.0743,-3.072,-3.0661,-3.0552,-3.0535,-3.051,-3.0439,-3.0428,-3.0451,-3.051,-3.0472,-3.0471,-3.0482,-3.0471,-3.0433,-3.0448,-3.0528,-3.0617,-3.0617,-3.0649,-3.071,-3.0679,-3.0635,-3.0607,-3.0613,-3.0494,-3.0419,-3.0438,-3.0206,-3.0255,-3.007,-3.0148,-3.0236,-3.0236,-3.0236,-3.0217,-3.004,-3.0199,-3.0143,-3.015,-3.007,-3.0363,-3.0646,-3.0579,-3.0569,-3.0774,-3.0788,-3.0737,-3.2859,-3.2865,-3.2218,-3.1951,-3.1913,-3.1239,-3.0989,-3.112,-3.183,-3.1732,-3.1047,-3.1106,-3.1058,-3.0963,-3.0944,-3.0885,-3.0768,-3.0768,-3.0768,-3.0788,-3.0768,-3.0768,-3.0771,-3.0772,-3.0778,-3.0779,-3.08,-3.0774,-3.0793,-3.079,-3.0786,-3.0786,-3.0801,-3.0768,-3.0735,-3.0703,-3.0698,-3.071,-3.071,-3.0704,-3.0698,-3.0691,-3.0704,-3.069,-3.071,-3.069,-3.069,-3.071,-3.069,-3.069,-3.069,-3.069,-3.0749,-3.2341,-3.3293,-3.339,-3.4866,-3.5488,-3.4734,-3.4571,-3.39,-3.2478,-3.1451,-3.0927,-3.0976,-3.087,-3.0799,-3.0774,-3.0774,-3.0742,-3.0677,-3.0661,-3.0633,-3.0583,-3.0556,-3.0583,-3.0598,-3.0583,-3.056,-3.0574,-3.0595,-3.0569,-3.0571,-3.059,-3.0617,-3.061,-3.0593,-3.0658,-3.0639,-3.07,-3.0696,-3.058,-3.0039,-2.9649,-2.9532,-2.8924,-2.8704,-2.8451,-2.8588,-2.8685,-2.8685,-2.871,-2.871,-2.8529,-2.8662,-2.8605,-2.8553,-2.8451,-2.9142,-3.0153,-3.0075,-2.9906,-3.0511,-3.0687,-3.0735,-3.1611,-3.1613,-3.1291,-3.1165,-3.117,-3.0847,-3.0724,-3.0781,-3.1188,-3.1129,-3.0781,-3.0796,-3.0801,-3.0801,-3.0793,-3.0796,-3.0797,-3.0801,-3.08,-3.08,-3.0801,-3.0801,-3.08,-3.0798,-3.0795,-3.0795,-3.0786,-3.0801,-3.0799,-3.0765,-3.0735,-3.0751,-3.0754,-3.0725,-3.0697,-3.0711,-3.0676,-3.0645,-3.0664,-3.0697,-3.069,-3.0668,-3.0653,-3.0645,-3.0574,-3.0528,-3.0548,-3.0548,-3.0543,-3.0535,-3.0552,-3.0548,-3.0567,-3.1748,-3.2638,-3.3122,-3.4332,-3.4872,-3.447,-3.3643,-3.2616,-3.1397,-3.0939,-3.07,-3.0735,-3.0776,-3.0801,-3.0797,-3.0797,-3.0786,-3.07,-3.0711,-3.0667,-3.062,-3.0613,-3.0633,-3.0639,-3.0614,-3.06,-3.0633,-3.0625,-3.0602,-3.0608,-3.0635,-3.0655,-3.0625,-3.0401,-3.0144,-3.0068,-2.9656,-2.9535,-2.9866,-2.9362,-2.8867,-2.8774,-2.8498,-2.8244,-2.8205,-2.8205,-2.8205,-2.8205,-2.8207,-2.8166,-2.8166,-2.8158,-2.8184,-2.8126,-2.8178,-2.861,-2.8977,-2.9152,-2.9097,-2.9396,-2.9453,-2.9762,-3.0554,-3.0613,-3.0614,-3.0656,-3.0747,-3.0771,-3.0784,-3.0788,-3.0808,-3.0792,-3.0793,-3.0786,-3.0784,-3.079,-3.08,-3.0801,-3.0799,-3.079,-3.0801,-3.0801,-3.0801,-3.0801,-3.0799,-3.0794,-3.0771,-3.0768,-3.0785,-3.0758,-3.0755,-3.0726,-3.0706,-3.07,-3.0685,-3.0676,-3.0676,-3.0642,-3.061,-3.0558,-3.061,-3.0653,-3.0634,-3.0585,-3.0558,-3.0549,-3.0462,-3.0383,-3.0383,-3.0383,-3.0405,-3.0405,-3.0395,-3.0392,-3.0425,-3.124,-3.2003,-3.269,-3.3585,-3.4081,-3.4026,-3.2773,-3.1666,-3.1059,-3.0814,-3.0706,-3.0706,-3.0743,-3.0796,-3.0798,-3.08,-3.078,-3.0735,-3.0729,-3.0696,-3.0653,-3.0619,-3.065,-3.0687,-3.065,-3.0657,-3.068,-3.0637,-3.0623,-3.0646,-3.0682,-3.0603,-3.0328,-2.9911,-2.9526,-2.9262,-2.8496,-2.8279,-2.8546,-2.8367,-2.8026,-2.7985,-2.7731,-2.7614,-2.7692,-2.7634,-2.7517,-2.7536,-2.7633,-2.7653,-2.7498,-2.7575,-2.7498,-2.7571,-2.7591,-2.7597,-2.7675,-2.7773,-2.8065,-2.8376,-2.8392,-2.861,-3.0535,-3.06,-3.0661,-3.0728,-3.0796,-3.0801,-3.0793,-3.08,-3.0801,-3.08,-3.0793,-3.0797,-3.0793,-3.08,-3.0801,-3.0798,-3.0786,-3.0801,-3.0799,-3.0799,-3.0801,-3.0801,-3.0796,-3.0728,-3.0711,-3.0706,-3.0703,-3.0704,-3.0724,-3.0711,-3.0704,-3.0697,-3.0626,-3.0604,-3.0604,-3.0501,-3.0423,-3.0413,-3.0423,-3.0423,-3.0423,-3.0423,-3.0432,-3.0393,-3.0413,-3.0383,-3.0392,-3.0383,-3.0393,-3.0384,-3.0393,-3.0383,-3.0471,-3.121,-3.1733,-3.1868,-3.2662,-3.3149,-3.3161,-3.2339,-3.1786,-3.1821,-3.1098,-3.0704,-3.0704,-3.0711,-3.0745,-3.0768,-3.0784,-3.0795,-3.0801,-3.0779,-3.0779,-3.076,-3.0722,-3.0689,-3.0693,-3.0704,-3.0706,-3.0699,-3.0683,-3.0703,-3.0749,-3.0721,-3.0381,-2.9737,-2.9462,-2.9042,-2.8391,-2.7577,-2.7012,-2.7142,-2.7031,-2.7016,-2.6961,-2.6337,-2.6178,-2.6022,-2.5921,-2.6054,-2.6128,-2.6077,-2.5866,-2.6275,-2.6054,-2.6091,-2.6019,-2.585,-2.5964,-2.626,-2.6654,-2.7231,-2.792,-2.8024,-2.8154,-3.065,-3.07,-3.0739,-3.0782,-3.0797,-3.0801,-3.0799,-3.0793,-3.0793,-3.079,-3.0784,-3.0797,-3.0799,-3.0793,-3.0762,-3.0746,-3.0732,-3.0726,-3.075,-3.075,-3.073,-3.073,-3.075,-3.0709,-3.0691,-3.0691,-3.0704,-3.069,-3.071,-3.068,-3.0602,-3.0539,-3.0492,-3.0472,-3.0472,-3.0423,-3.0381,-3.0344,-3.0344,-3.0321,-3.0292,-3.0321,-3.0344,-3.0344,-3.0297,-3.0279,-3.0279,-3.0279,-3.0279,-3.0279,-3.026,-3.0279,-3.0275,-3.0624,-3.1047,-3.1527,-3.1936,-3.2201,-3.2269,-3.1467,-3.0994,-3.1042,-3.0815,-3.0637,-3.0582,-3.0649,-3.0691,-3.0697,-3.0721,-3.0739,-3.0723,-3.0738,-3.0735,-3.0745,-3.0716,-3.0707,-3.0707,-3.0703,-3.0707,-3.0696,-3.0699,-3.0696,-3.0735,-3.0725,-3.0341,-2.9544,-2.9026,-2.8353,-2.7524,-2.6585,-2.6025,-2.5946,-2.5906,-2.5944,-2.6049,-2.59,-2.5622,-2.559,-2.5526,-2.547,-2.5476,-2.5466,-2.546,-2.5379,-2.5476,-2.5495,-2.5459,-2.5374,-2.5393,-2.5584,-2.549,-2.5981,-2.6356,-2.6427,-2.642,-3.0721,-3.0796,-3.0797,-3.08,-3.0799,-3.0788,-3.0796,-3.0788,-3.0768,-3.0765,-3.0774,-3.0774,-3.0774,-3.0751,-3.073,-3.0697,-3.0695,-3.0698,-3.069,-3.069,-3.069,-3.071,-3.0668,-3.0668,-3.0642,-3.0626,-3.0618,-3.0626,-3.0618,-3.0576,-3.0482,-3.0413,-3.0381,-3.037,-3.037,-3.0367,-3.0321,-3.0279,-3.0286,-3.0247,-3.0213,-3.0247,-3.0267,-3.0273,-3.0226,-3.0204,-3.0204,-3.0204,-3.0204,-3.0204,-3.0204,-3.0204,-3.0204,-3.0204,-3.0472,-3.1083,-3.1388,-3.1546,-3.1638,-3.1018,-3.0664,-3.0687,-3.0626,-3.0482,-3.0482,-3.0528,-3.0565,-3.0519,-3.0552,-3.0581,-3.0696,-3.0691,-3.0687,-3.07,-3.0691,-3.0677,-3.0677,-3.0677,-3.0667,-3.0672,-3.0661,-3.0656,-3.0574,-3.0336,-2.9822,-2.8946,-2.8174,-2.7391,-2.6601,-2.5765,-2.528,-2.525,-2.5187,-2.5231,-2.5418,-2.5455,-2.5455,-2.5456,-2.5358,-2.5313,-2.5325,-2.5332,-2.5311,-2.5254,-2.5436,-2.5681,-2.5806,-2.5704,-2.5841,-2.5867,-2.586,-2.5841,-2.632,-2.5964,-2.5958,-3.0701,-3.0786,-3.0784,-3.0784,-3.0801,-3.0799,-3.0762,-3.0726,-3.0706,-3.07,-3.0717,-3.0711,-3.0704,-3.0691,-3.0695,-3.0695,-3.0704,-3.069,-3.069,-3.069,-3.0683,-3.0661,-3.0604,-3.0604,-3.053,-3.0443,-3.0443,-3.0433,-3.0423,-3.0413,-3.0393,-3.0392,-3.0333,-3.0297,-3.0304,-3.0247,-3.0213,-3.018,-3.0185,-3.0185,-3.0204,-3.0204,-3.0185,-3.0171,-3.0218,-3.0204,-3.0228,-3.0223,-3.0204,-3.0223,-3.019,-3.019,-3.0204,-3.019,-3.0242,-3.0343,-3.0929,-3.1325,-3.1407,-3.1231,-3.1174,-3.1245,-3.0674,-3.0306,-3.0306,-3.0329,-3.0348,-3.0328,-3.0297,-3.0372,-3.0586,-3.0591,-3.0583,-3.0633,-3.0622,-3.0582,-3.0593,-3.0557,-3.0616,-3.0577,-3.0567,-3.0511,-3.0332,-2.9583,-2.8836,-2.795,-2.7063,-2.627,-2.5592,-2.5195,-2.5115,-2.5103,-2.5072,-2.5096,-2.5126,-2.5201,-2.5171,-2.5168,-2.5198,-2.513,-2.5122,-2.5126,-2.5115,-2.5294,-2.5735,-2.6085,-2.6358,-2.667,-2.7026,-2.7127,-2.7069,-2.7069,-2.6782,-2.7268,-2.7189,-3.0758,-3.0799,-3.0739,-3.0728,-3.0747,-3.0735,-3.0728,-3.071,-3.071,-3.0698,-3.0697,-3.069,-3.0668,-3.0637,-3.0622,-3.0664,-3.069,-3.0653,-3.0637,-3.0629,-3.0548,-3.0501,-3.0472,-3.0472,-3.0452,-3.0413,-3.0402,-3.0389,-3.0344,-3.0344,-3.0309,-3.0267,-3.0247,-3.0234,-3.024,-3.0213,-3.0142,-3.0019,-3.0019,-2.9937,-2.9855,-2.9803,-2.9822,-2.982,-2.995,-3.0198,-3.0559,-3.0097,-3.0091,-3.0734,-3.0178,-2.9876,-3.0007,-3.0013,-3.0007,-2.9994,-3.0323,-3.0506,-3.0472,-3.0437,-3.0437,-3.0445,-3.0305,-3.015,-3.0131,-3.0184,-3.0209,-3.0177,-3.0196,-3.0247,-3.0263,-3.0294,-3.0294,-3.0298,-3.0294,-3.029,-3.0278,-3.0266,-3.0285,-3.0266,-3.0285,-3.026,-3.0069,-2.9448,-2.8605,-2.774,-2.6911,-2.6128,-2.5359,-2.5043,-2.5057,-2.4987,-2.4902,-2.4847,-2.4847,-2.5,-2.5084,-2.5061,-2.5056,-2.4994,-2.4981,-2.4955,-2.4923,-2.5485,-2.601,-2.6536,-2.6809,-2.7179,-2.7629,-2.7573,-2.7554,-2.7686,-2.7346,-2.7667,-2.7573,-3.0771,-3.0767,-3.0711,-3.0695,-3.0695,-3.0691,-3.0683,-3.0688,-3.0668,-3.0653,-3.0618,-3.0618,-3.0574,-3.0528,-3.0549,-3.0558,-3.0585,-3.0558,-3.0549,-3.054,-3.0452,-3.0392,-3.037,-3.0359,-3.0367,-3.0344,-3.0333,-3.0316,-3.0267,-3.0254,-3.0234,-3.0218,-3.0142,-3.0113,-3.0113,-3.0049,-2.9937,-2.9839,-2.9805,-2.9734,-2.9608,-2.9608,-2.9551,-2.9533,-2.9635,-2.9914,-3.0396,-3.0133,-3.0279,-3.0804,-3.0354,-2.9927,-2.9814,-2.9809,-2.9787,-2.9717,-2.9806,-2.9822,-2.9716,-2.9716,-2.9735,-2.9753,-2.9888,-2.9969,-2.995,-3.0007,-3.0037,-3.0026,-3.0011,-3.0011,-2.9981,-2.9981,-2.9992,-3.0061,-3.0089,-3.0089,-3.0089,-3.0089,-3.0089,-3.0109,-3.008,-3.0037,-2.9927,-2.9231,-2.8555,-2.7894,-2.7167,-2.6388,-2.5904,-2.5717,-2.5597,-2.5552,-2.559,-2.5564,-2.5606,-2.5759,-2.5277,-2.5139,-2.5055,-2.4955,-2.4964,-2.4911,-2.5148,-2.571,-2.6294,-2.6836,-2.7305,-2.768,-2.7774,-2.7755,-2.7998,-2.8278,-2.8054,-2.7942,-2.7979,-3.0697,-3.0697,-3.069,-3.069,-3.0664,-3.0656,-3.0653,-3.0604,-3.0595,-3.053,-3.0443,-3.0423,-3.0424,-3.0395,-3.0423,-3.0409,-3.0414,-3.0409,-3.0402,-3.0422,-3.0392,-3.0356,-3.0316,-3.0304,-3.0267,-3.0226,-3.0218,-3.0199,-3.0185,-3.0171,-3.0171,-3.0142,-2.9988,-2.9905,-2.9888,-2.977,-2.9626,-2.9589,-2.9608,-2.957,-2.9589,-2.9551,-2.9474,-2.9314,-2.9319,-2.9418,-2.9664,-3.0302,-3.0751,-3.0941,-3.0827,-3.0415,-2.9795,-2.9702,-2.9626,-2.9514,-2.9455,-2.9394,-2.9353,-2.9373,-2.9414,-2.9454,-2.9645,-2.9754,-2.9735,-2.9753,-2.9753,-2.9735,-2.97,-2.9701,-2.9682,-2.9682,-2.9789,-3.0037,-3.0052,-3.0052,-3.0047,-3.0075,-3.0114,-3.0147,-3.0098,-2.9962,-2.9761,-2.9223,-2.8573,-2.8312,-2.7599,-2.7015,-2.6808,-2.6737,-2.6931,-2.6823,-2.6525,-2.6284,-2.6467,-2.6611,-2.5837,-2.5211,-2.512,-2.503,-2.5181,-2.522,-2.5631,-2.6191,-2.7008,-2.7585,-2.818,-2.8511,-2.8621,-2.8658,-2.8836,-2.878,-2.8674,-2.8567,-2.873,-3.0668,-3.0629,-3.0629,-3.0585,-3.0501,-3.0501,-3.0482,-3.0443,-3.0443,-3.0433,-3.0413,-3.0383,-3.0362,-3.0348,-3.0333,-3.0304,-3.0253,-3.026,-3.0292,-3.0309,-3.0279,-3.026,-3.0253,-3.024,-3.0226,-3.0218,-3.0204,-3.0128,-3.0019,-2.9984,-2.9937,-2.9786,-2.9734,-2.9698,-2.9681,-2.9607,-2.9551,-2.9397,-2.9377,-2.9314,-2.9203,-2.9203,-2.916,-2.9093,-2.9097,-2.9119,-2.9237,-2.9978,-3.0967,-3.2101,-3.1565,-3.0849,-3.0224,-3.0108,-2.9872,-2.9312,-2.9295,-2.9267,-2.9175,-2.9203,-2.9228,-2.9191,-2.9293,-2.9334,-2.9316,-2.9336,-2.9355,-2.9336,-2.9314,-2.9293,-2.9293,-2.9293,-2.9492,-2.9789,-2.9823,-2.9823,-2.988,-2.9861,-3.0107,-3.0542,-3.0602,-3.0772,-3.0826,-3.0032,-2.9078,-2.881,-2.7825,-2.7027,-2.6934,-2.7064,-2.684,-2.6782,-2.6762,-2.6884,-2.6903,-2.6903,-2.6518,-2.5943,-2.5723,-2.5429,-2.5502,-2.5515,-2.5972,-2.6615,-2.7445,-2.8128,-2.8758,-2.8997,-2.8929,-2.8997,-2.8868,-2.8909,-2.9067,-2.9038,-2.8883,-3.0557,-3.054,-3.054,-3.0472,-3.0402,-3.0383,-3.0381,-3.0359,-3.0359,-3.0356,-3.0333,-3.0321,-3.0297,-3.0273,-3.0273,-3.0194,-3.0102,-3.0083,-3.0075,-3.0085,-3.018,-3.0204,-3.019,-3.0128,-3.0049,-2.9984,-2.9969,-2.9886,-2.975,-2.9769,-2.9716,-2.9589,-2.9532,-2.9494,-2.9474,-2.9415,-2.9312,-2.9206,-2.9185,-2.9119,-2.9021,-2.8975,-2.8975,-2.8998,-2.8998,-2.9145,-2.9434,-3.0204,-3.1157,-3.2059,-3.1905,-3.1386,-3.0668,-3.0619,-3.0446,-3.0037,-2.9895,-2.9834,-2.9454,-2.9457,-2.931,-2.9126,-2.906,-2.9104,-2.9104,-2.9104,-2.9104,-2.9104,-2.9126,-2.9104,-2.9123,-2.9437,-2.9657,-2.988,-2.964,-2.964,-2.9846,-3.0199,-3.0534,-3.1019,-3.1131,-3.1328,-3.1262,-3.0661,-2.9731,-2.9359,-2.8436,-2.7606,-2.7588,-2.7664,-2.7488,-2.7361,-2.7492,-2.7432,-2.7145,-2.7121,-2.7121,-2.6812,-2.6495,-2.6144,-2.5969,-2.5723,-2.5877,-2.6608,-2.7432,-2.7759,-2.835,-2.8384,-2.8384,-2.856,-2.8658,-2.8504,-2.8402,-2.8428,-2.835,-3.0402,-3.0402,-3.0392,-3.0392,-3.0381,-3.037,-3.0356,-3.0285,-3.0304,-3.0273,-3.0213,-3.0226,-3.0213,-3.0199,-3.0185,-3.0068,-2.9929,-2.9874,-2.9822,-2.9786,-2.9937,-3.0094,-3.0064,-2.9956,-2.9822,-2.9644,-2.9644,-2.957,-2.9514,-2.9533,-2.9533,-2.9416,-2.9314,-2.9272,-2.923,-2.9071,-2.9021,-2.9021,-2.9017,-2.9017,-2.8975,-2.8975,-2.8975,-2.8975,-2.897,-2.9203,-2.9807,-3.0583,-3.1231,-3.1536,-3.2146,-3.1947,-3.1318,-3.118,-3.0899,-3.0628,-3.0848,-3.0329,-2.9904,-2.9642,-2.9521,-2.896,-2.8966,-2.9064,-2.9038,-2.8993,-2.9034,-2.9016,-2.9016,-2.9093,-2.9277,-2.9715,-3.0143,-3.0259,-2.9939,-2.9869,-3.0341,-3.1025,-3.1362,-3.1542,-3.1592,-3.1642,-3.1771,-3.1046,-3.0502,-3.005,-2.942,-2.88,-2.8549,-2.8323,-2.8578,-2.8379,-2.79,-2.7743,-2.7415,-2.7388,-2.7371,-2.7254,-2.6994,-2.6673,-2.6494,-2.6267,-2.6189,-2.6888,-2.7183,-2.7531,-2.7783,-2.7936,-2.7964,-2.8047,-2.7982,-2.776,-2.7771,-2.7936,-2.7946,-3.037,-3.0333,-3.0333,-3.0304,-3.026,-3.026,-3.0247,-3.024,-3.024,-3.0213,-3.0204,-3.0204,-3.019,-3.019,-3.0034,-2.9956,-2.9857,-2.9753,-2.9662,-2.9607,-2.9681,-2.9715,-2.9696,-2.9698,-2.9626,-2.9533,-2.9476,-2.9456,-2.9295,-2.9275,-2.9169,-2.8984,-2.903,-2.8984,-2.8934,-2.891,-2.8929,-2.8929,-2.8929,-2.8929,-2.8952,-2.8952,-2.8975,-2.8975,-2.8725,-2.8692,-2.8971,-2.9885,-3.1375,-3.292,-3.263,-3.2101,-3.1219,-3.0628,-3.0132,-2.9691,-2.9401,-2.9246,-2.9047,-2.9043,-2.8923,-2.8742,-2.8743,-2.8725,-2.8725,-2.8725,-2.8725,-2.8725,-2.8743,-2.8986,-2.9478,-2.9842,-3.0181,-3.0742,-3.0759,-3.0833,-3.1078,-3.1365,-3.1715,-3.233,-3.241,-3.2529,-3.2564,-3.2047,-3.1139,-3.0441,-2.9583,-2.8693,-2.8425,-2.8219,-2.8166,-2.802,-2.7745,-2.7741,-2.7701,-2.7672,-2.7654,-2.7566,-2.7368,-2.7128,-2.7052,-2.708,-2.7186,-2.7502,-2.7113,-2.7234,-2.7517,-2.7742,-2.7701,-2.7396,-2.7457,-2.7348,-2.7547,-2.7725,-2.7648,-3.0304,-3.026,-3.026,-3.0234,-3.0204,-3.0204,-3.0204,-3.0204,-3.0204,-3.0142,-3.0098,-3.0083,-3.0034,-2.9937,-2.9839,-2.9716,-2.9644,-2.9532,-2.9415,-2.9293,-2.9314,-2.9316,-2.9377,-2.9435,-2.9357,-2.9254,-2.9254,-2.9169,-2.9079,-2.9052,-2.898,-2.8905,-2.8881,-2.8863,-2.8858,-2.87,-2.8658,-2.8633,-2.8583,-2.8551,-2.8576,-2.8608,-2.8583,-2.8558,-2.8352,-2.8318,-2.8739,-2.9368,-3.0646,-3.209,-3.218,-3.1575,-3.0815,-3.0273,-2.9807,-2.943,-2.9395,-2.9386,-2.913,-2.9101,-2.8938,-2.8677,-2.8587,-2.8587,-2.8612,-2.8587,-2.8587,-2.8612,-2.8587,-2.8848,-2.9238,-2.9755,-3.0592,-3.1556,-3.1823,-3.1755,-3.1592,-3.1727,-3.2025,-3.2423,-3.2604,-3.2712,-3.3069,-3.2222,-3.1319,-3.0396,-2.9443,-2.8611,-2.7965,-2.7742,-2.7565,-2.7426,-2.7317,-2.7255,-2.7049,-2.6952,-2.6871,-2.6903,-2.6935,-2.6839,-2.6937,-2.7098,-2.695,-2.6852,-2.6821,-2.6838,-2.6952,-2.6952,-2.664,-2.6505,-2.6773,-2.6838,-2.6853,-2.7144,-2.7129,-3.0157,-3.0176,-3.0171,-3.0171,-3.0142,-3.0157,-3.0128,-3.0128,-3.0094,-3.0019,-2.9888,-2.9872,-2.9805,-2.9608,-2.9608,-2.9474,-2.9314,-2.9312,-2.9141,-2.9026,-2.898,-2.9007,-2.9123,-2.9166,-2.9097,-2.8938,-2.8887,-2.891,-2.891,-2.8952,-2.8887,-2.8767,-2.8767,-2.8767,-2.8601,-2.8412,-2.8272,-2.8219,-2.8147,-2.8093,-2.812,-2.8147,-2.8174,-2.8093,-2.7954,-2.8211,-2.8634,-2.9013,-2.9583,-3.0856,-3.0921,-3.0578,-3.0008,-2.992,-2.9819,-2.9923,-2.9822,-2.9801,-2.9593,-2.9341,-2.9242,-2.8621,-2.844,-2.8492,-2.844,-2.8388,-2.8414,-2.8388,-2.8492,-2.8594,-2.9107,-2.9908,-3.1057,-3.2111,-3.2327,-3.1996,-3.1809,-3.2011,-3.2299,-3.2299,-3.2316,-3.2299,-3.2107,-3.1652,-3.0935,-3.0427,-2.9428,-2.842,-2.7665,-2.7173,-2.6973,-2.679,-2.6723,-2.6674,-2.6386,-2.6106,-2.5947,-2.5911,-2.5983,-2.5964,-2.6035,-2.6106,-2.5928,-2.5892,-2.6125,-2.609,-2.5964,-2.5783,-2.5672,-2.5815,-2.6175,-2.5892,-2.564,-2.616,-2.63,-2.9972,-2.9953,-3.0087,-3.0022,-2.991,-2.994,-2.9891,-2.9789,-2.9771,-2.9867,-2.97,-2.9719,-2.9664,-2.9551,-2.9526,-2.9295,-2.9336,-2.9263,-2.8998,-2.8929,-2.8905,-2.8839,-2.8881,-2.8965,-2.8923,-2.8767,-2.8791,-2.881,-2.881,-2.8718,-2.8626,-2.8386,-2.836,-2.8228,-2.801,-2.7982,-2.7908,-2.7908,-2.7897,-2.7869,-2.7869,-2.7926,-2.7926,-2.784,-2.7589,-2.7653,-2.7978,-2.8098,-2.8236,-2.8613,-2.9109,-2.9321,-2.9061,-2.8583,-2.8416,-2.8564,-2.8928,-2.8888,-2.8417,-2.867,-2.8718,-2.8085,-2.7989,-2.7904,-2.7904,-2.7933,-2.7933,-2.7904,-2.7922,-2.8422,-2.9485,-3.0472,-3.1344,-3.2035,-3.2056,-3.179,-3.1776,-3.2022,-3.2196,-3.2231,-3.2231,-3.2265,-3.2231,-3.1738,-3.1078,-3.0439,-2.9417,-2.8275,-2.7475,-2.6768,-2.653,-2.6445,-2.6193,-2.6123,-2.5819,-2.5486,-2.5205,-2.5012,-2.5012,-2.4989,-2.5051,-2.5221,-2.5089,-2.5297,-2.5577,-2.5481,-2.5253,-2.5368,-2.5389,-2.5513,-2.5546,-2.5313,-2.5227,-2.547,-2.554,-2.9874,-2.9822,-2.9926,-2.9841,-2.9756,-3.0112,-3.0263,-3.0246,-3.0602,-3.0675,-3.0613,-3.0553,-3.0469,-3.0339,-3.0245,-3.0189,-3.0123,-3.0021,-2.9983,-2.9977,-2.9915,-2.9577,-2.906,-2.9013,-2.8967,-2.8582,-2.8482,-2.8482,-2.8378,-2.8352,-2.8228,-2.8075,-2.8002,-2.7982,-2.7713,-2.7607,-2.7535,-2.7487,-2.7444,-2.7413,-2.7444,-2.7474,-2.7474,-2.7413,-2.7164,-2.7145,-2.7284,-2.7284,-2.7284,-2.7386,-2.7709,-2.791,-2.7833,-2.75,-2.7324,-2.7548,-2.7774,-2.7989,-2.787,-2.8017,-2.8152,-2.7724,-2.7701,-2.7701,-2.7701,-2.7701,-2.7701,-2.7701,-2.7853,-2.8315,-2.9772,-3.0051,-3.0819,-3.1707,-3.1677,-3.1487,-3.1487,-3.1674,-3.1785,-3.1731,-3.1511,-3.1418,-3.1304,-3.1189,-3.0583,-2.9666,-2.9371,-2.8293,-2.7619,-2.6929,-2.6461,-2.6227,-2.5831,-2.5519,-2.5237,-2.4871,-2.4455,-2.421,-2.4044,-2.3918,-2.3876,-2.4127,-2.4333,-2.4592,-2.4887,-2.4918,-2.4799,-2.4958,-2.4942,-2.4895,-2.4855,-2.4816,-2.4863,-2.4973,-2.4965,-2.9828,-2.9777,-2.9738,-2.9608,-2.9587,-3.0337,-3.0635,-3.0744,-3.1568,-3.1567,-3.1594,-3.1518,-3.1134,-3.1228,-3.1026,-3.1065,-3.102,-3.093,-3.0668,-3.0558,-3.054,-3.0094,-2.9565,-2.9405,-2.918,-2.8421,-2.8209,-2.8083,-2.7982,-2.7869,-2.7897,-2.7794,-2.7736,-2.7607,-2.7547,-2.7303,-2.7132,-2.7117,-2.7055,-2.6957,-2.6957,-2.699,-2.7007,-2.6908,-2.6842,-2.6775,-2.681,-2.6809,-2.6742,-2.6708,-2.6708,-2.6708,-2.6708,-2.6725,-2.6791,-2.7135,-2.7341,-2.7454,-2.7473,-2.7618,-2.7735,-2.7604,-2.7535,-2.7504,-2.7504,-2.7365,-2.7303,-2.7286,-2.7359,-2.7742,-2.929,-2.9334,-2.9809,-3.0714,-3.0942,-3.0965,-3.0897,-3.0874,-3.0998,-3.1078,-3.0965,-3.0851,-3.0526,-3.026,-2.9587,-2.899,-2.8769,-2.8378,-2.7692,-2.699,-2.6468,-2.5882,-2.5444,-2.4692,-2.4313,-2.4261,-2.3839,-2.3728,-2.3422,-2.329,-2.3127,-2.3348,-2.3679,-2.3879,-2.4063,-2.412,-2.4105,-2.4048,-2.4048,-2.4094,-2.4063,-2.3945,-2.4112,-2.4405,-2.442,-2.9746,-3.0135,-2.9613,-2.9272,-2.9248,-3.008,-3.0401,-3.0325,-3.1243,-3.1434,-3.1331,-3.1066,-3.113,-3.1102,-3.0838,-3.0754,-3.0894,-3.0919,-3.0683,-3.0503,-3.0455,-3.0154,-2.9937,-2.9849,-2.96,-2.9074,-2.8465,-2.7994,-2.7924,-2.7811,-2.7857,-2.7513,-2.7473,-2.7351,-2.7124,-2.6825,-2.6893,-2.6875,-2.6876,-2.6825,-2.6775,-2.6825,-2.6876,-2.6742,-2.6691,-2.6691,-2.6708,-2.6708,-2.6708,-2.6708,-2.6708,-2.6708,-2.664,-2.664,-2.6691,-2.6876,-2.7233,-2.7267,-2.7043,-2.7351,-2.7351,-2.7045,-2.6873,-2.6841,-2.6791,-2.6624,-2.6522,-2.6386,-2.6262,-2.6435,-2.752,-2.8052,-2.8373,-2.9009,-2.9724,-2.9943,-2.9632,-2.9838,-3.0251,-3.0435,-3.0393,-3.0293,-2.9951,-2.9645,-2.923,-2.8751,-2.841,-2.8133,-2.7666,-2.6927,-2.6211,-2.5635,-2.5077,-2.4164,-2.3334,-2.3378,-2.3244,-2.3376,-2.3223,-2.3146,-2.3028,-2.2947,-2.3083,-2.3419,-2.3407,-2.3319,-2.3275,-2.329,-2.3348,-2.3494,-2.3319,-2.3069,-2.3434,-2.3803,-2.3964,-2.9385,-2.954,-2.9245,-2.9287,-2.9619,-3.0442,-3.1004,-3.1326,-3.1974,-3.2236,-3.2094,-3.1828,-3.1658,-3.1689,-3.1596,-3.1483,-3.1448,-3.1452,-3.1338,-3.1175,-3.1175,-3.0779,-3.0367,-3.028,-2.9799,-2.9282,-2.8646,-2.8416,-2.8418,-2.847,-2.8266,-2.8253,-2.8135,-2.7862,-2.7402,-2.7351,-2.7029,-2.6877,-2.6792,-2.6792,-2.6725,-2.6775,-2.6775,-2.6725,-2.6725,-2.6708,-2.6708,-2.6708,-2.6708,-2.6674,-2.6504,-2.6397,-2.6358,-2.6308,-2.6314,-2.6673,-2.6874,-2.682,-2.6399,-2.6576,-2.6349,-2.6151,-2.6104,-2.6087,-2.6052,-2.5908,-2.5864,-2.5758,-2.5754,-2.6048,-2.7404,-2.7591,-2.8176,-2.8976,-2.9491,-2.9491,-2.9453,-2.9572,-2.9653,-2.9717,-2.9585,-2.9496,-2.9483,-2.9212,-2.8919,-2.8545,-2.8092,-2.7779,-2.7514,-2.6894,-2.6078,-2.5527,-2.4963,-2.4334,-2.3482,-2.324,-2.3136,-2.3146,-2.3126,-2.3045,-2.3019,-2.3011,-2.3041,-2.3196,-2.3054,-2.2936,-2.2933,-2.3082,-2.2978,-2.2931,-2.2946,-2.2991,-2.301,-2.3186,-2.3466,-2.9076,-2.9095,-2.9143,-2.9418,-3.0002,-3.0947,-3.1629,-3.2262,-3.2715,-3.288,-3.2876,-3.2449,-3.2263,-3.2316,-3.2298,-3.223,-3.2214,-3.2109,-3.1969,-3.1846,-3.1846,-3.1426,-3.0972,-3.0604,-3.0287,-2.961,-2.9407,-2.9171,-2.8878,-2.8772,-2.8797,-2.8626,-2.8706,-2.8521,-2.7984,-2.7704,-2.7377,-2.7177,-2.6889,-2.6872,-2.6889,-2.6889,-2.6889,-2.6889,-2.6872,-2.6937,-2.695,-2.6972,-2.6944,-2.6891,-2.667,-2.6466,-2.6361,-2.6096,-2.6258,-2.6662,-2.6322,-2.6049,-2.5924,-2.5779,-2.5712,-2.5668,-2.5556,-2.5605,-2.5805,-2.5966,-2.5876,-2.5692,-2.5726,-2.615,-2.7226,-2.7602,-2.8068,-2.8672,-2.9083,-2.9207,-2.8896,-2.8745,-2.8545,-2.8591,-2.8622,-2.8732,-2.8795,-2.8543,-2.824,-2.803,-2.7603,-2.737,-2.7051,-2.6722,-2.6052,-2.5474,-2.4984,-2.4533,-2.3956,-2.3523,-2.3403,-2.3298,-2.3225,-2.3137,-2.3122,-2.318,-2.321,-2.3193,-2.3086,-2.3025,-2.2983,-2.2944,-2.3008,-2.2997,-2.2904,-2.2922,-2.3041,-2.3249,-2.3525,-2.9217,-2.9696,-2.9678,-2.9769,-2.9998,-3.115,-3.1697,-3.1803,-3.2346,-3.2484,-3.2368,-3.2039,-3.2021,-3.2179,-3.2248,-3.2074,-3.1877,-3.1768,-3.1657,-3.1504,-3.1449,-3.1321,-3.1099,-3.1116,-3.0662,-3.0075,-3.0111,-2.9783,-2.9219,-2.8727,-2.8511,-2.8483,-2.8336,-2.7905,-2.8241,-2.7997,-2.7823,-2.7927,-2.7643,-2.7469,-2.7436,-2.7443,-2.7427,-2.746,-2.7443,-2.7418,-2.7398,-2.7356,-2.7391,-2.7398,-2.7394,-2.7397,-2.7431,-2.7416,-2.7372,-2.7097,-2.6454,-2.5594,-2.5686,-2.5686,-2.5625,-2.5619,-2.5583,-2.5853,-2.611,-2.6427,-2.6461,-2.6205,-2.6231,-2.6467,-2.706,-2.7295,-2.7433,-2.7579,-2.7922,-2.7636,-2.7367,-2.7896,-2.7689,-2.757,-2.762,-2.7978,-2.8155,-2.7879,-2.7565,-2.7348,-2.7144,-2.6834,-2.6529,-2.6146,-2.5897,-2.535,-2.5012,-2.4588,-2.4357,-2.3928,-2.3793,-2.3644,-2.3379,-2.3339,-2.3554,-2.3582,-2.3339,-2.3295,-2.3255,-2.3293,-2.3317,-2.3317,-2.319,-2.31,-2.3025,-2.3069,-2.3193,-2.3349,-2.3526,-2.847,-2.8883,-2.9322,-2.9687,-3.0024,-3.0973,-3.165,-3.1941,-3.2004,-3.2021,-3.1896,-3.1603,-3.1562,-3.1694,-3.1657,-3.1562,-3.1428,-3.1411,-3.1351,-3.1173,-3.1134,-3.1055,-3.0861,-3.0781,-3.0559,-3.0208,-3.0048,-2.9878,-2.9412,-2.9256,-2.9139,-2.9049,-2.8906,-2.876,-2.8543,-2.8313,-2.8095,-2.7908,-2.7697,-2.7591,-2.7591,-2.7607,-2.7623,-2.7582,-2.7598,-2.7614,-2.7623,-2.7599,-2.7588,-2.7536,-2.7448,-2.7246,-2.7164,-2.7065,-2.6891,-2.6859,-2.6403,-2.6167,-2.63,-2.6129,-2.6024,-2.6005,-2.6005,-2.6141,-2.6424,-2.662,-2.6678,-2.6394,-2.6364,-2.6639,-2.6978,-2.6963,-2.7115,-2.7152,-2.7096,-2.6876,-2.6652,-2.6748,-2.6872,-2.6782,-2.6678,-2.7004,-2.7276,-2.7056,-2.6782,-2.6654,-2.6443,-2.6176,-2.5851,-2.5522,-2.5301,-2.5135,-2.4915,-2.4668,-2.4503,-2.4311,-2.4284,-2.4106,-2.3659,-2.3659,-2.4106,-2.4176,-2.3714,-2.3822,-2.4123,-2.4054,-2.3807,-2.3582,-2.3402,-2.3268,-2.3175,-2.3377,-2.3499,-2.3294,-2.3386,-2.7771,-2.795,-2.8823,-2.9513,-3.0053,-3.0709,-3.1428,-3.2057,-3.1768,-3.1582,-3.1524,-3.1329,-3.119,-3.119,-3.1213,-3.119,-3.0998,-3.1015,-3.0935,-3.0878,-3.0797,-3.0617,-3.0393,-3.0309,-3.0081,-2.9601,-2.9617,-2.9476,-2.939,-2.9374,-2.9294,-2.9633,-2.9201,-2.9131,-2.887,-2.8578,-2.8315,-2.7953,-2.789,-2.7858,-2.7842,-2.781,-2.7853,-2.7822,-2.7801,-2.7801,-2.7801,-2.7806,-2.7833,-2.7778,-2.7668,-2.7535,-2.7454,-2.738,-2.7226,-2.721,-2.7025,-2.71,-2.7047,-2.6803,-2.6502,-2.6426,-2.6641,-2.6684,-2.6731,-2.6748,-2.6903,-2.7057,-2.6826,-2.7055,-2.7174,-2.6924,-2.6877,-2.6849,-2.6791,-2.6611,-2.6467,-2.6254,-2.6108,-2.5946,-2.5946,-2.6054,-2.6215,-2.6094,-2.6,-2.5934,-2.5729,-2.5453,-2.5216,-2.4935,-2.4951,-2.4912,-2.4673,-2.4547,-2.449,-2.4416,-2.4509,-2.435,-2.3872,-2.3774,-2.4081,-2.4138,-2.3874,-2.416,-2.4536,-2.4231,-2.3699,-2.3643,-2.3635,-2.3838,-2.3974,-2.3906,-2.3891,-2.3606,-2.3402,-2.7504,-2.7376,-2.8448,-2.9277,-2.9954,-3.0473,-3.1042,-3.161,-3.1372,-3.1252,-3.1291,-3.119,-3.1134,-3.1151,-3.1015,-3.0838,-3.0559,-3.0559,-3.0351,-3.0113,-2.9881,-2.9968,-2.9881,-2.9793,-2.9617,-2.9227,-2.9136,-2.892,-2.8668,-2.8763,-2.8873,-2.9044,-2.8889,-2.8842,-2.8779,-2.8607,-2.8436,-2.8218,-2.8218,-2.8233,-2.8264,-2.8295,-2.831,-2.8294,-2.8324,-2.8338,-2.8323,-2.8263,-2.8171,-2.8155,-2.8014,-2.7902,-2.7719,-2.7722,-2.7601,-2.7601,-2.7649,-2.7682,-2.7559,-2.7057,-2.6534,-2.6519,-2.6826,-2.7148,-2.7055,-2.7777,-2.8102,-2.7819,-2.7233,-2.7205,-2.722,-2.7085,-2.6666,-2.65,-2.6322,-2.6014,-2.5797,-2.5536,-2.5384,-2.5174,-2.5216,-2.5425,-2.53,-2.5287,-2.5384,-2.5314,-2.5034,-2.4751,-2.4808,-2.4694,-2.4765,-2.4738,-2.4439,-2.4323,-2.4266,-2.4176,-2.3943,-2.3826,-2.3518,-2.3518,-2.3715,-2.3695,-2.3636,-2.3767,-2.3897,-2.3767,-2.3741,-2.3769,-2.3963,-2.4509,-2.4606,-2.4184,-2.4067,-2.3946,-2.3797,-2.7149,-2.7247,-2.7459,-2.7977,-2.8716,-2.9826,-3.0452,-3.0738,-3.1065,-3.119,-3.1151,-3.0918,-3.0781,-3.0699,-3.0452,-3.0267,-3.0097,-3.0054,-2.9924,-2.9837,-2.9793,-2.9617,-2.9483,-2.9319,-2.9136,-2.8795,-2.8668,-2.8621,-2.8444,-2.8411,-2.8444,-2.8525,-2.8493,-2.8525,-2.8525,-2.8541,-2.8444,-2.8411,-2.8411,-2.8411,-2.8411,-2.8411,-2.8411,-2.8411,-2.8411,-2.8411,-2.8381,-2.8396,-2.8176,-2.7987,-2.7868,-2.7695,-2.7524,-2.7473,-2.7429,-2.7429,-2.7479,-2.7479,-2.7535,-2.7146,-2.6957,-2.6744,-2.7079,-2.7323,-2.7066,-2.7259,-2.7363,-2.7195,-2.7174,-2.7004,-2.6923,-2.652,-2.6162,-2.6014,-2.5811,-2.5495,-2.5328,-2.5118,-2.4948,-2.4935,-2.4935,-2.4991,-2.4751,-2.4523,-2.4624,-2.4738,-2.4394,-2.4176,-2.4292,-2.4279,-2.435,-2.435,-2.406,-2.3943,-2.3826,-2.359,-2.3305,-2.3185,-2.3113,-2.3173,-2.3245,-2.3185,-2.3185,-2.3245,-2.3305,-2.3292,-2.3471,-2.3813,-2.4047,-2.4221,-2.4163,-2.391,-2.3958,-2.4113,-2.3979,-2.6825,-2.7021,-2.6791,-2.7131,-2.7891,-2.8811,-2.9362,-2.9681,-3.0202,-3.063,-3.0757,-3.0535,-3.0393,-3.0225,-3.0011,-2.9705,-2.9617,-2.9572,-2.9483,-2.9364,-2.9227,-2.9182,-2.8997,-2.8873,-2.8748,-2.8444,-2.8411,-2.8411,-2.8411,-2.8411,-2.8444,-2.8444,-2.8411,-2.8444,-2.8396,-2.8411,-2.8411,-2.8411,-2.8411,-2.8411,-2.8411,-2.8411,-2.8411,-2.8348,-2.8235,-2.8073,-2.7974,-2.7894,-2.7603,-2.7414,-2.7225,-2.7093,-2.689,-2.6703,-2.6692,-2.6678,-2.6678,-2.6663,-2.6821,-2.6967,-2.7076,-2.6803,-2.6944,-2.7004,-2.6828,-2.6703,-2.6901,-2.6797,-2.664,-2.6428,-2.6428,-2.5974,-2.566,-2.555,-2.5384,-2.5174,-2.5118,-2.5005,-2.4821,-2.4765,-2.4708,-2.4593,-2.4176,-2.3884,-2.3943,-2.4105,-2.4047,-2.3872,-2.3872,-2.3872,-2.3813,-2.3754,-2.359,-2.3471,-2.3352,-2.3065,-2.2775,-2.2714,-2.2714,-2.2714,-2.2775,-2.2726,-2.2726,-2.2726,-2.2836,-2.2944,-2.3005,-2.3125,-2.3352,-2.3636,-2.3682,-2.3787,-2.3598,-2.3696,-2.3751,-2.6691,-2.6708,-2.6691,-2.708,-2.7618,-2.7394,-2.7765,-2.8461,-2.8903,-2.9381,-2.9962,-3.0225,-3.0182,-2.9837,-2.9661,-2.9409,-2.9166,-2.9074,-2.8951,-2.87,-2.8716,-2.8541,-2.8493,-2.8493,-2.8541,-2.846,-2.8411,-2.8411,-2.8411,-2.8411,-2.8411,-2.8411,-2.8411,-2.8411,-2.8411,-2.8411,-2.8411,-2.8411,-2.8348,-2.8299,-2.8186,-2.8137,-2.8137,-2.8024,-2.7745,-2.753,-2.7464,-2.7261,-2.6973,-2.6763,-2.6718,-2.6587,-2.6468,-2.644,-2.6443,-2.6467,-2.652,-2.6591,-2.6638,-2.6666,-2.6557,-2.6497,-2.6556,-2.6572,-2.6633,-2.66,-2.6467,-2.6269,-2.6068,-2.5879,-2.5674,-2.5397,-2.5104,-2.4935,-2.4765,-2.4708,-2.4708,-2.465,-2.4465,-2.435,-2.4292,-2.4176,-2.3649,-2.3352,-2.3305,-2.3412,-2.3577,-2.3577,-2.3399,-2.3339,-2.3233,-2.3173,-2.3005,-2.3005,-2.2823,-2.2543,-2.2309,-2.2247,-2.2309,-2.2432,-2.2432,-2.2371,-2.2371,-2.2321,-2.2371,-2.2543,-2.242,-2.2247,-2.2653,-2.3113,-2.3598,-2.3761,-2.3505,-2.3374,-2.341,-2.628,-2.6315,-2.6315,-2.6272,-2.6389,-2.6978,-2.725,-2.7375,-2.8314,-2.9189,-2.9653,-2.9689,-2.9528,-2.9303,-2.9059,-2.8842,-2.87,-2.8605,-2.8444,-2.8444,-2.8411,-2.8411,-2.8411,-2.8411,-2.8411,-2.8411,-2.8411,-2.8411,-2.8411,-2.8411,-2.8411,-2.8411,-2.8299,-2.8411,-2.8411,-2.8348,-2.8235,-2.7894,-2.7745,-2.7645,-2.7327,-2.7327,-2.7327,-2.7327,-2.7108,-2.699,-2.6938,-2.6678,-2.646,-2.6236,-2.6179,-2.6032,-2.5771,-2.566,-2.5646,-2.5632,-2.5577,-2.5563,-2.5549,-2.555,-2.5563,-2.5723,-2.5926,-2.5964,-2.5674,-2.5591,-2.555,-2.5522,-2.5245,-2.5034,-2.4751,-2.4394,-2.4105,-2.4047,-2.3989,-2.3989,-2.4002,-2.3989,-2.3872,-2.3872,-2.3826,-2.359,-2.3185,-2.2884,-2.2836,-2.2775,-2.2884,-2.2823,-2.2714,-2.2653,-2.2543,-2.2543,-2.2482,-2.242,-2.2359,-2.2247,-2.2197,-2.2247,-2.2247,-2.2247,-2.2197,-2.2197,-2.2197,-2.2259,-2.2197,-2.2197,-2.2197,-2.2197,-2.2309,-2.2641,-2.3135,-2.3255,-2.2932,-2.2944,-2.3255,-2.5908,-2.5924,-2.5908,-2.5635,-2.5454,-2.6081,-2.629,-2.6406,-2.7602,-2.8517,-2.8873,-2.8993,-2.8997,-2.8826,-2.8573,-2.8411,-2.8411,-2.8411,-2.8411,-2.8411,-2.8411,-2.8411,-2.8411,-2.8411,-2.8411,-2.8411,-2.8411,-2.8411,-2.8411,-2.8411,-2.8235,-2.8073,-2.7925,-2.771,-2.776,-2.7795,-2.791,-2.758,-2.7414,-2.7093,-2.6886,-2.6782,-2.6782,-2.6678,-2.6587,-2.6443,-2.639,-2.6187,-2.5969,-2.5683,-2.5521,-2.5397,-2.5118,-2.5005,-2.5005,-2.5005,-2.5005,-2.5005,-2.5048,-2.5104,-2.5133,-2.5133,-2.5397,-2.5397,-2.5118,-2.5131,-2.4948,-2.4765,-2.4465,-2.4234,-2.4047,-2.3636,-2.3577,-2.3518,-2.3518,-2.3577,-2.3577,-2.3577,-2.3471,-2.3471,-2.3305,-2.3065,-2.2775,-2.2543,-2.2371,-2.2309,-2.2247,-2.2197,-2.2197,-2.2197,-2.2197,-2.2197,-2.2247,-2.2247,-2.2247,-2.2247,-2.2197,-2.2197,-2.2197,-2.2197,-2.2197,-2.2197,-2.2197,-2.2197,-2.2197,-2.2197,-2.2197,-2.2247,-2.2247,-2.2347,-2.2494,-2.2445,-2.2247,-2.2543,-2.3005,-2.5503,-2.5486,-2.5465,-2.5253,-2.4958,-2.5005,-2.5117,-2.5481,-2.6623,-2.7274,-2.7597,-2.8716,-2.8826,-2.8493,-2.8411,-2.8411,-2.8411,-2.8411,-2.8411,-2.8411,-2.8411,-2.8411,-2.8411,-2.8411,-2.8411,-2.8411,-2.8411,-2.8348,-2.8348,-2.8073,-2.7795,-2.753,-2.7159,-2.7056,-2.7108,-2.7159,-2.7312,-2.7056,-2.6872,-2.6558,-2.6308,-2.6414,-2.6361,-2.6215,-2.6068,-2.5879,-2.5715,-2.5481,-2.5258,-2.5077,-2.5061,-2.5005,-2.5005,-2.5005,-2.5005,-2.5005,-2.5005,-2.5005,-2.5005,-2.5005,-2.5005,-2.5005,-2.4935,-2.5005,-2.5005,-2.4948,-2.4821,-2.4536,-2.4234,-2.3943,-2.3649,-2.3471,-2.3352,-2.3339,-2.3339,-2.3339,-2.3412,-2.3292,-2.3185,-2.3078,-2.2909,-2.2665,-2.2432,-2.2197,-2.2197,-2.2197,-2.2197,-2.2197,-2.2197,-2.2197,-2.2197,-2.2197,-2.2197,-2.2197,-2.2197,-2.2197,-2.2197,-2.2197,-2.2197,-2.2197,-2.2197,-2.2197,-2.2197,-2.2197,-2.2197,-2.2197,-2.2197,-2.2197,-2.2197,-2.2235,-2.2347,-2.2285,-2.2259,-2.2555,-2.2848,-2.5162,-2.5098,-2.5185,-2.4926,-2.4492,-2.4451,-2.5033,-2.598,-2.6481,-2.7133,-2.8134,-2.8432,-2.8525,-2.8411,-2.8411,-2.8411,-2.8411,-2.8411,-2.8411,-2.8396,-2.8299,-2.8348,-2.8411,-2.8396,-2.8411,-2.8348,-2.8299,-2.8122,-2.7745,-2.7479,-2.721,-2.6886,-2.6625,-2.6625,-2.652,-2.6481,-2.6443,-2.639,-2.6187,-2.5972,-2.5673,-2.5632,-2.5632,-2.5536,-2.5495,-2.5342,-2.523,-2.5118,-2.5005,-2.5005,-2.5005,-2.5005,-2.5005,-2.5005,-2.5005,-2.5005,-2.5005,-2.5005,-2.5005,-2.5005,-2.4935,-2.4821,-2.4637,-2.4765,-2.4892,-2.4835,-2.465,-2.4234,-2.3884,-2.3531,-2.3185,-2.3005,-2.2896,-2.2823,-2.2823,-2.2823,-2.2836,-2.2836,-2.2665,-2.2665,-2.2494,-2.2494,-2.2197,-2.2197,-2.2197,-2.2197,-2.2197,-2.2197,-2.2197,-2.2197,-2.2197,-2.2197,-2.2197,-2.2197,-2.2197,-2.2197,-2.2197,-2.2197,-2.2197,-2.2197,-2.2197,-2.2197,-2.2197,-2.2197,-2.2197,-2.2197,-2.2197,-2.2197,-2.2197,-2.2259,-2.2309,-2.2321,-2.2321,-2.2616,-2.2726,-2.4726,-2.4695,-2.4742,-2.458,-2.4302,-2.4078,-2.4754,-2.5895,-2.6274,-2.7026,-2.798,-2.8288,-2.8411,-2.8348,-2.8122,-2.8008,-2.7959,-2.7695,-2.7595,-2.7645,-2.7959,-2.8008,-2.8073,-2.8235,-2.8186,-2.8186,-2.7959,-2.7695,-2.721,-2.6692,-2.639,-2.6322,-2.6215,-2.6054,-2.5906,-2.5701,-2.5591,-2.5591,-2.5522,-2.53,-2.5147,-2.5005,-2.5005,-2.5005,-2.5005,-2.5005,-2.5005,-2.5005,-2.5005,-2.5005,-2.5005,-2.5005,-2.5005,-2.5005,-2.5005,-2.5005,-2.5005,-2.4892,-2.4765,-2.4708,-2.461,-2.4412,-2.4208,-2.4229,-2.4287,-2.4287,-2.4028,-2.3708,-2.3424,-2.3125,-2.2726,-2.2371,-2.2309,-2.2247,-2.2247,-2.2185,-2.2259,-2.2259,-2.2197,-2.2259,-2.2197,-2.2259,-2.2197,-2.2197,-2.2197,-2.2197,-2.2197,-2.2197,-2.2197,-2.2197,-2.2197,-2.2197,-2.2197,-2.2197,-2.2197,-2.2197,-2.2197,-2.2197,-2.2197,-2.2197,-2.2197,-2.2197,-2.2197,-2.2197,-2.2197,-2.2197,-2.2197,-2.2197,-2.2197,-2.2259,-2.2383,-2.2445,-2.2432,-2.2555,-2.2604,-2.4261,-2.4219,-2.4234,-2.412,-2.4135,-2.3739,-2.4253,-2.5433,-2.5971,-2.6673,-2.7361,-2.799,-2.8137,-2.791,-2.763,-2.7464,-2.7363,-2.7108,-2.7004,-2.673,-2.7261,-2.7479,-2.758,-2.791,-2.7695,-2.7515,-2.7363,-2.7174,-2.6654,-2.6122,-2.5825,-2.577,-2.5384,-2.5272,-2.5272,-2.523,-2.5174,-2.516,-2.516,-2.5048,-2.5061,-2.5005,-2.5005,-2.5005,-2.5005,-2.5005,-2.5005,-2.5005,-2.5005,-2.5005,-2.5005,-2.5005,-2.5005,-2.5005,-2.5005,-2.4892,-2.4835,-2.4593,-2.435,-2.4234,-2.4053,-2.3852,-2.3559,-2.3569,-2.3667,-2.3878,-2.3662,-2.3365,-2.3078,-2.2836,-2.2494,-2.2309,-2.2197,-2.2197,-2.2197,-2.2197,-2.2197,-2.2197,-2.2197,-2.2197,-2.2197,-2.2197,-2.2197,-2.2197,-2.2197,-2.2197,-2.2197,-2.2197,-2.2197,-2.2197,-2.2197,-2.2197,-2.2197,-2.2197,-2.2197,-2.2197,-2.2197,-2.2197,-2.2197,-2.2197,-2.2197,-2.2197,-2.2197,-2.2197,-2.2197,-2.2197,-2.2197,-2.2197,-2.2197,-2.2259,-2.2383,-2.2494,-2.2616,-2.2665,-2.2678,-2.4078,-2.3724,-2.3377,-2.3246,-2.3246,-2.3113,-2.38,-2.4941,-2.5066,-2.581,-2.6754,-2.7019,-2.7174,-2.7159,-2.7004,-2.6886,-2.6834,-2.664,-2.6678,-2.6625,-2.6834,-2.6901,-2.6886,-2.7159,-2.7056,-2.6938,-2.6782,-2.6587,-2.6068,-2.555,-2.523,-2.523,-2.5005,-2.5005,-2.5005,-2.5005,-2.5005,-2.5005,-2.5005,-2.5005,-2.5005,-2.5005,-2.5005,-2.5005,-2.5005,-2.5005,-2.5005,-2.5005,-2.5005,-2.5005,-2.5005,-2.5005,-2.5005,-2.4948,-2.4765,-2.4536,-2.4478,-2.4234,-2.3943,-2.3767,-2.361,-2.3492,-2.328,-2.315,-2.3163,-2.3424,-2.3412,-2.3078,-2.2787,-2.2555,-2.2371,-2.2247,-2.2197,-2.2197,-2.2197,-2.2197,-2.2197,-2.2197,-2.2197,-2.2197,-2.2197,-2.2197,-2.2197,-2.2197,-2.2197,-2.2197,-2.2197,-2.2197,-2.2197,-2.2197,-2.2197,-2.2197,-2.2197,-2.2197,-2.2197,-2.2197,-2.2197,-2.2197,-2.2197,-2.2197,-2.2197,-2.2185,-2.2247,-2.2197,-2.2197,-2.2197,-2.2197,-2.2197,-2.2197,-2.2259,-2.2445,-2.2616,-2.2726,-2.2787,-2.2848,-2.367,-2.329,-2.3009,-2.2889,-2.2844,-2.2663,-2.3288,-2.4205,-2.4198,-2.4803,-2.5955,-2.6414,-2.6678,-2.6625,-2.6481,-2.6336,-2.6283,-2.6014,-2.5851,-2.5892,-2.6269,-2.6351,-2.639,-2.6534,-2.6496,-2.6428,-2.6054,-2.5687,-2.5495,-2.5286,-2.5005,-2.5005,-2.5005,-2.4948,-2.4948,-2.5005,-2.4948,-2.5005,-2.4962,-2.4975,-2.4975,-2.5018,-2.5005,-2.5005,-2.5005,-2.5005,-2.5005,-2.5005,-2.5005,-2.4875,-2.4801,-2.4474,-2.439,-2.4292,-2.4221,-2.4047,-2.3943,-2.3826,-2.3471,-2.3233,-2.3173,-2.3005,-2.2836,-2.2629,-2.2629,-2.2836,-2.2836,-2.2494,-2.2494,-2.2309,-2.2247,-2.2197,-2.2197,-2.2197,-2.2197,-2.2197,-2.2197,-2.2197,-2.2197,-2.2197,-2.2197,-2.2197,-2.2197,-2.2197,-2.2197,-2.2309,-2.2247,-2.2247,-2.2247,-2.2111,-2.2123,-2.2061,-2.1999,-2.2123,-2.2197,-2.2197,-2.2197,-2.2197,-2.2197,-2.2247,-2.2247,-2.2309,-2.2309,-2.2309,-2.2309,-2.2247,-2.2247,-2.2247,-2.2247,-2.2309,-2.2494,-2.269,-2.286,-2.2957,-2.2969,-2.3125,-2.2859,-2.2709,-2.2694,-2.2663,-2.2263,-2.2728,-2.3645,-2.345,-2.3892,-2.512,-2.6068,-2.6428,-2.6322,-2.6028,-2.5879,-2.5729,-2.5495,-2.516,-2.5272,-2.5605,-2.5715,-2.592,-2.6108,-2.596,-2.5756,-2.537,-2.5216,-2.5118,-2.5005,-2.5005,-2.5005,-2.4948,-2.4892,-2.4892,-2.4835,-2.4721,-2.4775,-2.4815,-2.4926,-2.4929,-2.5018,-2.5018,-2.5005,-2.4962,-2.4948,-2.4892,-2.4848,-2.4791,-2.4647,-2.4379,-2.4099,-2.3878,-2.3813,-2.3636,-2.359,-2.3543,-2.3245,-2.2957,-2.2836,-2.2604,-2.2371,-2.2259,-2.2197,-2.2247,-2.2247,-2.2247,-2.2247,-2.2247,-2.2247,-2.2197,-2.2197,-2.2197,-2.2197,-2.2197,-2.2197,-2.2197,-2.2197,-2.2197,-2.2197,-2.2197,-2.2197,-2.2185,-2.2185,-2.2247,-2.2359,-2.2359,-2.2297,-2.2223,-2.1975,-2.1839,-2.1663,-2.1549,-2.1737,-2.2061,-2.2123,-2.2123,-2.2197,-2.2197,-2.2309,-2.2371,-2.2432,-2.2432,-2.2432,-2.2432,-2.2371,-2.2309,-2.2309,-2.2371,-2.242,-2.2616,-2.28,-2.2848,-2.2957,-2.3078,-2.2737,-2.2324,-2.1888,-2.1698,-2.1698,-2.1602,-2.2201,-2.3223,-2.3307,-2.3892,-2.483,-2.5104,-2.5314,-2.5328,-2.5272,-2.5216,-2.5286,-2.5061,-2.5005,-2.5061,-2.523,-2.523,-2.5272,-2.5536,-2.5328,-2.5174,-2.5061,-2.5005,-2.4948,-2.4948,-2.4948,-2.4948,-2.4523,-2.4408,-2.435,-2.4319,-2.4236,-2.4458,-2.4715,-2.4779,-2.501,-2.5025,-2.4989,-2.4848,-2.4647,-2.4505,-2.4345,-2.4073,-2.3884,-2.38,-2.3811,-2.3675,-2.3539,-2.3399,-2.3292,-2.3065,-2.3017,-2.2836,-2.2604,-2.2494,-2.2259,-2.2259,-2.2197,-2.2197,-2.2197,-2.2197,-2.2197,-2.2197,-2.2197,-2.2197,-2.2197,-2.2197,-2.2197,-2.2197,-2.2197,-2.2197,-2.2197,-2.2197,-2.2197,-2.2247,-2.2247,-2.2309,-2.2309,-2.2309,-2.2371,-2.242,-2.2297,-2.2235,-2.1776,-2.1639,-2.1502,-2.1336,-2.1094,-2.1549,-2.2011,-2.2061,-2.2061,-2.2123,-2.2061,-2.1913,-2.2037,-2.2555,-2.2616,-2.242,-2.2482,-2.2482,-2.2432,-2.2371,-2.2432,-2.2494,-2.2726,-2.2909,-2.2969,-2.2957,-2.3078]}]]